[[{"header":{"parameterUnit":"m.s-1","parameterCategory":1,"la1":30.6,"la2":29.2853,"lo1":-89.7004,"lo2":-87.6739,"dy":0.0162,"dx":0.0183,"nx":112,"ny":82,"refTime":"2024-04-10T06:00:00:Z","depth":0,"parameterNumber":2,"parameterNumberName":"U-component_of_WINDS"},"data":[0.0,0.0,0.0,0.0,0.0,0.0,0.0,0.0,0.0,0.0,0.0,0.0,0.0,0.0,0.0,0.0,0.0,0.0,0.0,0.0,0.0,0.0,0.0,0.0,0.0,0.0,0.0,0.0,0.0,0.0,0.0,0.0,0.0,0.0,0.0,0.0,0.0,0.0,0.0,0.0,0.0,0.0,0.0,0.0,0.0,0.0,0.0,0.0,0.0,0.0,0.0,0.0,0.0,0.0,0.0,0.0,0.0,0.0,0.0,0.0,0.0,0.0,0.0,0.0,0.0,0.0,0.0,0.0,0.0,0.0,0.0,0.0,0.0,0.0,0.0,0.0,0.0,0.0,0.0,0.0,0.0,0.0,0.0,0.0,0.0,0.0,0.0,0.0,0.0,0.0,3.0524,3.1538,3.5156,3.7609,3.8043,3.7665,3.5908,3.2446,0.0,0.0,0.0,0.0,0.0,0.0,0.0,0.0,0.0,0.0,0.0,0.0,0.0,0.0,0.0,0.0,0.0,0.0,0.0,0.0,0.0,0.0,0.0,0.0,0.0,0.0,0.0,0.0,0.0,0.0,0.0,0.0,0.0,0.0,0.0,0.0,0.0,0.0,0.0,0.0,0.0,0.0,0.0,0.0,0.0,0.0,0.0,0.0,0.0,0.0,0.0,0.0,0.0,0.0,0.0,0.0,0.0,0.0,0.0,0.0,0.0,0.0,0.0,0.0,0.0,0.0,0.0,0.0,0.0,0.0,0.0,0.0,0.0,0.0,0.0,0.0,0.0,0.0,0.0,0.0,0.0,0.0,0.0,0.0,0.0,0.0,0.0,0.0,0.0,0.0,0.0,0.0,0.0,0.0,0.0,0.0,0.0,0.0,0.0,0.0,0.0,0.0,0.0,0.0,3.1232,3.5851,3.7421,3.8742,4.0125,3.8042,3.6075,3.4472,0.0,0.0,0.0,0.0,0.0,0.0,0.0,0.0,0.0,0.0,0.0,0.0,0.0,0.0,0.0,0.0,0.0,0.0,0.0,0.0,0.0,0.0,0.0,0.0,0.0,0.0,0.0,0.0,0.0,0.0,0.0,0.0,0.0,0.0,0.0,0.0,0.0,0.0,0.0,0.0,0.0,0.0,0.0,0.0,0.0,0.0,0.0,0.0,0.0,0.0,0.0,0.0,0.0,0.0,0.0,0.0,0.0,0.0,0.0,0.0,0.0,0.0,0.0,0.0,0.0,0.0,0.0,0.0,0.0,0.0,0.0,0.0,0.0,0.0,0.0,0.0,0.0,0.0,0.0,0.0,0.0,0.0,0.0,0.0,0.0,0.0,0.0,0.0,0.0,0.0,0.0,0.0,0.0,0.0,0.0,0.0,0.0,0.0,0.0,0.0,0.0,0.0,0.0,3.1101,3.3741,3.776,3.9131,3.9924,4.0349,3.8888,3.6965,3.4529,3.2913,0.0,0.0,0.0,0.0,0.0,0.0,0.0,0.0,0.0,0.0,0.0,0.0,0.0,0.0,0.0,0.0,0.0,0.0,0.0,0.0,0.0,0.0,0.0,0.0,0.0,0.0,0.0,0.0,0.0,0.0,0.0,0.0,0.0,0.0,0.0,0.0,0.0,0.0,0.0,0.0,0.0,0.0,0.0,0.0,0.0,0.0,0.0,0.0,0.0,0.0,0.0,0.0,0.0,0.0,0.0,0.0,0.0,0.0,0.0,0.0,0.0,0.0,0.0,0.0,0.0,0.0,0.0,0.0,0.0,0.0,0.0,0.0,0.0,0.0,0.0,0.0,0.0,0.0,0.0,0.0,0.0,0.0,0.0,0.0,0.0,0.0,0.0,0.0,0.0,0.0,0.0,0.0,0.0,0.0,0.0,0.0,0.0,0.0,0.0,0.0,0.0,0.0,3.4152,3.6275,3.8662,4.0065,4.0685,4.0159,3.9031,3.7163,3.436,3.2763,0.0,0.0,0.0,0.0,0.0,0.0,0.0,0.0,0.0,0.0,0.0,0.0,0.0,0.0,0.0,0.0,0.0,0.0,0.0,0.0,0.0,0.0,0.0,0.0,0.0,0.0,0.0,0.0,0.0,0.0,0.0,0.0,0.0,0.0,0.0,0.0,0.0,0.0,0.0,0.0,0.0,0.0,0.0,0.0,0.0,0.0,0.0,0.0,0.0,0.0,0.0,0.0,0.0,0.0,0.0,0.0,0.0,0.0,0.0,0.0,0.0,0.0,0.0,0.0,0.0,0.0,0.0,0.0,0.0,0.0,0.0,0.0,0.0,0.0,0.0,0.0,0.0,0.0,0.0,0.0,0.0,0.0,0.0,0.0,0.0,0.0,0.0,0.0,0.0,0.0,0.0,0.0,0.0,0.0,0.0,0.0,0.0,0.0,0.0,0.0,0.0,0.0,3.5451,3.7951,3.8807,4.0119,4.0685,4.0159,3.7684,3.577,3.4908,3.2207,0.0,0.0,0.0,0.0,0.0,0.0,0.0,0.0,0.0,0.0,0.0,0.0,0.0,0.0,0.0,0.0,0.0,0.0,0.0,0.0,0.0,0.0,0.0,0.0,0.0,0.0,0.0,0.0,0.0,0.0,0.0,0.0,0.0,0.0,0.0,0.0,0.0,0.0,0.0,0.0,0.0,0.0,0.0,0.0,0.0,0.0,0.0,0.0,0.0,0.0,0.0,0.0,0.0,0.0,0.0,0.0,0.0,0.0,0.0,0.0,0.0,0.0,0.0,0.0,0.0,0.0,0.0,0.0,0.0,0.0,0.0,0.0,0.0,0.0,0.0,0.0,0.0,0.0,0.0,0.0,0.0,0.0,0.0,0.0,0.0,0.0,0.0,0.0,0.0,0.0,0.0,0.0,0.0,0.0,0.0,0.0,0.0,0.0,0.0,0.0,0.0,0.0,3.5377,3.8216,4.0304,4.0962,4.114,4.0956,3.9154,3.715,3.5005,0.0,0.0,0.0,0.0,0.0,0.0,0.0,0.0,0.0,0.0,0.0,0.0,0.0,0.0,0.0,0.0,0.0,0.0,0.0,0.0,0.0,0.0,0.0,0.0,0.0,0.0,0.0,0.0,0.0,0.0,0.0,0.0,0.0,0.0,0.0,0.0,0.0,0.0,0.0,0.0,0.0,0.0,0.0,0.0,0.0,0.0,0.0,0.0,0.0,0.0,0.0,0.0,0.0,0.0,0.0,0.0,0.0,0.0,0.0,0.0,0.0,0.0,0.0,0.0,0.0,0.0,0.0,0.0,0.0,0.0,0.0,0.0,0.0,0.0,0.0,0.0,0.0,0.0,0.0,0.0,0.0,0.0,0.0,0.0,0.0,0.0,0.0,0.0,0.0,0.0,0.0,0.0,0.0,0.0,0.0,0.0,0.0,0.0,0.0,0.0,0.0,0.0,3.3032,3.6344,3.9251,4.1265,4.1617,4.1674,4.1425,3.9471,3.7268,3.5032,0.0,0.0,0.0,0.0,0.0,0.0,0.0,0.0,0.0,0.0,0.0,0.0,0.0,0.0,0.0,0.0,0.0,0.0,0.0,0.0,0.0,0.0,0.0,0.0,0.0,0.0,0.0,0.0,0.0,0.0,0.0,0.0,0.0,0.0,0.0,0.0,0.0,0.0,0.0,0.0,0.0,0.0,0.0,0.0,0.0,0.0,0.0,0.0,0.0,0.0,0.0,0.0,0.0,0.0,0.0,0.0,0.0,0.0,0.0,0.0,0.0,0.0,0.0,0.0,0.0,0.0,0.0,0.0,0.0,0.0,0.0,0.0,0.0,0.0,0.0,0.0,0.0,0.0,0.0,0.0,0.0,0.0,0.0,0.0,0.0,0.0,0.0,0.0,0.0,0.0,0.0,0.0,0.0,0.0,0.0,0.0,0.0,0.0,0.0,0.0,0.0,0.0,3.47,3.8692,4.1392,4.1409,4.2054,4.2187,4.1458,3.8079,3.5694,0.0,0.0,0.0,0.0,0.0,0.0,0.0,0.0,0.0,0.0,0.0,0.0,0.0,0.0,0.0,0.0,0.0,0.0,0.0,0.0,0.0,0.0,0.0,0.0,0.0,0.0,0.0,0.0,0.0,0.0,0.0,0.0,0.0,0.0,0.0,0.0,0.0,0.0,0.0,0.0,0.0,0.0,0.0,0.0,0.0,0.0,0.0,0.0,0.0,0.0,0.0,0.0,0.0,0.0,0.0,0.0,0.0,0.0,0.0,0.0,0.0,0.0,0.0,0.0,0.0,0.0,0.0,0.0,0.0,0.0,0.0,0.0,0.0,0.0,0.0,0.0,0.0,0.0,0.0,0.0,0.0,0.0,0.0,0.0,0.0,0.0,0.0,0.0,0.0,0.0,0.0,0.0,0.0,0.0,0.0,0.0,0.0,0.0,0.0,0.0,0.0,0.0,0.0,3.4653,3.7416,3.9591,4.0575,4.0415,4.0365,4.0663,3.7814,3.5694,3.4949,0.0,0.0,0.0,0.0,0.0,0.0,0.0,0.0,0.0,0.0,0.0,0.0,0.0,0.0,0.0,0.0,0.0,0.0,0.0,0.0,0.0,0.0,0.0,0.0,0.0,0.0,0.0,0.0,0.0,0.0,0.0,0.0,0.0,0.0,0.0,0.0,0.0,0.0,0.0,0.0,0.0,0.0,0.0,0.0,0.0,0.0,0.0,0.0,0.0,0.0,0.0,0.0,0.0,0.0,0.0,0.0,0.0,0.0,0.0,0.0,0.0,0.0,0.0,0.0,0.0,0.0,0.0,0.0,0.0,0.0,0.0,0.0,0.0,0.0,0.0,0.0,0.0,0.0,0.0,0.0,0.0,0.0,0.0,0.0,0.0,0.0,0.0,0.0,0.0,0.0,0.0,0.0,0.0,0.0,0.0,0.0,0.0,0.0,0.0,0.0,0.0,0.0,3.4653,3.7354,3.945,4.0332,3.9984,3.9901,4.0348,3.7963,3.6009,3.4965,0.0,0.0,0.0,0.0,0.0,0.0,0.0,0.0,0.0,0.0,0.0,0.0,0.0,0.0,0.0,0.0,0.0,0.0,0.0,0.0,0.0,0.0,0.0,0.0,0.0,0.0,0.0,0.0,0.0,0.0,0.0,0.0,0.0,0.0,0.0,0.0,0.0,0.0,0.0,0.0,0.0,0.0,0.0,0.0,0.0,0.0,0.0,0.0,0.0,0.0,0.0,0.0,0.0,0.0,0.0,0.0,0.0,0.0,0.0,0.0,0.0,0.0,0.0,0.0,0.0,0.0,0.0,0.0,0.0,0.0,0.0,0.0,0.0,0.0,0.0,0.0,0.0,0.0,0.0,0.0,0.0,0.0,0.0,0.0,0.0,0.0,0.0,0.0,0.0,0.0,0.0,0.0,0.0,0.0,0.0,0.0,0.0,0.0,0.0,0.0,0.0,0.0,3.48,3.8096,4.0282,4.0282,4.0282,4.0282,4.0282,3.8328,3.6473,3.4982,0.0,0.0,0.0,0.0,0.0,0.0,0.0,0.0,0.0,0.0,0.0,0.0,0.0,0.0,0.0,0.0,0.0,0.0,0.0,0.0,0.0,0.0,0.0,0.0,0.0,0.0,0.0,0.0,0.0,0.0,0.0,0.0,0.0,0.0,0.0,0.0,0.0,0.0,0.0,0.0,0.0,0.0,0.0,0.0,0.0,0.0,0.0,0.0,0.0,0.0,0.0,0.0,0.0,0.0,0.0,0.0,0.0,0.0,0.0,0.0,2.8572,2.8224,0.0,0.0,0.0,0.0,0.0,0.0,0.0,0.0,0.0,0.0,0.0,0.0,0.0,0.0,0.0,0.0,0.0,0.0,0.0,0.0,0.0,0.0,0.0,0.0,0.0,0.0,0.0,0.0,0.0,0.0,0.0,0.0,0.0,0.0,0.0,0.0,0.0,0.0,0.0,0.0,3.5578,3.7963,3.9504,3.9504,3.9504,3.9504,3.9504,3.803,3.6473,3.4982,3.3508,0.0,0.0,0.0,0.0,0.0,0.0,0.0,0.0,0.0,0.0,0.0,0.0,0.0,0.0,0.0,0.0,0.0,0.0,0.0,0.0,0.0,0.0,0.0,0.0,0.0,0.0,0.0,0.0,0.0,0.0,0.0,0.0,0.0,0.0,0.0,0.0,0.0,0.0,0.0,0.0,0.0,0.0,0.0,0.0,0.0,0.0,0.0,0.0,0.0,0.0,0.0,0.0,0.0,0.0,0.0,0.0,0.0,0.0,0.0,3.0874,2.9947,0.0,0.0,0.0,0.0,0.0,0.0,0.0,0.0,0.0,0.0,0.0,0.0,0.0,0.0,0.0,0.0,0.0,0.0,0.0,0.0,0.0,0.0,0.0,0.0,0.0,0.0,0.0,0.0,0.0,0.0,0.0,0.0,0.0,0.0,0.0,0.0,0.0,0.0,0.0,0.0,3.581,3.7914,3.9272,3.9272,3.9272,3.9272,3.9272,3.8261,3.7003,3.5528,3.4038,0.0,0.0,0.0,0.0,0.0,0.0,0.0,0.0,0.0,0.0,0.0,0.0,0.0,0.0,0.0,0.0,0.0,0.0,0.0,0.0,0.0,0.0,0.0,0.0,0.0,0.0,0.0,0.0,0.0,0.0,0.0,0.0,0.0,0.0,0.0,0.0,0.0,0.0,0.0,0.0,0.0,0.0,0.0,0.0,0.0,0.0,0.0,0.0,0.0,0.0,0.0,0.0,0.0,3.5131,3.5562,3.6059,3.6671,3.6936,3.682,3.4386,3.2961,3.2365,3.2116,0.0,0.0,0.0,0.0,0.0,0.0,0.0,0.0,0.0,0.0,0.0,0.0,0.0,0.0,0.0,0.0,0.0,0.0,0.0,0.0,0.0,0.0,3.4336,3.4203,3.475,3.4584,3.2017,0.0,0.0,0.0,0.0,0.0,0.0,0.0,0.0,0.0,0.0,0.0,3.6009,3.7996,3.9322,3.9508,3.9355,3.9322,3.9454,3.8808,3.7765,3.629,3.4932,3.3524,0.0,0.0,0.0,0.0,0.0,0.0,0.0,0.0,0.0,0.0,0.0,0.0,0.0,0.0,0.0,0.0,0.0,0.0,0.0,0.0,0.0,0.0,0.0,0.0,0.0,0.0,0.0,0.0,0.0,0.0,0.0,0.0,2.8092,2.8092,0.0,0.0,0.0,0.0,0.0,0.0,0.0,0.0,0.0,0.0,0.0,0.0,0.0,3.3673,3.4303,3.6936,3.8361,3.8576,4.0464,4.1077,4.0564,4.0647,4.0696,4.068,4.0299,0.0,3.5488,3.4193,0.0,0.0,0.0,0.0,0.0,0.0,0.0,0.0,0.0,0.0,0.0,0.0,0.0,0.0,0.0,0.0,0.0,0.0,0.0,0.0,0.0,0.0,3.6506,3.586,3.6274,3.6539,3.5495,3.4352,3.3292,3.2547,3.1901,3.1196,0.0,0.0,0.0,0.0,0.0,0.0,3.6771,3.8311,3.952,4.0166,3.9653,3.9537,4.0183,3.9553,3.851,3.7052,3.6174,3.5048,3.3574,3.2199,0.0,0.0,0.0,0.0,0.0,0.0,0.0,0.0,0.0,0.0,0.0,0.0,0.0,0.0,0.0,0.0,0.0,0.0,0.0,0.0,0.0,0.0,0.0,0.0,0.0,0.0,0.0,0.0,0.0,2.8058,2.882,2.8423,2.9102,2.9268,0.0,0.0,0.0,0.0,0.0,0.0,0.0,0.0,0.0,3.4667,3.6522,3.803,3.9172,4.1276,4.2792,4.3739,4.4704,4.5202,4.5302,4.5302,4.5241,4.5102,4.4671,4.3405,4.145,3.7834,3.5842,3.5027,0.0,0.0,0.0,0.0,3.4286,3.4618,3.5148,3.5048,3.475,3.4965,0.0,0.0,0.0,0.0,0.0,0.0,0.0,3.5048,3.5148,3.6738,3.8344,3.8444,3.9007,3.9322,3.8609,3.7632,3.6158,3.3773,3.3392,3.3094,3.1934,3.1735,0.0,0.0,0.0,3.6059,3.7533,3.8626,3.9404,3.9719,3.9471,3.9404,3.9736,3.9471,3.8841,3.7798,3.7036,3.5959,3.4468,3.3392,3.2646,0.0,0.0,0.0,0.0,0.0,0.0,0.0,0.0,0.0,0.0,0.0,0.0,0.0,0.0,0.0,0.0,0.0,0.0,0.0,0.0,0.0,0.0,0.0,0.0,0.0,0.0,0.0,0.0,2.9118,2.9914,2.9036,3.0709,3.1272,0.0,0.0,0.0,0.0,0.0,0.0,3.5396,3.634,3.7516,3.9007,4.0994,4.2651,4.391,4.5185,4.6524,4.7947,4.7947,4.8277,4.881,4.881,4.881,4.8646,4.8098,4.7498,4.6557,4.1455,3.8712,3.7668,3.6688,3.634,3.639,3.6704,3.6837,3.697,3.7897,3.7847,3.7367,3.7185,3.6489,3.5462,3.3988,0.0,0.0,0.0,0.0,3.6456,3.7201,3.8593,4.0001,4.0746,4.1458,4.1789,4.1077,4.0498,3.9073,3.5595,3.5048,3.4833,3.3723,3.3375,0.0,3.4982,3.581,3.6754,3.8046,3.8825,3.9355,3.9537,3.9388,3.9355,3.9537,3.9388,3.9056,3.8526,3.7798,3.6903,3.5794,3.4667,3.3806,3.3259,0.0,0.0,0.0,0.0,0.0,0.0,0.0,0.0,0.0,0.0,0.0,0.0,0.0,0.0,0.0,0.0,0.0,0.0,0.0,0.0,0.0,0.0,0.0,0.0,0.0,0.0,0.0,0.0,0.0,3.0576,3.3557,0.0,0.0,0.0,0.0,3.5628,3.6406,3.7765,3.9934,4.1375,4.28,4.4257,4.5765,4.6941,4.7719,4.8498,4.9276,5.0055,5.0055,5.0106,5.0292,5.0292,5.0359,5.0559,5.0509,5.0074,4.9053,4.4423,4.2555,4.2507,4.0833,4.0284,4.0217,3.9408,3.9106,3.9023,3.8427,3.8195,3.8377,3.9719,3.9206,3.7765,3.629,3.5363,0.0,0.0,3.5909,3.7218,3.7963,3.9719,4.1491,4.2237,4.2982,4.3313,4.2568,4.2386,4.1491,3.856,3.6887,3.5926,3.5843,0.0,3.5048,3.5827,3.6572,3.7334,3.8112,3.8825,3.9537,4.0249,3.9702,3.9553,4.0266,3.9686,3.9255,3.9222,3.8543,3.8129,3.8046,3.5976,3.4816,3.4783,3.3392,0.0,0.0,0.0,0.0,0.0,0.0,0.0,0.0,0.0,0.0,0.0,0.0,0.0,0.0,0.0,0.0,0.0,0.0,0.0,0.0,0.0,0.0,0.0,0.0,0.0,0.0,0.0,0.0,3.4816,3.7549,0.0,3.7085,3.7599,3.8427,3.9404,4.0613,4.2054,4.3761,4.4804,4.6013,4.7487,4.9078,5.0042,5.0224,5.1472,5.1988,5.1927,5.1805,5.1858,5.2048,5.2048,5.1979,5.1877,5.153,5.1178,5.071,4.8656,4.6748,4.5043,4.3956,4.3287,4.2802,4.2478,4.2695,4.3079,4.2715,4.2259,4.171,4.0718,3.9702,3.8791,3.8261,3.8261,3.8427,3.8427,3.9123,4.005,4.0796,4.1541,4.2303,4.3048,4.3429,4.3545,4.328,4.2866,4.222,4.1193,3.9437,3.7814,3.687,3.6489,3.6572,3.7317,3.7649,3.8079,3.8808,3.9123,3.9425,3.9636,3.9437,3.9388,3.9653,3.9421,3.9272,3.9272,3.8609,3.7996,3.7516,3.629,3.5379,3.4916,3.4369,3.3758,0.0,0.0,0.0,0.0,0.0,0.0,0.0,0.0,0.0,0.0,0.0,0.0,0.0,0.0,0.0,0.0,0.0,0.0,0.0,0.0,0.0,0.0,0.0,0.0,0.0,0.0,3.8017,3.8266,4.105,4.2451,4.099,4.168,4.2601,4.3562,4.4771,4.6212,4.8048,4.8547,4.9425,5.0952,5.1838,5.2257,5.2117,5.3223,5.3465,5.2764,5.2694,5.2834,5.2972,5.2972,5.2989,5.2886,5.2538,5.232,5.215,5.1782,5.032,4.8202,4.7139,4.615,4.5185,4.5126,4.5217,4.5374,4.533,4.4953,4.4255,4.2518,4.1399,4.0696,4.0519,4.0657,4.084,4.0729,4.1481,4.2344,4.2767,4.3247,4.3744,4.4241,4.4357,4.4357,4.4357,4.3777,4.3181,4.2932,4.1326,3.962,3.8411,3.8212,3.8295,3.8543,3.8791,3.9106,3.9587,3.9852,4.0001,4.0001,3.9785,3.9653,3.9653,3.9421,3.9172,3.8924,3.8477,3.788,3.7135,3.639,3.5777,3.528,3.4823,3.4268,3.3446,0.0,0.0,0.0,0.0,0.0,0.0,0.0,0.0,0.0,0.0,0.0,0.0,0.0,0.0,0.0,0.0,0.0,0.0,0.0,0.0,0.0,0.0,0.0,3.5131,3.7735,4.0004,4.0771,4.409,4.574,4.4323,4.5291,4.6593,4.8034,4.8829,5.0239,5.2644,5.2566,5.323,5.4772,5.4123,5.3684,5.345,5.3866,5.3586,5.2674,5.285,5.2972,5.3179,5.3179,5.3348,5.3501,5.3501,5.3501,5.3501,5.3501,5.3027,5.2164,5.0339,4.8785,4.7512,4.7341,4.6733,4.5943,4.591,4.5831,4.5777,4.523,4.4394,4.3562,4.304,4.2382,4.1816,4.1614,4.2717,4.3905,4.3694,4.4738,4.5798,4.5798,4.5798,4.5798,4.5798,4.5202,4.4473,4.3794,4.2485,4.1259,4.0531,4.0415,4.0166,3.9454,3.9951,0.0,4.0415,4.0994,4.1409,4.1375,4.0779,4.0365,4.0348,3.9669,3.8941,3.8261,3.8179,3.7814,3.7102,3.6357,3.5976,3.5976,3.4758,3.3478,3.2238,0.0,0.0,0.0,0.0,0.0,0.0,0.0,0.0,0.0,0.0,0.0,0.0,0.0,0.0,0.0,0.0,0.0,0.0,0.0,0.0,0.0,3.6601,3.8553,3.8148,4.1677,4.479,4.6057,4.8573,5.0276,5.0293,5.0744,5.1144,5.1425,5.2038,5.2774,5.3586,5.3923,5.4406,5.5007,5.5504,5.5492,5.4867,5.4938,5.464,5.3847,5.3171,5.2972,5.3179,5.3179,5.3264,5.3264,5.3433,5.3433,5.3264,5.3433,5.3027,5.2266,5.1729,5.1003,5.0177,5.0113,4.953,4.8631,4.7541,4.7094,4.6853,4.6163,4.5674,4.5369,4.523,4.503,4.4863,4.4649,4.5025,4.548,4.5263,4.55,4.5798,4.5798,4.5798,4.5798,4.5798,4.5202,4.4622,4.444,4.3645,4.2618,4.1342,4.1127,4.1061,4.0845,4.0994,4.1127,4.1127,4.1293,4.1226,4.0713,4.0498,4.0166,3.962,3.8924,3.8427,3.8228,3.7201,3.6522,3.6307,3.5595,3.5197,3.5197,3.4855,3.412,0.0,0.0,0.0,0.0,0.0,0.0,0.0,0.0,0.0,0.0,0.0,0.0,0.0,0.0,0.0,0.0,0.0,0.0,0.0,0.0,0.0,0.0,3.9696,4.225,4.3072,4.5484,4.8015,5.0091,5.1832,5.309,5.3774,5.3841,5.3975,5.4133,5.4551,5.4974,5.5492,5.5425,5.5776,5.6617,5.6539,5.6371,5.6236,5.5774,5.5252,5.4744,5.37,5.3364,5.3787,5.3483,5.3348,5.3332,5.3433,5.3416,5.3332,5.3433,5.323,5.2773,0.0,0.0,0.0,0.0,5.0301,4.9278,4.8707,4.8241,4.778,4.7485,4.7027,4.6653,4.6714,4.6541,4.6229,4.6001,4.6279,4.6591,4.6325,4.6493,4.6725,4.6725,4.6725,4.6725,4.6725,4.5897,4.5152,4.5152,4.4324,0.0,4.2485,4.2088,4.1773,4.1458,4.1674,4.1872,4.1872,4.2137,4.2071,4.1359,4.0994,4.0514,3.9802,3.9073,0.0,0.0,0.0,3.6787,3.6473,3.6059,0.0,0.0,0.0,3.5381,3.4478,3.4856,0.0,0.0,3.2779,3.2931,0.0,0.0,0.0,0.0,0.0,0.0,0.0,0.0,0.0,0.0,0.0,0.0,0.0,0.0,0.0,0.0,4.287,4.6418,4.8731,4.9392,5.0534,5.3111,5.4104,5.4878,5.5686,5.5542,5.5722,5.6402,5.6452,5.6885,5.7672,5.7036,0.0,0.0,0.0,5.6942,5.7348,5.6297,5.5747,5.5572,5.4244,5.3957,5.4566,5.3839,5.3501,5.3501,5.3501,5.3501,5.3501,5.3501,5.3501,5.3416,5.2604,5.1862,5.1092,5.0843,4.9921,4.8882,4.9452,0.0,0.0,4.8769,4.827,4.7591,4.7777,4.7305,4.6707,4.6436,4.692,4.7467,4.7151,4.7504,4.8001,4.8001,4.8001,4.7984,4.7885,4.6841,4.5864,4.5698,4.4622,4.3727,4.3645,4.3081,4.2419,4.1756,4.222,4.2634,4.2634,4.3214,4.3346,4.2601,4.1922,0.0,4.0448,3.9702,3.8974,3.8261,3.8129,3.7798,3.7135,3.7102,3.7102,3.7102,3.7102,3.6798,3.6194,3.6291,3.6001,3.5354,3.4344,3.3773,0.0,0.0,0.0,0.0,0.0,0.0,0.0,0.0,0.0,0.0,0.0,0.0,0.0,0.0,0.0,4.2841,4.6169,4.9294,5.2166,5.3585,5.4548,5.4895,5.5761,5.6757,5.7941,5.7668,5.7617,5.8152,5.8219,5.8345,5.8721,5.8993,5.9018,5.8957,5.867,5.8281,5.7825,5.6964,5.6596,5.6491,5.5091,0.0,5.4566,5.3839,5.3501,5.3501,5.3501,5.3501,5.3501,5.3501,5.3501,5.3416,5.2604,5.2215,5.1963,5.1372,5.0902,5.0582,5.019,4.9548,4.894,4.894,4.8793,4.8568,4.8568,4.8467,0.0,4.7875,4.8119,4.8425,4.8028,4.8063,4.8163,4.8163,4.8049,4.7835,4.7239,4.6891,4.6328,4.5135,4.4671,4.4307,4.3727,4.3495,4.3363,4.3214,4.333,4.3413,4.3413,4.3529,4.3346,4.2601,4.2386,4.1773,4.0498,3.9702,3.8974,3.8261,3.7649,3.7251,3.7119,3.7102,3.7102,3.7102,3.7102,3.6798,3.6194,3.674,3.6462,3.5422,3.5716,3.554,0.0,0.0,0.0,0.0,0.0,0.0,0.0,0.0,0.0,0.0,0.0,3.5216,3.7432,0.0,4.3453,4.6802,4.9543,5.2046,5.4296,5.5564,5.6187,5.6099,5.6829,5.7707,5.8747,5.8602,5.8687,5.9338,5.9405,5.9237,5.9032,5.9616,5.9853,5.9573,5.9556,5.937,5.8998,5.7898,5.734,5.7323,5.5852,5.5344,5.5666,5.4549,5.4042,5.4025,5.367,5.3501,5.3467,5.3078,5.2689,5.2283,5.1505,5.1657,5.2266,5.1894,5.1539,5.1217,5.12,5.0473,4.9543,4.9543,4.9497,4.9367,4.8996,4.9147,4.9287,4.8664,4.8644,4.8707,4.8436,4.8356,4.8356,4.8227,4.8179,4.8015,4.765,4.6922,4.6192,4.5524,4.4716,4.4158,4.4158,4.386,4.3628,4.3628,4.3628,4.3628,4.3628,4.3628,4.3346,4.2601,4.2518,4.2088,4.0994,4.0249,3.952,3.8791,3.8394,3.8195,3.8195,3.8195,3.8195,3.8195,3.8195,3.8058,3.7744,3.8068,3.7958,3.7367,3.772,3.6965,0.0,0.0,0.0,0.0,0.0,0.0,0.0,0.0,3.322,3.4979,3.6924,3.9123,4.1796,4.4637,4.7428,5.0084,5.2435,5.4397,5.575,5.6562,5.7019,5.7019,5.7526,5.8304,5.9353,5.9066,5.9235,6.0266,6.0182,5.9911,5.9488,6.0148,6.0402,6.0114,6.0097,5.9962,5.9674,5.8473,5.7881,5.7881,5.6697,5.6376,5.6748,5.5412,5.4735,5.4549,5.3822,5.3501,5.345,5.2807,5.2198,5.1589,5.0811,5.1352,5.2503,5.2198,5.1809,5.1505,5.2097,5.1336,5.0084,5.0084,4.9999,4.9796,4.9357,4.9526,4.9779,4.9186,4.895,4.8769,4.8627,4.8547,4.845,4.8172,4.8192,4.8144,4.7861,4.7032,4.6254,4.6191,4.5053,4.4301,4.4865,4.4307,4.3827,4.3827,4.3827,4.3827,4.3827,4.3827,4.3611,4.2999,4.2816,4.2435,4.169,4.0994,4.0315,3.9736,3.9686,3.9686,3.9686,3.9553,3.9487,3.9487,3.9355,3.9272,3.9272,3.9421,3.9351,3.9094,3.9242,3.8155,3.3699,3.3328,3.3811,3.5162,3.484,3.5148,0.0,0.0,3.892,4.1728,4.3047,4.4215,4.5855,4.8054,5.0135,5.1792,5.3974,5.575,5.6562,5.7306,5.7763,5.7763,5.7831,5.8727,6.0842,5.9201,5.8896,6.1011,6.0503,6.0385,6.1011,6.1738,6.1518,6.0131,6.0097,5.9471,5.8152,5.7966,5.7881,5.7881,5.7729,5.734,5.6765,5.5953,5.5226,5.4549,5.3822,5.3501,5.3501,5.3399,5.3331,5.3162,5.2367,5.2587,5.3213,5.1843,5.1691,5.2198,5.2266,5.1336,5.0084,5.0084,4.9661,4.9238,4.9796,4.9576,4.9193,4.9675,4.9417,4.8956,4.8769,4.8769,4.8601,4.7849,4.8061,4.8132,4.6826,4.7429,4.7784,4.6541,4.6052,4.5863,4.5929,4.5191,4.4572,4.4572,4.4572,4.4572,4.4572,4.4572,4.4539,4.4456,4.3876,4.3197,4.2452,4.1723,4.1259,4.1177,4.1177,4.1177,4.1177,4.058,4.0266,4.0266,3.9603,3.9272,3.9272,3.9934,3.961,3.8423,3.9072,3.891,3.6569,3.5895,3.5768,0.0,3.8133,3.9005,4.1305,4.1694,4.2303,4.4857,4.6329,4.7733,4.9644,5.1488,5.3196,0.0,5.6089,5.7087,5.7391,5.7695,5.7881,5.7881,5.7881,5.844,5.9844,5.9116,5.9319,6.1163,6.0994,6.0943,6.1281,6.1992,6.1907,6.0842,6.1214,6.0926,5.9894,5.9404,5.9184,5.9167,5.8744,5.8389,5.8068,5.7323,5.6105,5.4549,5.3822,5.3501,5.3467,5.2993,5.2807,5.2739,5.1961,5.2131,5.2723,5.208,5.2334,5.2942,5.2469,5.1623,5.0676,5.0236,4.9881,4.961,4.9492,4.9543,4.961,4.9463,4.9193,4.9001,4.8956,4.8894,4.881,4.8366,4.8471,4.8539,4.7917,4.7792,4.7742,4.7183,4.6547,4.6274,4.6753,4.6017,4.5545,4.6055,4.5678,4.5185,4.4754,4.5052,4.5168,4.4738,4.4423,4.3777,4.2618,4.2237,4.1872,4.1442,4.1409,4.1409,4.1409,4.1127,4.0978,4.0978,4.068,4.0514,4.0514,4.0829,4.0684,4.013,4.0442,4.0369,3.8026,0.0,0.0,4.0057,4.149,4.2703,4.4082,4.4665,4.5602,4.7851,4.9171,5.0473,5.23,5.3873,5.5243,5.6325,5.7289,5.7881,5.7881,5.7712,5.7509,5.7306,5.7103,5.7273,5.8034,5.8473,5.9421,6.118,6.1095,6.1146,6.1586,6.2093,6.2059,6.1315,6.1603,6.14,6.0672,5.9894,5.9607,5.9793,5.9268,5.8896,5.866,5.7509,5.5987,5.4262,5.3737,5.3501,5.345,5.2875,5.2638,5.2587,5.2046,5.2164,5.2604,5.2384,5.2807,5.3382,5.2587,5.1826,5.1099,5.0338,4.9949,4.9729,4.9407,4.9526,4.9729,4.9407,4.9171,4.9001,4.9001,4.9001,4.8889,4.8641,4.8697,4.8781,4.8579,4.8214,4.7883,4.8023,4.725,4.6798,4.7658,4.6908,4.6533,4.7425,4.6995,4.6254,4.5384,4.5765,4.5665,4.4522,4.4572,4.4191,4.2932,4.2816,4.2601,4.2054,4.2021,4.2021,4.2021,4.1823,4.1723,4.178,4.1524,4.1425,4.1481,4.1624,4.1624,4.1409,4.1624,4.1607,0.0,0.0,4.0558,4.3659,4.4869,4.6046,4.9084,4.9283,4.9458,5.1674,5.2164,5.2469,5.3315,5.4685,5.57,5.575,5.6951,5.7881,5.7881,5.7273,5.6579,5.5869,5.5141,5.4989,0.0,5.7087,5.8863,6.1129,6.0588,6.0791,6.2279,6.2381,6.2059,6.1315,6.0554,5.9827,5.9099,5.8338,5.8321,5.9049,5.9032,5.8626,5.7848,5.5683,5.4262,5.3534,5.3518,5.3501,5.3501,5.3467,5.3467,5.3467,5.345,5.345,5.3365,5.2587,5.2807,5.3382,5.2587,5.1826,5.1099,5.0338,4.961,4.9171,4.9847,4.9576,4.9187,4.9864,4.9543,4.9001,4.9001,4.9001,4.8832,4.8122,4.8494,4.8815,4.8105,4.8494,4.8968,4.8968,4.8253,4.7861,4.8618,4.8006,4.7613,4.8333,4.8433,4.8022,4.6988,4.6841,4.6046,4.3876,4.4274,4.439,4.3645,4.3595,4.3578,4.3562,4.3562,4.3562,4.3562,4.2866,4.256,4.2748,4.1846,4.1481,4.1666,4.2195,4.2121,4.1425,4.2154,4.2088,3.9946,0.0,4.4298,4.7439,4.8355,4.9078,5.1089,5.1376,5.1403,5.2147,5.1522,5.0913,5.1183,5.2063,5.3061,5.4076,5.5886,5.734,5.7814,5.7679,5.6884,5.5175,5.5192,0.0,0.0,0.0,0.0,5.9624,5.9979,6.0554,6.1603,6.167,6.1552,6.1315,6.052,5.9979,5.9742,5.9015,5.9015,5.9725,5.8744,5.8135,5.7814,5.5598,5.4448,5.4194,5.3721,5.3501,5.3467,5.2926,5.2706,5.2655,5.2181,5.1978,5.1961,5.1674,5.1758,5.1877,5.1099,5.0676,5.0355,4.961,4.9204,4.9052,4.9289,4.9204,4.9052,4.9306,4.9187,4.9001,4.9001,4.9001,4.8951,4.8697,4.8832,4.8934,4.8697,4.8832,4.9001,4.9001,4.8692,4.8546,4.8844,4.8488,4.8199,4.845,4.8065,4.7784,4.7972,4.7508,4.6941,4.6191,4.6324,4.6174,4.5424,4.5313,4.5113,4.4673,4.4521,4.4304,4.3939,4.3673,4.3556,4.3531,4.3207,4.309,4.3148,4.3206,4.3248,4.3172,4.3206,4.319,4.3241,4.5813,4.8329,5.1129,5.2271,5.3047,5.4292,5.3983,5.3301,5.2789,5.1259,4.9903,4.9419,4.9712,5.0503,5.1932,5.3431,5.5007,5.6743,5.6619,5.5987,5.5091,5.5192,5.5057,0.0,0.0,0.0,5.8473,5.9285,6.0182,6.1247,6.1028,6.1011,6.1298,6.0266,5.9725,5.9725,5.9252,5.9116,5.9302,5.8084,5.7222,5.6647,5.4972,5.4211,5.4177,5.3704,5.3501,5.345,5.2638,5.23,5.2232,5.1505,5.1217,5.1183,5.0913,5.0811,5.0744,5.0253,5.0084,4.9965,4.9238,4.9001,4.9001,4.9001,4.9001,4.9001,4.9001,4.9001,4.9001,4.9001,4.9001,4.9001,4.9001,4.9001,4.9001,4.9001,4.9001,4.9001,4.9001,4.8956,4.8894,4.9001,4.8815,4.8673,4.8673,4.8286,4.7989,4.8082,4.7914,4.7596,4.7015,4.7199,4.7049,4.6296,4.6124,4.5924,4.5604,4.5407,4.5073,4.4516,4.4424,4.4248,4.4056,4.3998,4.3998,4.4039,4.3822,4.3822,4.3998,4.3747,4.3687,4.6583,4.9785,5.2591,5.4741,5.6401,5.765,5.8399,5.6874,5.4857,5.3515,5.1329,4.9193,0.0,0.0,4.8235,4.9536,5.0117,5.1579,5.5015,5.4498,5.4262,0.0,0.0,0.0,0.0,0.0,0.0,5.778,5.8592,5.9658,6.1112,6.0469,6.0385,6.1163,5.9742,5.8947,5.8947,5.893,5.8558,5.7881,5.707,5.5953,5.4566,5.3839,5.3501,5.3501,5.3501,5.3501,5.345,5.2638,5.23,5.2232,5.1505,5.1217,5.1133,5.0405,5.0118,5.0101,5.0135,5.0101,4.9915,4.9221,4.9001,4.9001,4.9001,4.9001,4.9001,4.9001,4.9001,4.9001,4.9001,4.9001,4.9001,4.9001,4.9001,4.9001,4.9001,4.9001,4.9001,4.9001,4.9001,4.9001,4.9001,4.9001,4.9001,4.9001,4.9001,4.8624,4.7608,4.8128,4.7948,4.6391,4.6874,4.7024,4.6307,4.6257,4.6269,4.629,4.6219,4.5885,4.5261,4.5066,4.4732,4.436,4.4155,4.4138,4.431,4.4056,4.3898,4.3956,4.3687,4.3628,5.0976,5.3776,5.6312,5.7509,5.7295,5.6841,5.7035,5.4979,5.258,5.1163,4.826,4.5507,0.0,0.0,0.0,4.8863,5.2027,0.0,5.6978,5.7446,0.0,5.5869,0.0,5.5294,5.4921,5.5395,0.0,0.0,5.8592,5.9184,5.959,5.9404,5.9387,5.959,5.8676,5.8169,5.8169,5.7645,5.7543,5.7865,5.6021,5.4955,5.4566,5.3839,5.3501,5.3501,5.3501,5.3501,5.345,5.2638,5.23,5.2232,5.1505,5.1217,5.12,5.0997,5.0574,5.0168,5.0727,5.0202,4.9255,4.9069,4.9001,4.9001,4.9001,4.9001,4.9001,4.9001,4.9001,4.9001,4.9001,4.9001,4.9001,4.9001,4.9001,4.9001,4.9001,4.9001,4.9001,4.9001,4.9001,4.9001,4.9001,4.9001,4.9001,4.9001,4.9001,4.8872,4.8624,4.8759,4.8742,4.8293,4.8428,4.8461,4.8276,4.8152,4.7665,4.6522,4.6809,4.6541,4.5396,4.5287,4.5203,4.5134,4.4539,4.4253,4.431,4.4155,4.4172,4.44,4.4097,4.3981,5.4522,5.6922,5.8896,5.8744,5.8292,5.7555,5.6522,5.4075,5.1395,4.9323,4.6394,0.0,4.2121,0.0,0.0,0.0,0.0,0.0,5.5894,5.6992,5.7476,0.0,5.7442,0.0,5.7053,5.7391,5.7983,0.0,5.8643,5.8812,5.9455,5.8879,5.8676,5.8998,5.8271,5.8051,5.8389,5.7645,5.7323,5.7391,5.6156,5.5226,5.4583,5.416,5.3974,5.3957,5.3653,5.3501,5.345,5.2638,5.23,5.2232,5.1505,5.1217,5.1217,5.1217,5.0947,5.0642,5.1065,5.0676,4.9915,4.9593,4.9475,4.9424,4.9103,4.9001,4.9001,4.9001,4.9001,4.9001,4.9001,4.9001,4.9001,4.9001,4.9255,4.9475,4.9475,4.9475,4.939,4.9069,4.9255,4.9373,4.9069,4.9001,4.9001,4.9001,4.9001,4.9001,4.9001,4.9001,4.8956,4.8894,4.8894,4.8894,4.8894,4.8832,4.8478,4.7663,4.7849,4.7564,4.6549,4.6397,4.6094,4.5513,4.5149,4.4778,4.444,4.427,4.4253,4.444,4.4212,4.4097,5.7657,5.9564,6.0811,5.9468,5.9114,5.8546,5.6337,5.3302,5.0178,4.7505,0.0,4.2945,4.124,4.209,4.3647,4.5369,0.0,4.9858,5.3956,5.557,5.6992,5.8778,5.9716,6.0231,6.0097,6.0088,6.0129,6.0231,5.8959,5.8773,6.003,5.8778,5.8338,5.8998,5.8271,5.8254,5.9015,5.8169,5.7476,5.6934,5.6748,5.5987,5.4735,5.4735,5.4685,5.4549,5.3923,5.3602,5.345,5.2756,5.2469,5.2401,5.1775,5.1522,5.1522,5.1522,5.1454,5.1369,5.1488,5.1454,5.1234,5.049,5.0236,5.0118,4.9492,4.9289,4.9289,4.9289,4.9221,4.9154,4.9154,4.9154,4.9154,4.9154,4.9712,5.0236,5.0236,5.0152,4.9898,4.9272,4.9576,4.9746,4.912,4.9086,4.912,4.9018,4.9086,4.912,4.9018,4.9001,4.8956,4.8832,4.8849,4.8849,4.8849,4.8849,4.8861,4.8804,4.8781,4.8512,4.7892,4.7703,4.7096,4.6024,4.5906,4.5534,4.4874,4.4626,4.4518,4.4461,4.4263,4.4155,6.0973,6.2005,6.2585,6.166,5.9038,5.6355,5.5323,5.0498,0.0,0.0,4.2847,4.0927,3.9595,4.1698,4.4451,4.7043,0.0,0.0,0.0,0.0,5.9284,0.0,0.0,0.0,0.0,0.0,0.0,0.0,6.0215,5.9809,6.0047,5.9285,5.8879,5.9015,5.8271,5.8254,5.9015,5.7662,5.7222,5.7679,5.6478,5.5767,5.553,5.553,5.5192,5.4583,5.4448,5.4059,5.3501,5.3348,5.3298,5.3281,5.3162,5.3112,5.3112,5.3112,5.2689,5.2198,5.2875,5.2672,5.1995,5.1251,5.1014,5.0997,5.0879,5.0828,5.0828,5.0828,5.0388,4.9898,4.9898,4.9898,4.9898,4.9898,5.0473,5.1014,5.1014,5.0524,5.005,4.9915,4.9509,4.9154,4.9018,4.9509,4.9695,4.9086,4.9509,4.9678,4.9086,4.9001,4.9001,4.894,4.8956,4.8956,4.8956,4.8956,4.8686,4.7956,4.8495,4.8512,4.7754,4.7642,4.7585,4.7547,4.6921,4.6549,4.6413,4.5805,4.5443,4.5426,4.4818,4.444,6.2422,6.2603,6.2386,6.1589,5.8058,5.4273,5.2245,0.0,0.0,0.0,4.1174,4.0294,3.9215,0.0,0.0,0.0,0.0,0.0,0.0,0.0,0.0,0.0,0.0,0.0,0.0,0.0,6.1796,6.1761,6.1048,6.0618,6.0699,5.9959,5.9251,5.844,5.8396,5.845,5.8423,5.7729,5.7357,5.7323,5.7002,5.6647,5.6275,5.6275,5.5886,5.5158,5.4769,5.4177,5.3501,5.3501,5.3501,5.3501,5.3501,5.3501,5.3501,5.3501,5.3264,5.2926,5.2892,5.2621,5.2249,5.1894,5.1522,5.115,5.0744,5.0642,5.0642,5.0642,5.0659,5.0676,5.0676,5.0676,5.0676,5.0676,5.1251,5.1674,5.1302,5.1234,5.1014,5.0236,5.0118,5.0152,5.0152,5.0118,4.9965,4.9627,4.9543,4.9407,4.9052,4.9001,4.9001,4.9001,4.9001,4.9001,4.9001,4.9001,4.8787,4.8371,4.8692,4.8726,4.8371,4.8354,4.8169,4.7936,4.7564,4.7175,4.6786,4.6447,4.6261,4.6261,4.5906,4.546,6.2983,6.2748,6.2023,6.1045,5.6971,5.2426,4.9564,4.5416,0.0,0.0,3.9921,3.9852,3.9228,0.0,0.0,0.0,4.5734,0.0,0.0,0.0,0.0,0.0,0.0,0.0,0.0,0.0,0.0,6.2516,6.1759,6.1257,6.1207,6.0774,6.0064,5.8846,5.9046,5.8891,5.8392,5.8039,5.7666,5.7233,5.7865,5.7848,5.7216,5.7216,5.667,5.5683,5.5091,5.4329,5.3501,5.3501,5.3501,5.3501,5.3501,5.3501,5.3501,5.3501,5.3501,5.3416,5.279,5.2553,5.2553,5.2553,5.2063,5.1336,5.0744,5.0676,5.0777,5.0608,5.0997,5.1454,5.1454,5.1454,5.1488,5.1657,5.2147,5.2401,5.1826,5.2012,5.1961,5.0794,5.0913,5.1217,5.1217,5.0862,5.0507,5.0355,4.9847,4.9407,4.9255,4.9103,4.9001,4.9001,4.9001,4.9001,4.9001,4.9001,4.9001,4.9001,4.9001,4.9001,4.9001,4.9001,4.8731,4.8156,4.8156,4.7868,4.7259,4.7107,4.7039,4.7022,4.687,4.6481,6.2983,6.3146,6.2712,6.119,5.612,5.1049,4.9311,0.0,0.0,3.9914,3.9361,3.894,3.9159,0.0,0.0,0.0,4.5323,4.7448,0.0,0.0,0.0,0.0,0.0,0.0,0.0,6.3335,6.3289,6.3218,6.2488,6.1752,6.1099,6.173,6.2045,6.1891,6.0652,5.9926,5.9874,5.8549,5.8174,5.8737,5.8806,5.8789,5.8737,5.8737,5.7586,5.5716,5.5649,5.482,5.3501,5.3501,5.3501,5.3501,5.3501,5.3501,5.3501,5.3501,5.3501,5.3501,5.3416,5.3399,5.3399,5.3399,5.2858,5.2198,5.2114,5.2604,5.3044,5.23,5.2147,5.2198,5.2198,5.2198,5.2384,5.3112,5.3348,5.3382,5.3315,5.2773,5.2266,5.2131,5.1623,5.1217,5.1217,5.1708,5.1877,5.1217,5.1048,5.0777,5.0084,4.9407,4.9001,4.9001,4.9001,4.9001,4.9001,4.9001,4.9001,4.9001,4.9001,4.9001,4.9001,4.9001,4.8968,4.89,4.89,4.8866,4.8798,4.8139,4.7817,4.78,4.7107,4.6752,6.186,6.2494,6.2096,6.0484,5.5287,5.0017,4.7935,0.0,3.9705,3.9032,3.8797,3.8685,3.8616,4.0292,4.1809,4.2172,4.3001,4.5009,4.9204,0.0,0.0,0.0,0.0,0.0,0.0,0.0,6.3019,6.2551,6.2227,6.1915,6.1664,6.2462,6.2546,6.1682,6.1935,6.1647,6.0796,6.0165,6.0009,6.0258,5.9788,5.9822,6.0241,5.8836,5.7533,5.6235,5.5416,5.4686,5.4059,5.4059,5.4235,5.4516,5.4171,5.4059,5.4011,5.3601,5.3501,5.3433,5.2959,5.279,5.279,5.279,5.2553,5.23,5.23,5.252,5.2706,5.2384,5.2655,5.3027,5.3027,5.3027,5.3112,5.3433,5.3501,5.3365,5.2892,5.2536,5.23,5.23,5.2063,5.2029,5.2503,5.2435,5.2198,5.1911,5.1505,5.1099,5.0811,5.0524,5.0152,4.9712,4.9255,4.9001,4.9001,4.9001,4.9001,4.9001,4.9001,4.9001,4.9001,4.9001,4.9001,4.9001,4.9001,4.9001,4.9001,4.8714,4.8578,4.8578,4.8257,4.7885,5.9506,6.0756,6.0919,5.9289,5.4454,4.9456,0.0,4.3177,3.9786,3.8773,3.8545,3.8546,3.8556,4.0093,4.1252,4.0926,4.1713,4.358,4.6879,4.7461,0.0,0.0,0.0,5.8571,0.0,6.2323,6.2875,6.2078,6.2023,6.2023,6.2023,6.2799,6.2921,6.2133,6.3208,6.312,6.1881,6.146,6.1149,6.1111,6.0546,6.0582,6.1076,5.9459,5.8211,5.727,5.6039,5.5331,5.4998,5.479,5.4931,5.5273,5.487,5.4579,5.4328,5.3946,5.3668,5.3416,5.2858,5.2655,5.2655,5.2655,5.2655,5.2655,5.2655,5.2655,5.2604,5.2367,5.2892,5.3501,5.3501,5.3501,5.3501,5.3501,5.3501,5.3348,5.279,5.2655,5.2655,5.2655,5.2655,5.2841,5.3399,5.3044,5.2655,5.2655,5.2012,5.1539,5.1539,5.1352,5.1014,5.0473,4.9965,4.956,4.934,4.9526,4.956,4.934,4.9543,4.9458,4.9018,4.9204,4.9221,4.9001,4.9001,4.9001,4.9001,4.9001,4.9001,4.9001,4.9001,4.8612,5.5631,5.7804,5.9253,5.7623,5.3621,4.9456,0.0,4.3389,4.0293,3.9532,3.8753,3.8445,3.9242,4.0003,4.0782,4.1578,4.2375,4.3733,4.6178,4.7898,0.0,0.0,0.0,5.6663,5.8293,6.1335,6.2875,6.2078,6.2023,6.2023,6.2023,6.2766,6.3563,6.4359,6.4513,6.4206,6.3421,6.1916,6.1121,6.0986,6.0968,6.0968,6.0986,6.0968,6.0147,5.872,5.7983,5.721,5.6403,5.5683,5.5385,5.5385,5.5385,5.4948,5.4391,5.4391,5.3994,5.3501,5.3501,5.3501,5.3501,5.3501,5.3501,5.3501,5.3501,5.3501,5.3331,5.252,5.2892,5.3501,5.3501,5.3501,5.3501,5.3501,5.3501,5.3501,5.3501,5.3501,5.3501,5.3501,5.3501,5.3501,5.3501,5.3501,5.3501,5.3501,5.2807,5.2283,5.2283,5.1657,5.1217,5.12,5.12,5.0896,5.0135,5.076,5.0879,5.0118,5.0777,5.0541,4.9069,4.9695,4.9746,4.9018,4.9001,4.9001,4.9001,4.9001,4.9001,4.9001,4.9001,4.8612,5.1375,5.3331,5.4237,5.2082,4.9582,4.7011,4.4584,4.2212,4.0148,3.8844,3.8373,3.8264,3.8518,3.9206,4.0003,4.0763,4.156,4.2538,4.3842,0.0,0.0,0.0,0.0,6.0303,0.0,0.0,6.2277,6.2041,6.2023,6.2023,6.2023,6.2766,6.3309,6.3563,6.4152,6.4072,6.3261,6.3356,6.3087,6.2486,6.2486,6.2486,6.2449,6.0934,5.9982,5.9426,5.7681,5.7017,5.71,5.6336,5.6239,5.6582,5.6184,5.5904,5.5658,5.5249,5.4966,5.4799,5.4799,5.5129,5.5397,5.4453,5.4466,5.4744,5.3771,5.3501,5.345,5.3196,5.3315,5.3501,5.3501,5.3501,5.3501,5.3501,5.3501,5.3501,5.3501,5.3501,5.3501,5.3501,5.3501,5.3501,5.3501,5.3501,5.3501,5.3501,5.3281,5.3129,5.3129,5.2926,5.257,5.2012,5.2452,5.2266,5.0963,5.1082,5.1116,5.0879,5.1082,5.1014,5.0541,5.0744,5.0507,4.9763,4.9746,4.9492,4.9001,4.9001,4.9001,4.9001,4.9001,4.8883,0.0,4.9456,5.0651,4.8532,4.7011,4.5417,4.2991,4.1216,3.9731,3.8445,3.8192,3.8192,3.8192,3.8844,3.9641,4.0401,4.1198,4.2103,4.319,0.0,0.0,0.0,0.0,0.0,0.0,6.148,6.2023,6.2023,6.2023,6.215,6.244,6.2929,6.3327,6.3635,6.4414,6.4468,6.3653,6.445,6.445,6.3635,6.3345,6.3182,6.3146,6.1474,6.0711,6.0583,5.8899,5.8345,0.0,5.755,5.7313,5.7572,5.6919,5.6474,5.6257,5.5848,5.5636,5.5385,5.5385,5.5683,5.5922,5.5026,5.497,5.4948,5.41,5.3668,5.3501,5.3501,5.3501,5.3501,5.3501,5.3501,5.3501,5.3501,5.3501,5.3501,5.3501,5.3501,5.3501,5.3501,5.3501,5.3501,5.3501,5.3501,5.3501,5.3501,5.3501,5.3501,5.3501,5.3501,5.3315,5.2807,5.3213,5.3112,5.2164,5.208,5.1944,5.164,5.1911,5.1826,5.1234,5.1488,5.1285,5.0524,5.0236,4.9864,4.9407,4.9137,4.9137,4.9407,4.9137,4.9306,0.0,4.5816,4.788,4.6377,4.5472,4.4367,4.2067,4.0437,0.0,3.8355,3.8192,3.821,3.8264,3.8898,3.9659,4.0474,4.1234,4.2266,4.386,4.6413,0.0,0.0,5.6138,0.0,5.842,6.0629,6.2041,6.2096,6.2041,6.2386,6.3237,6.3219,6.3563,6.4359,6.5174,6.5211,6.4396,6.5192,6.5192,6.4378,6.3689,6.3291,6.3164,6.244,6.206,6.1969,6.1172,6.081,6.0683,5.9072,5.8402,5.8329,5.7514,5.6863,5.6366,5.6366,5.6017,5.5502,5.5502,5.5537,5.559,5.559,5.5061,5.4454,5.4391,5.4011,5.3501,5.3501,5.3501,5.3501,5.3501,5.3501,5.3501,5.3501,5.3551,5.3568,5.3518,5.3551,5.3568,5.3518,5.3501,5.3501,5.3501,5.3501,5.3501,5.3501,5.3501,5.3501,5.3501,5.3501,5.3501,5.3501,5.3501,5.3501,5.3501,5.3501,5.3179,5.2435,5.3095,5.2875,5.1437,5.2029,5.2046,5.1302,5.0557,5.0168,5.0168,4.9492,4.9509,5.0152,4.9475,4.9898,3.7286,0.0,4.1542,4.1162,4.1361,4.1343,0.0,0.0,0.0,0.0,0.0,3.8373,3.8989,3.926,3.984,4.1216,4.1596,4.2266,4.386,0.0,0.0,0.0,5.9796,6.0466,5.9416,6.0955,6.2277,6.2875,6.2367,6.2639,6.4033,6.3526,6.3563,6.4359,6.5174,6.5211,6.4396,6.5192,6.5192,6.4396,6.483,6.4378,6.3182,6.2983,6.2585,6.1969,6.1172,6.081,6.0683,5.9072,5.8402,5.8329,5.7514,5.7138,5.6984,5.6984,5.6915,5.6811,5.6811,5.7207,5.7604,5.713,5.6152,5.5087,5.4579,5.4011,5.3501,5.3501,5.3501,5.3501,5.3501,5.3501,5.3501,5.3501,5.3923,5.4177,5.3619,5.394,5.416,5.3619,5.3501,5.3501,5.3501,5.3501,5.3501,5.3501,5.3501,5.3501,5.3501,5.3501,5.3501,5.3501,5.3501,5.3501,5.3501,5.3501,5.3416,5.323,5.3399,5.3348,5.2976,5.3129,5.2858,5.2063,5.1336,5.0947,5.0947,5.0777,5.0777,5.0947,5.0777,5.0879,3.5041,3.7286,3.9297,3.8934,3.9677,4.0311,3.9568,0.0,0.0,0.0,0.0,0.0,3.9242,0.0,0.0,4.147,4.2013,4.3462,0.0,0.0,0.0,0.0,6.0375,6.0864,6.072,6.1824,6.273,6.3164,6.3146,6.3635,6.4867,6.4541,6.4667,6.5482,6.5917,6.5754,6.4957,6.5374,6.5573,6.5482,6.4812,6.4414,6.4251,6.3146,6.2603,6.2512,6.1716,6.1154,6.072,5.947,5.8728,5.8329,5.7514,5.7188,5.7188,5.7188,5.7188,5.7188,5.7188,5.7496,5.7789,5.7493,5.665,5.5733,5.5349,5.5069,5.4746,5.4097,5.3881,5.3946,5.4269,5.4141,5.3983,5.4324,5.4228,5.416,5.4465,5.4296,5.4076,5.4008,5.3737,5.3501,5.3501,5.3501,5.3501,5.3501,5.3501,5.3501,5.3501,5.3501,5.3501,5.3501,5.3501,5.3501,5.3501,5.3501,5.3501,5.3501,5.3501,5.3501,5.3501,5.3501,5.3129,5.2317,5.1911,5.1555,5.1217,5.1217,5.1386,5.1708,5.1369,5.1589,3.4534,3.6942,3.9007,3.821,3.9188,4.0148,3.9387,0.0,0.0,0.0,0.0,0.0,0.0,0.0,0.0,0.0,0.0,0.0,0.0,0.0,0.0,5.909,5.9832,0.0,6.1553,6.2585,6.3237,6.3363,6.3997,6.4794,6.5736,6.5663,6.5971,6.6768,6.6677,6.6351,6.579,6.5772,6.6134,6.6786,6.4722,6.4323,6.5355,6.3309,6.2603,6.2965,6.2186,6.1444,6.0738,5.9814,5.9017,5.8329,5.7514,5.7188,5.7188,5.7188,5.7188,5.7188,5.7188,5.7188,5.7188,5.7188,5.6863,5.642,5.6311,5.6493,5.641,5.5218,5.4884,5.5033,5.5599,5.5358,5.5018,5.5563,5.4901,5.4432,5.5463,5.482,5.416,5.4668,5.4262,5.3839,5.3839,5.3839,5.3839,5.3839,5.3839,5.3839,5.3839,5.3839,5.3788,5.3687,5.367,5.3619,5.3518,5.3501,5.3501,5.3501,5.3501,5.3501,5.3501,5.3501,5.3179,5.2503,5.2486,5.2181,5.1572,5.1572,5.1877,5.2469,5.186,5.2266,3.5222,3.6979,3.8174,3.7377,3.8373,3.9351,0.0,0.0,0.0,0.0,0.0,0.0,0.0,0.0,0.0,0.0,0.0,4.9474,0.0,0.0,5.7261,5.9361,0.0,6.1208,6.0086,6.1933,6.3472,6.416,6.4323,6.5048,6.6551,6.5971,6.5971,6.6768,6.6134,6.6044,6.6605,6.6623,6.6677,6.6804,6.6424,6.5663,6.4559,6.4196,6.3363,6.215,6.1335,6.0919,6.0683,5.9198,5.851,5.8329,5.7514,5.7188,5.7188,5.7188,5.7188,5.7188,5.7188,5.7188,5.7188,5.7188,5.7138,5.6984,5.6474,5.6791,5.7306,5.7068,5.7088,5.7237,5.7298,5.7298,5.7087,5.6591,5.6842,5.6867,5.5924,5.6021,5.6139,5.5649,5.5446,5.5378,5.5378,5.5378,5.5378,5.5378,5.5378,5.5378,5.5378,5.5378,5.5124,5.4499,5.4431,5.4177,5.3551,5.3501,5.3501,5.3501,5.3501,5.3501,5.3501,5.3501,5.345,5.3315,5.3315,5.3264,5.3162,5.3162,5.3213,5.3315,5.3213,5.3281,3.4298,3.6001,3.7449,3.7069,3.8844,4.0437,0.0,0.0,0.0,0.0,0.0,0.0,0.0,0.0,0.0,0.0,0.0,5.1937,5.5051,5.6102,5.7315,0.0,6.0267,6.0756,6.0901,6.2693,6.3816,6.3744,6.4957,6.5826,6.6134,6.6207,6.6424,6.6786,6.6025,6.5772,6.6152,6.5718,6.5718,6.6134,6.5265,6.4685,6.4359,6.3508,6.2712,6.1951,6.0701,5.9905,5.9452,5.8709,5.8148,5.7713,5.7333,5.7188,5.7188,5.7188,5.7188,5.7188,5.7188,5.7188,5.7188,5.7188,5.7188,5.7228,5.7385,5.8016,5.8736,5.9168,5.8798,5.8325,5.8631,5.8499,5.8255,5.8378,5.7805,5.7256,5.7415,5.6777,5.6241,5.6292,5.5987,5.5716,5.5716,5.5716,5.5716,5.5716,5.5716,5.5716,5.5716,5.5716,5.5581,5.5243,5.5192,5.5057,5.4735,5.4329,5.3923,5.3534,5.3501,5.3501,5.3501,5.3501,5.3501,5.3501,5.3501,5.3501,5.3501,5.3501,5.3501,5.3501,5.3501,5.3501,3.3864,3.5439,3.7065,3.7214,0.0,0.0,0.0,0.0,0.0,0.0,0.0,0.0,0.0,0.0,0.0,0.0,5.2299,5.4128,5.65,5.7007,5.7876,5.9923,6.0176,6.0665,6.1897,6.3291,6.3852,6.3237,6.4903,6.5844,6.5609,6.5826,6.6134,6.6514,6.5374,6.4939,6.5319,6.4142,6.4052,6.5011,6.378,6.3327,6.3526,6.2295,6.1643,6.1371,5.9941,5.8981,5.8383,5.8202,5.775,5.7188,5.7188,5.7188,5.7188,5.7188,5.7188,5.7188,5.7188,5.7188,5.7224,5.7424,5.7478,5.7623,5.8438,5.9253,6.0013,6.0647,5.9997,5.9327,5.9997,5.9943,5.9877,6.0295,5.9303,5.8507,5.9282,5.817,5.7054,5.7236,5.6862,5.6401,5.6224,5.6224,5.6224,5.6224,5.6224,5.6278,5.6401,5.6278,5.6227,5.6163,5.6176,5.6089,5.575,5.5023,5.4279,5.3551,5.367,5.3754,5.3754,5.3754,5.3839,5.4025,5.3856,5.3839,5.4025,5.3839,5.3754,5.3754,5.3585,5.3501,3.5222,3.629,3.7192,3.792,0.0,0.0,0.0,0.0,0.0,0.0,0.0,0.0,0.0,0.0,0.0,0.0,5.3313,5.6591,5.8999,0.0,6.081,6.1734,6.1842,6.1897,6.2005,6.2784,6.3255,6.3182,6.3345,6.4088,6.5518,6.4233,6.4124,6.5645,6.3472,6.2983,6.4468,6.2223,6.1842,6.3363,6.3255,6.244,6.1064,6.0955,6.0484,5.9724,5.8854,5.8456,5.8347,5.7587,5.7243,5.7188,5.7188,5.7188,5.7188,5.7188,5.7188,5.7188,5.7188,5.7188,5.7315,5.8076,5.8311,5.8456,5.9271,6.0086,6.0738,6.0792,6.072,6.0829,6.1643,6.233,6.2743,6.2165,6.2442,6.2577,6.1325,6.0902,6.0425,5.9012,5.8703,5.8479,5.7857,5.7729,5.7729,5.7729,5.7729,5.7984,5.8617,5.8109,5.7729,5.7671,5.77,5.7188,5.5835,5.5023,5.4279,5.3551,5.4143,5.4515,5.4515,5.4515,5.4837,5.5547,5.4871,5.4854,5.5564,5.4854,5.4515,5.4499,5.3822,5.3501,3.4751,3.6001,3.7286,3.8608,0.0,0.0,0.0,0.0,0.0,0.0,0.0,0.0,0.0,0.0,0.0,5.2661,5.5558,5.8347,6.0756,6.1371,6.1679,6.1969,6.2023,6.2023,6.2023,6.273,6.2983,6.2494,6.3382,6.3979,6.4088,6.3997,6.4215,6.483,6.3001,6.2313,6.2911,6.1516,6.0611,6.0231,6.2223,6.2349,6.081,6.081,6.0104,5.8818,5.8003,5.7641,5.7623,5.7333,5.7188,5.7188,5.7188,5.7188,5.7188,5.7188,5.7188,5.7188,5.7188,5.7188,5.7333,5.8148,5.8402,5.8637,5.9959,6.0575,6.081,6.081,6.081,6.1009,6.1806,6.186,6.177,6.2035,6.1978,6.1729,6.1183,6.0741,6.0253,5.9696,5.9561,5.9495,5.9265,5.9197,5.9197,5.9197,5.9197,5.9331,5.9561,5.938,5.9009,5.8512,5.8163,5.7662,5.712,5.6393,5.5649,5.4921,5.4279,5.3923,5.3923,5.4346,5.4718,5.5006,5.5192,5.5429,5.5716,5.5429,5.5057,5.4583,5.4296,5.394,3.4474,3.5859,3.7449,3.8697,0.0,0.0,0.0,0.0,0.0,0.0,0.0,0.0,0.0,0.0,0.0,0.0,5.6917,5.9452,6.1371,6.186,6.2023,6.2023,6.2023,6.2023,6.2023,6.2512,6.2603,6.206,6.2549,6.2875,6.282,6.2621,6.273,6.3255,6.1716,6.1118,6.1643,6.0575,5.9742,5.918,6.1136,6.1227,5.9669,5.9669,5.9072,5.7985,5.7442,5.7188,5.7188,5.7188,5.7188,5.7188,5.7188,5.7188,5.7188,5.7188,5.7188,5.7188,5.7188,5.7188,5.7333,5.8148,5.8565,5.8981,6.0104,6.0611,6.0756,6.0502,6.0249,6.0303,6.1371,6.1408,6.139,6.2204,6.2251,6.1978,6.1727,6.1343,6.0892,6.0397,6.0299,6.0219,6.0048,5.9966,5.9966,5.9966,5.9966,6.0111,6.0282,6.0093,5.9879,5.9627,5.9013,5.8475,5.8209,5.7528,5.6743,5.5767,5.4769,5.4093,5.3856,5.4329,5.4702,5.4938,5.5209,5.5581,5.6055,5.5581,5.5209,5.4938,5.4465,5.3974,3.4697,3.5994,3.7546,3.8092,0.0,0.0,0.0,0.0,0.0,0.0,0.0,0.0,0.0,0.0,0.0,5.3458,5.7025,5.9887,6.072,6.1516,6.2023,6.2023,6.2023,6.2023,6.2023,6.2023,6.2023,6.2023,6.0538,6.0321,6.1915,5.9724,5.9144,6.0756,5.9253,5.918,6.0774,5.9198,5.9198,6.0774,5.9977,5.8746,5.7206,5.7206,5.7206,5.7188,5.7188,5.7188,5.7188,5.7188,5.7188,5.7188,5.7188,5.7188,5.7188,5.7188,5.7188,5.7188,5.7188,5.7188,5.7333,5.8148,5.8945,5.9597,5.9615,6.0176,6.0629,5.9814,5.9017,5.8764,6.0375,6.139,6.2186,6.2983,6.3798,6.416,6.3345,6.3182,6.2743,6.1306,6.1045,6.0789,6.0156,6.0048,6.0048,6.0048,6.0048,6.0282,6.0909,6.0406,6.0265,6.1037,6.044,5.9709,5.8977,5.8219,5.7243,5.5854,5.5733,5.5395,5.4634,5.46,5.4955,5.57,5.4972,5.5327,5.6799,5.531,5.4972,5.5666,5.4194,5.3518,3.6424,3.7399,0.0,0.0,0.0,0.0,0.0,0.0,0.0,0.0,0.0,0.0,0.0,0.0,0.0,5.5233,5.7732,6.0086,6.1462,6.186,6.2023,6.2023,6.2023,6.2023,6.2023,6.2023,6.2023,6.2023,6.1045,6.0665,6.1136,5.9941,5.947,5.9941,5.8945,5.8637,5.9108,5.8637,5.8365,5.8275,5.8601,5.851,5.8039,5.8039,5.7732,5.717,5.6591,5.6681,5.7188,5.7188,5.7188,5.7188,5.7188,5.7188,5.7188,5.7188,5.7188,5.7188,5.7188,5.7188,5.7333,5.8148,5.8565,5.8854,5.9434,5.9778,5.9796,5.8981,5.8583,5.8637,5.9705,6.014,6.0665,6.2041,6.2549,6.2657,6.2422,6.2367,6.224,6.1802,6.1692,6.1636,6.1448,6.139,6.139,6.139,6.139,6.1505,6.1692,6.1122,6.0818,6.0988,6.0423,6.013,6.0412,5.9284,5.841,5.8016,5.7491,5.6681,5.5446,5.5378,5.5497,5.5716,5.5497,5.5598,5.6038,5.5598,5.5226,5.4921,5.4482,5.3991,3.7396,0.0,0.0,0.0,0.0,0.0,0.0,0.0,0.0,0.0,0.0,0.0,0.0,5.6066,0.0,5.6899,5.8709,6.043,6.1408,6.1534,6.1534,6.1534,6.1245,6.119,6.1498,6.1245,6.119,6.1516,6.0484,5.985,5.985,5.909,5.8655,5.8655,5.8184,5.8076,5.8402,5.8076,5.784,5.7677,5.784,5.7913,5.7913,5.7913,5.7478,5.6681,5.5903,5.5993,5.6717,5.6717,5.6899,5.7188,5.7188,5.7188,5.7188,5.7188,5.7188,5.7188,5.7188,5.7188,5.7279,5.7768,5.8148,5.8438,5.8601,5.8872,5.9017,5.8546,5.8402,5.8655,5.9796,6.0086,6.0412,6.1697,6.2023,6.2023,6.2023,6.2023,6.2023,6.2023,6.2023,6.2023,6.2023,6.2023,6.2023,6.2023,6.2023,6.2023,6.2023,6.1636,6.1372,6.1372,6.1063,6.0864,6.1015,6.0212,5.9478,5.896,5.8511,5.7817,5.6613,5.6292,5.5869,5.5277,5.526,5.526,5.526,5.4972,5.4752,5.4583,5.4296,5.3923,0.0,0.0,0.0,0.0,0.0,0.0,0.0,0.0,0.0,0.0,0.0,0.0,5.8402,5.8039,5.7822,5.842,5.9868,6.0919,6.0919,6.0919,6.0883,6.0828,6.0158,6.0013,6.0738,6.0086,5.9941,6.0756,5.9307,5.8402,5.8402,5.7569,5.708,5.708,5.7025,5.7333,5.8076,5.7351,5.7387,5.8166,5.7369,5.7062,5.7188,5.7188,5.6754,5.5957,5.5377,5.545,5.5993,5.6066,5.6536,5.7188,5.7188,5.7188,5.7188,5.7188,5.7188,5.7188,5.7188,5.7188,5.7188,5.7188,5.7695,5.8148,5.7424,5.775,5.8402,5.8402,5.8456,5.8854,6.0412,6.081,6.1009,6.1824,6.2023,6.2023,6.2023,6.2023,6.2023,6.2023,6.2023,6.2023,6.2023,6.2023,6.2023,6.2023,6.2023,6.2023,6.2023,6.2023,6.2023,6.2023,6.2023,6.1748,6.1163,6.1045,6.045,5.9145,5.9029,5.8719,5.8027,5.726,5.6139,5.4718,5.4617,5.4583,5.4583,5.3856,5.3873,5.4566,5.3907,5.3568,0.0,0.0,0.0,0.0,0.0,0.0,0.0,0.0,0.0,0.0,0.0,5.9905,5.9434,6.0231,6.0629,5.9524,6.0701,6.1752,6.1752,6.1752,6.1516,6.0883,6.0665,6.0629,6.0792,6.0086,5.9941,6.0756,5.9307,5.8402,5.8402,5.7043,5.6247,5.6247,5.5703,5.5486,5.5649,5.5486,5.5776,5.65,5.5758,5.6029,5.7188,5.7188,5.6754,5.6029,5.65,5.6428,5.6047,5.6681,5.7043,5.7188,5.7188,5.7188,5.7188,5.7188,5.7188,5.7188,5.7188,5.7188,5.7188,5.7188,5.7315,5.7424,5.7243,5.775,5.8402,5.8402,5.8854,5.9579,6.0557,6.081,6.1009,6.1824,6.2023,6.2023,6.2023,6.2023,6.2023,6.2023,6.2023,6.2023,6.2023,6.2023,6.2023,6.2023,6.2023,6.2023,6.2023,6.2023,6.2023,6.2023,6.2023,6.195,6.1822,6.1297,6.0849,6.059,6.0088,5.9495,5.8737,5.7511,5.6376,5.5497,5.4888,5.4583,5.4583,5.3856,5.3873,5.4583,5.4431,5.4042,0.0,0.0,0.0,0.0,0.0,0.0,0.0,0.0,0.0,0.0,0.0,6.0104,5.9687,6.0303,6.0593,5.9742,6.0303,6.0864,6.0864,6.0864,6.0557,5.976,5.9651,5.9651,5.9651,5.8565,5.8202,5.9017,5.7623,5.6717,5.6717,5.5939,5.5468,5.5468,5.5106,5.4907,5.4907,5.4907,5.5088,5.5468,5.5088,5.5323,5.6102,5.6464,5.6391,5.5993,5.6066,5.6066,5.6029,5.6446,5.6844,5.7188,5.7188,5.7188,5.7188,5.7188,5.7188,5.7188,5.7188,5.7188,5.7188,5.7188,5.7188,5.7188,5.7188,5.7496,5.7985,5.8764,5.9289,5.9868,6.1082,6.139,6.1498,6.1915,6.2023,6.2023,6.2023,6.2023,6.2023,6.2023,6.2023,6.2023,6.2023,6.2023,6.2023,6.2023,6.2023,6.2023,6.2023,6.2023,6.2023,6.2023,6.2023,6.2023,6.2023,6.1692,6.1372,6.1045,6.067,6.0194,5.9447,5.841,5.7443,5.6765,5.6038,5.5649,5.5649,5.4921,5.4566,5.4583,5.4583,5.438,0.0,0.0,0.0,0.0,0.0,0.0,0.0,0.0,0.0,0.0,5.9315,5.9561,5.9416,5.9524,5.9561,5.9416,5.9398,5.9398,5.9398,5.9271,5.8891,5.8076,5.7985,5.7985,5.7985,5.6663,5.6138,5.6935,5.5685,5.4907,5.4907,5.478,5.4689,5.4689,5.4562,5.449,5.449,5.449,5.4562,5.4689,5.4834,5.4834,5.4725,5.5468,5.5812,5.5776,5.516,5.5323,5.5975,5.5848,5.6355,5.7188,5.7043,5.708,5.7188,5.7188,5.7188,5.7188,5.7188,5.7188,5.7188,5.7188,5.7188,5.7188,5.7188,5.7297,5.7677,5.9017,5.9506,5.9941,6.1426,6.1806,6.1842,6.1987,6.2023,6.2023,6.2023,6.2023,6.2023,6.2023,6.2023,6.2023,6.2023,6.2023,6.2023,6.2023,6.2023,6.2023,6.2023,6.2023,6.2023,6.2023,6.2023,6.2023,6.2023,6.2023,6.1748,6.1239,6.1045,6.0729,6.0237,5.9495,5.8909,5.8467,5.7365,5.6799,5.6799,5.6207,5.5513,5.4786,5.504,5.4955,0.0,0.0,0.0,0.0,0.0,0.0,0.0,0.0,0.0,0.0,5.9187,5.9398,5.8691,5.9126,5.9379,5.8673,5.8565,5.8565,5.8565,5.7967,5.7224,5.641,5.6319,5.6319,5.6319,5.554,5.5359,5.6102,5.5377,5.4907,5.4907,5.4237,5.3856,5.3856,5.3186,5.2824,5.2824,5.2824,5.3168,5.3874,5.4581,5.4544,5.3892,5.4689,5.5051,5.5051,5.4943,5.5323,5.5939,5.5305,5.5903,5.7134,5.6428,5.6573,5.7188,5.7188,5.7188,5.7188,5.7188,5.7188,5.7188,5.7188,5.7188,5.7188,5.7188,5.7695,5.8275,5.851,5.9072,5.9814,6.0738,6.0973,6.1154,6.1842,6.2023,6.2023,6.2023,6.2023,6.2023,6.2023,6.2023,6.2023,6.2023,6.2023,6.2023,6.2023,6.2023,6.2023,6.2023,6.2023,6.2023,6.2023,6.2023,6.2023,6.2023,6.2023,6.195,6.1895,6.1315,6.0945,6.0849,6.0219,6.0089,6.0639,5.8082,5.6799,5.6799,5.6714,5.6275,5.5598,5.685,5.641,0.0,0.0,0.0,0.0,0.0,0.0,0.0,0.0,0.0,5.7491,5.7408,5.7358,5.7674,5.7873,5.7935,5.7746,5.7946,5.7881,5.7166,5.7134,5.6754,5.5522,5.574,5.583,5.5414,5.4689,5.4363,5.4689,5.3983,5.3566,5.3566,5.3222,5.3023,5.3023,5.2679,5.2498,5.2498,5.2498,5.2679,5.3023,5.3385,5.3367,5.3041,5.3385,5.4055,5.4907,5.4907,5.5088,5.5395,5.5486,5.5921,5.6536,5.6627,5.688,5.7188,5.7188,5.7188,5.7188,5.7188,5.7188,5.7188,5.7188,5.7188,5.7188,5.7188,5.7442,5.7822,5.8275,5.8655,5.9108,5.9923,6.014,6.0339,6.1154,6.1335,6.1462,6.1915,6.2023,6.2023,6.2023,6.2023,6.2023,6.2023,6.2023,6.2023,6.2023,6.2023,6.2023,6.2023,6.2023,6.2023,6.2023,6.2023,6.2023,6.2023,6.2023,6.2023,6.2023,6.171,6.1579,6.1561,6.0927,6.0706,6.1043,5.9024,5.8201,5.8646,5.7827,5.7036,5.6342,5.6985,5.6748,0.0,0.0,0.0,0.0,0.0,0.0,0.0,0.0,5.6319,0.0,5.6253,5.6153,5.7332,5.7106,5.6878,5.7273,5.7507,5.718,5.6018,5.6128,5.5812,5.4454,5.478,5.4888,5.4345,5.3748,5.3403,5.3403,5.2842,5.2498,5.2498,5.2498,5.2498,5.2498,5.2498,5.2498,5.2498,5.2498,5.2498,5.2498,5.2498,5.2498,5.2498,5.2526,5.3179,5.4291,5.4291,5.4418,5.4635,5.5245,5.568,5.6047,5.6713,5.7057,5.7188,5.7188,5.7188,5.7188,5.7188,5.7188,5.7188,5.7188,5.7188,5.7188,5.7188,5.7188,5.7333,5.7931,5.8094,5.8275,5.909,5.9452,5.9814,6.0629,6.0973,6.1281,6.1897,6.2023,6.2023,6.2023,6.2023,6.2023,6.2023,6.2023,6.2023,6.2023,6.2023,6.2023,6.2023,6.2023,6.2023,6.2023,6.2023,6.2023,6.2023,6.2023,6.2023,6.2023,6.2023,6.2023,6.2023,6.1505,6.1239,6.1239,6.0076,5.9659,6.0081,5.8971,5.7967,5.7066,5.7243,5.7171,0.0,0.0,0.0,0.0,0.0,0.0,0.0,0.0,5.5328,5.6453,5.672,5.708,5.833,5.7537,5.695,5.773,5.7262,5.6455,5.5647,5.4583,5.3566,5.2733,5.2661,5.2661,5.2625,5.2589,5.2552,5.2552,5.2516,5.2498,5.2498,5.2498,5.2498,5.2498,5.2498,5.2498,5.2498,5.2498,5.2498,5.2498,5.2498,5.2498,5.2498,5.2581,5.2636,5.2625,5.2625,5.3059,5.3766,5.3943,5.4785,5.5993,5.6194,5.6617,5.7188,5.7188,5.7188,5.7188,5.7188,5.7188,5.7188,5.7188,5.7188,5.7188,5.7188,5.7188,5.7206,5.7243,5.7261,5.7442,5.8257,5.9035,5.9814,6.0629,6.139,6.1969,6.2005,6.2023,6.2023,6.2023,6.2023,6.2023,6.2023,6.2023,6.2023,6.2023,6.2023,6.2023,6.2023,6.2023,6.2023,6.2023,6.2023,6.2023,6.2023,6.2023,6.2023,6.2023,6.2023,6.2023,6.2023,6.1969,6.195,6.195,6.1239,6.0626,5.9972,5.9977,5.9202,5.7755,5.8566,5.8152,3.8963,0.0,0.0,0.0,0.0,0.0,0.0,5.0921,5.2655,5.3074,5.3376,5.3906,5.4836,5.6388,5.7723,5.8288,5.7672,5.6773,5.568,5.469,5.3788,5.2967,5.2875,5.2875,5.2875,5.2172,5.1765,5.1774,5.1275,5.1203,5.1756,5.1747,5.1973,5.248,5.2498,5.2498,5.2498,5.1991,5.1719,5.1737,5.23,5.2345,5.1891,5.2453,5.2717,5.269,5.269,5.2808,5.3053,5.369,5.4573,5.5527,5.6007,5.6697,5.7455,5.7338,5.7388,5.7455,5.7455,5.7388,5.7356,5.7356,5.7289,5.7188,5.7188,5.7188,5.7188,5.7188,5.7188,5.7261,5.755,5.8239,5.9162,6.0502,6.1426,6.2023,6.2023,6.2023,6.2023,6.2023,6.2023,6.2023,6.2023,6.2023,6.2023,6.2023,6.2023,6.2023,6.2023,6.2023,6.2023,6.2023,6.2023,6.2023,6.2023,6.2023,6.2023,6.2023,6.2023,6.2023,6.2023,6.2023,6.2023,6.2023,6.1748,6.1315,6.0669,6.0247,5.952,5.8512,5.8805,5.8453,3.8243,0.0,0.0,0.0,0.0,0.0,4.6676,0.0,5.0182,5.1035,5.1639,5.2354,5.3432,5.5461,5.7089,5.7489,5.7094,5.6418,5.5415,5.4815,5.4165,5.323,5.2946,5.2821,5.2716,5.1725,5.1053,5.1009,5.0449,5.0377,5.0991,5.0939,5.1167,5.1665,5.1683,5.1683,5.1683,5.1158,5.0886,5.0904,5.1801,5.1972,5.1536,5.2459,5.285,5.2824,5.2912,5.285,5.2753,5.3681,5.4337,5.4884,5.564,5.6441,5.72,5.7104,5.7267,5.7601,5.7601,5.7553,5.7455,5.7455,5.7406,5.7257,5.7257,5.7257,5.7188,5.7188,5.7188,5.7188,5.7188,5.8003,5.9216,6.0828,6.1625,6.2023,6.2023,6.2023,6.2023,6.2023,6.2023,6.2023,6.2023,6.2023,6.2023,6.2023,6.2023,6.2023,6.2023,6.2023,6.2023,6.2023,6.2023,6.2023,6.2023,6.2023,6.2023,6.2023,6.2023,6.2023,6.2023,6.2023,6.2023,6.2023,6.2023,6.1766,6.1297,6.0669,5.9966,5.923,5.9028,5.8511,0.0,0.0,0.0,0.0,0.0,0.0,4.5483,4.6676,4.8003,5.0542,5.1698,5.276,5.4389,5.4731,5.4874,5.5285,5.5404,5.5301,5.4893,5.4816,5.4362,5.318,5.2673,5.225,5.1952,5.1077,5.0456,5.0216,5.0155,5.0155,5.0173,5.0192,5.0166,5.0134,5.0097,5.0115,5.009,5.0071,5.0053,5.0071,5.1038,5.1482,5.15,5.2546,5.2937,5.2824,5.3103,5.306,5.2878,5.3796,5.4099,5.41,5.5003,5.5779,5.6416,5.6416,5.6926,5.7601,5.7601,5.7601,5.7601,5.7601,5.7504,5.7406,5.7388,5.7307,5.7206,5.7188,5.7188,5.7206,5.7261,5.8456,6.005,6.1643,6.2023,6.2023,6.2023,6.2023,6.2023,6.2023,6.2023,6.2023,6.2023,6.2023,6.2023,6.2023,6.2023,6.2023,6.2023,6.2023,6.2023,6.2023,6.2023,6.2023,6.2023,6.2023,6.2023,6.2023,6.2023,6.2023,6.2023,6.2023,6.2023,6.2023,6.2023,6.2023,6.2023,6.1372,6.0651,6.003,5.923,5.8581,3.739,0.0,0.0,0.0,0.0,0.0,4.2431,4.3682,4.5274,4.7188,4.8211,4.8913,4.9386,5.0467,5.131,5.1433,5.2736,5.3721,5.3634,5.3056,5.2535,5.2207,5.2034,5.1937,5.1833,5.0564,4.9756,4.9753,4.8995,4.8792,4.9356,5.0076,5.0492,5.0451,4.9884,4.976,5.009,4.9528,4.9238,4.9257,5.0835,5.1267,5.0757,5.2377,5.3103,5.3103,5.3164,5.3164,5.3121,5.336,5.3799,5.4331,5.4462,5.544,5.6667,5.6556,5.7115,5.7904,5.7904,5.7857,5.7745,5.7745,5.7649,5.7553,5.7455,5.7388,5.7338,5.7257,5.7188,5.746,5.8637,5.9705,6.0738,6.177,6.2023,6.2023,6.2023,6.2023,6.2023,6.2023,6.2023,6.2023,6.2023,6.2023,6.2023,6.2023,6.2023,6.2023,6.2023,6.2023,6.2023,6.2023,6.2023,6.2023,6.2023,6.2023,6.2023,6.2023,6.2023,6.2023,6.2023,6.2023,6.2023,6.2023,6.2023,6.2023,6.2023,6.1822,6.1372,6.0669,5.9478,5.8841,3.794,3.8906,3.9873,3.9759,0.0,0.0,4.1048,4.1673,4.2602,4.427,4.5274,4.607,4.6771,4.77,4.8458,4.8799,4.9901,5.1136,5.2381,5.2253,5.1996,5.1818,5.1663,5.1487,5.1311,5.016,4.9379,4.9362,4.8583,4.8269,4.8574,4.9245,4.9585,4.9501,4.9127,4.9007,4.9198,4.8641,4.8405,4.8424,4.9871,5.0526,5.0477,5.2004,5.2894,5.3206,5.3206,5.3206,5.3206,5.3206,5.3482,5.3904,5.3818,5.4587,5.5849,5.609,5.6758,5.7556,5.7886,5.795,5.7886,5.7886,5.7792,5.7649,5.7601,5.7504,5.7388,5.7307,5.7239,5.7569,5.918,5.9959,6.0593,6.1752,6.2023,6.2023,6.2023,6.2023,6.2023,6.2023,6.2023,6.2023,6.2023,6.2023,6.2023,6.2023,6.2023,6.2023,6.2023,6.2023,6.2023,6.2023,6.2023,6.2023,6.2023,6.2023,6.2023,6.2023,6.2023,6.2023,6.2023,6.2023,6.2023,6.2023,6.2023,6.2023,6.2023,6.2023,6.1636,6.0968,5.9885,5.9163,3.8681,3.9286,4.006,4.0764,3.993,0.0,4.0745,4.0536,4.0514,4.2204,4.3076,4.4042,4.5634,4.607,4.6373,4.6904,4.7226,4.8332,5.1086,5.1695,5.1773,5.1632,5.1204,5.0809,5.056,4.9859,4.9302,4.9057,4.8566,4.8216,4.8068,4.8194,4.8176,4.8068,4.8267,4.8247,4.7966,4.7801,4.7717,4.7717,4.8707,4.9615,5.0459,5.1509,5.2435,5.3206,5.3206,5.3206,5.3206,5.3206,5.3206,5.3206,5.3206,5.3702,5.4491,5.5299,5.6106,5.6932,5.7721,5.7997,5.7997,5.7997,5.7904,5.7792,5.7792,5.7649,5.7455,5.7406,5.7361,5.7659,5.9108,5.9615,6.0104,6.1553,6.1951,6.2023,6.2023,6.2023,6.2023,6.2023,6.2023,6.2023,6.2023,6.2023,6.2023,6.2023,6.2023,6.2023,6.2023,6.2023,6.2023,6.2023,6.2023,6.2023,6.2023,6.2023,6.2023,6.2023,6.2023,6.2023,6.2023,6.2023,6.2023,6.2023,6.2023,6.2023,6.2023,6.2023,6.1692,6.1104,6.0406,5.9756,0.0,0.0,0.0,0.0,0.0,0.0,4.0252,4.0574,4.1427,4.3095,4.3019,4.2981,4.4004,4.5293,4.5805,4.4611,4.6089,4.7844,4.9116,4.8772,4.8848,5.0118,4.9625,4.9397,4.9967,4.9642,4.9384,4.9334,4.8101,4.7903,4.9132,4.8252,4.8163,4.915,4.8971,4.8694,4.8384,4.805,4.7861,4.7879,4.8701,4.9567,5.0417,5.1407,5.2333,5.3206,5.3206,5.3206,5.3206,5.3206,5.3206,5.3206,5.3206,5.3702,5.4491,5.5299,5.6106,5.6932,5.7721,5.7997,5.7997,5.7997,5.7997,5.795,5.7839,5.7745,5.7697,5.7455,5.786,5.8391,5.8598,5.9615,6.0665,6.0973,6.1553,6.2023,6.2023,6.2023,6.2023,6.2023,6.2023,6.2023,6.2023,6.2023,6.2023,6.2023,6.2023,6.2023,6.2023,6.2023,6.2023,6.2023,6.2023,6.2023,6.2023,6.2023,6.2023,6.2023,6.2023,6.2023,6.2023,6.2023,6.2023,6.2023,6.2023,6.2023,6.2023,6.2023,6.195,6.1766,6.114,6.0747,0.0,0.0,0.0,3.9992,0.0,0.0,0.0,3.9951,4.0371,4.1604,4.1165,4.1089,4.28,4.308,4.3208,4.3625,4.4383,4.5501,4.7258,4.7441,4.77,4.8553,4.8287,4.8211,4.8609,4.8493,4.8323,4.8176,4.7452,4.7281,4.791,4.7492,4.7691,4.8621,4.8222,4.8263,4.8779,4.818,4.8034,4.8458,4.8768,4.9556,5.0772,5.111,5.1789,5.2619,5.3041,5.2986,5.2637,5.3041,5.3206,5.3206,5.3206,5.3463,5.3904,5.4693,5.55,5.6308,5.7116,5.7666,5.7997,5.7997,5.7997,5.7997,5.7904,5.7839,5.7745,5.7504,5.7697,5.8187,5.8903,5.9649,6.0412,6.1227,6.1408,6.1534,6.1933,6.1697,6.1534,6.1933,6.2023,6.2023,6.2023,6.2023,6.2023,6.2023,6.2023,6.2023,6.2023,6.2023,6.2023,6.2023,6.2023,6.2023,6.2023,6.2023,6.2023,6.2023,6.2023,6.2023,6.2023,6.2023,6.2023,6.2023,6.2023,6.2023,6.2023,6.2023,6.2023,6.2023,6.1654,6.1315,0.0,0.0,0.0,0.0,0.0,3.9597,0.0,0.0,0.0,4.0131,3.9558,3.9652,4.1857,4.1133,4.0786,4.2701,4.2682,4.3179,4.5276,4.6234,4.6891,4.7391,4.7138,4.7036,4.7384,4.7422,4.7299,4.7033,4.6826,4.6652,4.6625,4.6671,4.7001,4.7759,4.7296,4.7642,4.8971,4.8202,4.8226,4.9062,4.8866,4.9489,5.0861,5.0706,5.1118,5.2013,5.2527,5.2546,5.227,5.2766,5.3078,5.3206,5.3206,5.3206,5.3316,5.4106,5.4913,5.5702,5.6528,5.7336,5.7997,5.7997,5.7997,5.7997,5.7997,5.7932,5.7792,5.7553,5.7504,5.7746,5.9005,5.9357,5.9705,6.1009,6.0937,6.081,6.1607,6.1281,6.1045,6.186,6.2023,6.2023,6.2023,6.2023,6.2023,6.2023,6.2023,6.2023,6.2023,6.2023,6.2023,6.2023,6.2023,6.2023,6.2023,6.2023,6.2023,6.2023,6.2023,6.2023,6.2023,6.2023,6.2023,6.2023,6.2023,6.2023,6.2023,6.2023,6.2023,6.2023,6.2023,6.1692,0.0,0.0,0.0,0.0,4.1772,0.0,0.0,0.0,4.1047,4.1123,0.0,4.0248,4.1257,0.0,0.0,4.0591,4.1675,4.2661,4.2902,4.3681,4.5052,4.7324,4.6163,4.5792,4.7321,4.7498,4.7473,4.7429,4.6493,4.6372,4.7416,4.6474,4.6456,4.7593,4.7292,4.756,4.856,4.8077,4.8277,4.9164,4.9029,4.9347,5.0046,5.001,5.0746,5.1958,5.1334,5.183,5.3023,5.238,5.2564,5.3206,5.3206,5.3206,5.3316,5.4106,5.4913,5.5702,5.6528,5.7336,5.7997,5.7997,5.7997,5.7997,5.7997,5.7997,5.795,5.7792,5.7745,5.7734,5.7673,5.8205,5.8736,5.8764,5.9289,5.9977,6.0774,6.0883,6.1045,6.186,6.2023,6.2023,6.2023,6.2023,6.2023,6.2023,6.2023,6.2023,6.2023,6.2023,6.2023,6.2023,6.2023,6.2023,6.2023,6.2023,6.2023,6.2023,6.2023,6.2023,6.2023,6.2023,6.2023,6.2023,6.2023,6.2023,6.2023,6.2023,6.2023,6.2023,6.2023,6.195,0.0,0.0,0.0,0.0,0.0,0.0,4.0973,0.0,4.0785,4.1261,0.0,0.0,0.0,0.0,0.0,0.0,4.099,4.1506,4.2476,4.2034,4.2693,4.567,4.5355,4.5179,4.593,4.5987,4.5987,4.5987,4.559,4.5558,4.606,4.5596,4.5829,4.6872,4.6252,4.6834,4.8758,4.809,4.8461,4.9849,4.957,4.9838,5.0541,5.0347,5.085,5.1879,5.201,5.2364,5.2782,5.2929,5.3046,5.3206,5.3206,5.3206,5.3243,5.3592,5.4216,5.495,5.5299,5.5923,5.6675,5.7152,5.7611,5.7997,5.7904,5.795,5.7997,5.7857,5.7792,5.7902,5.8233,5.8451,5.8842,5.982,5.9792,5.9959,6.1334,6.119,6.1045,6.186,6.2023,6.2023,6.2023,6.2023,6.2023,6.2023,6.2023,6.2023,6.2023,6.2023,6.2023,6.2023,6.2023,6.2023,6.2023,6.2023,6.2023,6.2023,6.2023,6.2023,6.2023,6.2023,6.2023,6.2023,6.2023,6.2023,6.2023,6.2023,6.2023,6.2023,6.2023,6.2023,4.3482,0.0,0.0,0.0,0.0,0.0,0.0,0.0,0.0,4.1303,4.0425,0.0,0.0,0.0,3.9871,4.0861,0.0,4.0919,4.2179,4.1222,4.1423,4.4284,4.4834,4.4943,4.4895,4.4943,4.4891,4.4616,4.4877,4.4943,4.4715,4.49,4.5342,4.6039,4.5403,4.6088,4.83,4.7918,4.8457,4.9977,4.9936,5.018,5.0666,5.0417,5.0717,5.1466,5.21,5.2404,5.2549,5.3144,5.3281,5.3206,5.3206,5.3206,5.3206,5.3295,5.3768,5.4399,5.4491,5.4981,5.5721,5.6547,5.7207,5.7703,5.7831,5.7932,5.7997,5.7886,5.7839,5.7985,5.8524,5.8476,5.8674,6.0158,5.9844,5.9724,6.1425,6.1262,6.1045,6.186,6.2023,6.2023,6.2023,6.2023,6.2023,6.2023,6.2023,6.2023,6.2023,6.2023,6.2023,6.2023,6.2023,6.2023,6.2023,6.2023,6.2023,6.2023,6.2023,6.2023,6.2023,6.2023,6.2023,6.2023,6.2023,6.2023,6.2023,6.2023,6.2023,6.2023,6.2023,6.2023,4.522,4.522,4.4819,4.3195,4.2775,4.2335,4.0693,4.0922,4.1476,4.1495,4.1457,4.1437,4.1495,4.1457,4.1189,4.0444,4.096,0.0,0.0,4.1397,4.1987,4.3721,4.4611,4.5038,4.4895,4.508,4.4824,4.3889,4.4623,4.4763,4.399,4.4604,4.508,4.523,4.5144,4.5563,4.6565,4.7327,4.817,4.9137,4.992,5.0139,4.9841,4.9841,5.008,5.0547,5.0635,5.1376,5.2494,5.2531,5.2802,5.3206,5.3206,5.3206,5.3248,5.3545,5.4001,5.4424,5.4788,5.518,5.5721,5.6547,5.6822,5.6987,5.7758,5.7997,5.7997,5.7997,5.7997,5.795,5.7875,5.7734,5.779,5.8546,5.8558,5.8891,6.0502,6.0828,6.1045,6.186,6.2023,6.2023,6.2023,6.2023,6.2023,6.2023,6.2023,6.2023,6.2023,6.2023,6.2023,6.2023,6.2023,6.2023,6.2023,6.2023,6.2023,6.2023,6.2023,6.2023,6.2023,6.2023,6.2023,6.2023,6.2023,6.2023,6.2023,6.2023,6.2023,6.2023,6.2023,6.2023,4.5297,4.5679,4.5698,4.4017,4.3596,4.331,4.2221,4.1724,4.1648,4.224,4.1896,4.1495,4.1495,4.1055,4.0616,4.0348,4.054,4.0693,0.0,4.1093,4.1587,4.2117,4.3406,4.4216,4.4189,4.4193,4.3852,4.2997,4.3741,4.4102,4.3776,4.46,4.508,4.508,4.5103,4.5544,4.6488,4.7308,4.817,4.9098,4.992,5.0236,5.0144,5.0144,5.0526,5.1266,5.1798,5.2485,5.322,5.3785,5.3842,5.3524,5.3524,5.34,5.3206,5.3336,5.3479,5.361,5.3741,5.4233,5.4932,5.5739,5.6363,5.695,5.7758,5.7997,5.7997,5.7997,5.7997,5.7997,5.795,5.7839,5.8092,5.9475,5.9539,5.9789,6.1511,6.1715,6.1679,6.1969,6.2023,6.2023,6.2023,6.2023,6.2023,6.2023,6.2023,6.2023,6.2023,6.2023,6.2023,6.2023,6.2023,6.2023,6.2023,6.2023,6.2023,6.2023,6.2023,6.2023,6.2023,6.2023,6.2023,6.2023,6.2023,6.2023,6.2023,6.2023,6.2023,6.2023,6.2023,6.2023,4.5297,4.5889,4.6175,4.48,4.4456,4.4246,4.3424,4.2794,4.2545,4.3119,4.2545,4.2049,4.2335,4.1476,4.0731,4.0731,4.0731,4.0635,0.0,4.0712,4.1092,4.1298,4.2838,4.3707,4.3358,4.3627,4.3323,4.2139,4.3111,4.3643,4.3293,4.4406,4.508,4.508,4.5125,4.557,4.6473,4.7312,4.8193,4.9098,4.992,5.0302,5.0302,5.0302,5.0779,5.1639,5.2442,5.3091,5.3613,5.4465,5.4444,5.3888,5.3888,5.37,5.3359,5.3359,5.3359,5.3359,5.3359,5.3709,5.4262,5.5115,5.5883,5.6694,5.7363,5.7776,5.8052,5.8345,5.8217,5.807,5.8345,5.8325,5.856,5.9974,6.0277,6.0586,6.2018,6.2168,6.2023,6.2023,6.2023,6.2023,6.2023,6.2023,6.2023,6.2023,6.2023,6.2023,6.2023,6.2023,6.2023,6.2023,6.2023,6.2023,6.2023,6.2023,6.2023,6.2023,6.2023,6.2023,6.2023,6.2023,6.2277,6.2856,6.2313,6.2295,6.2856,6.2295,6.2023,6.2023,6.2023,6.2023]},{"header":{"parameterUnit":"m.s-1","parameterCategory":1,"la1":30.6,"la2":29.2853,"lo1":-89.7004,"lo2":-87.6739,"dy":0.0162,"dx":0.0183,"nx":112,"ny":82,"refTime":"2024-04-10T06:00:00:Z","depth":0,"parameterNumber":3,"parameterNumberName":"V-component_of_WINDS"},"data":[0.0,0.0,0.0,0.0,0.0,0.0,0.0,0.0,0.0,0.0,0.0,0.0,0.0,0.0,0.0,0.0,0.0,0.0,0.0,0.0,0.0,0.0,0.0,0.0,0.0,0.0,0.0,0.0,0.0,0.0,0.0,0.0,0.0,0.0,0.0,0.0,0.0,0.0,0.0,0.0,0.0,0.0,0.0,0.0,0.0,0.0,0.0,0.0,0.0,0.0,0.0,0.0,0.0,0.0,0.0,0.0,0.0,0.0,0.0,0.0,0.0,0.0,0.0,0.0,0.0,0.0,0.0,0.0,0.0,0.0,0.0,0.0,0.0,0.0,0.0,0.0,0.0,0.0,0.0,0.0,0.0,0.0,0.0,0.0,0.0,0.0,0.0,0.0,0.0,0.0,-2.6302,-2.7902,-3.1241,-3.3273,-3.2925,-3.3032,-3.1629,-2.8081,0.0,0.0,0.0,0.0,0.0,0.0,0.0,0.0,0.0,0.0,0.0,0.0,0.0,0.0,0.0,0.0,0.0,0.0,0.0,0.0,0.0,0.0,0.0,0.0,0.0,0.0,0.0,0.0,0.0,0.0,0.0,0.0,0.0,0.0,0.0,0.0,0.0,0.0,0.0,0.0,0.0,0.0,0.0,0.0,0.0,0.0,0.0,0.0,0.0,0.0,0.0,0.0,0.0,0.0,0.0,0.0,0.0,0.0,0.0,0.0,0.0,0.0,0.0,0.0,0.0,0.0,0.0,0.0,0.0,0.0,0.0,0.0,0.0,0.0,0.0,0.0,0.0,0.0,0.0,0.0,0.0,0.0,0.0,0.0,0.0,0.0,0.0,0.0,0.0,0.0,0.0,0.0,0.0,0.0,0.0,0.0,0.0,0.0,0.0,0.0,0.0,0.0,0.0,0.0,-2.6557,-3.035,-3.182,-3.2222,-3.1632,-3.2205,-3.0811,-2.6812,0.0,0.0,0.0,0.0,0.0,0.0,0.0,0.0,0.0,0.0,0.0,0.0,0.0,0.0,0.0,0.0,0.0,0.0,0.0,0.0,0.0,0.0,0.0,0.0,0.0,0.0,0.0,0.0,0.0,0.0,0.0,0.0,0.0,0.0,0.0,0.0,0.0,0.0,0.0,0.0,0.0,0.0,0.0,0.0,0.0,0.0,0.0,0.0,0.0,0.0,0.0,0.0,0.0,0.0,0.0,0.0,0.0,0.0,0.0,0.0,0.0,0.0,0.0,0.0,0.0,0.0,0.0,0.0,0.0,0.0,0.0,0.0,0.0,0.0,0.0,0.0,0.0,0.0,0.0,0.0,0.0,0.0,0.0,0.0,0.0,0.0,0.0,0.0,0.0,0.0,0.0,0.0,0.0,0.0,0.0,0.0,0.0,0.0,0.0,0.0,0.0,0.0,0.0,-2.5185,-2.7201,-3.0989,-3.1406,-3.1192,-3.0543,-3.0519,-2.9141,-2.5901,-2.6298,0.0,0.0,0.0,0.0,0.0,0.0,0.0,0.0,0.0,0.0,0.0,0.0,0.0,0.0,0.0,0.0,0.0,0.0,0.0,0.0,0.0,0.0,0.0,0.0,0.0,0.0,0.0,0.0,0.0,0.0,0.0,0.0,0.0,0.0,0.0,0.0,0.0,0.0,0.0,0.0,0.0,0.0,0.0,0.0,0.0,0.0,0.0,0.0,0.0,0.0,0.0,0.0,0.0,0.0,0.0,0.0,0.0,0.0,0.0,0.0,0.0,0.0,0.0,0.0,0.0,0.0,0.0,0.0,0.0,0.0,0.0,0.0,0.0,0.0,0.0,0.0,0.0,0.0,0.0,0.0,0.0,0.0,0.0,0.0,0.0,0.0,0.0,0.0,0.0,0.0,0.0,0.0,0.0,0.0,0.0,0.0,0.0,0.0,0.0,0.0,0.0,0.0,-2.6683,-2.7961,-3.0616,-3.0882,-3.0519,-2.9852,-2.9013,-2.7499,-2.5079,-2.4577,0.0,0.0,0.0,0.0,0.0,0.0,0.0,0.0,0.0,0.0,0.0,0.0,0.0,0.0,0.0,0.0,0.0,0.0,0.0,0.0,0.0,0.0,0.0,0.0,0.0,0.0,0.0,0.0,0.0,0.0,0.0,0.0,0.0,0.0,0.0,0.0,0.0,0.0,0.0,0.0,0.0,0.0,0.0,0.0,0.0,0.0,0.0,0.0,0.0,0.0,0.0,0.0,0.0,0.0,0.0,0.0,0.0,0.0,0.0,0.0,0.0,0.0,0.0,0.0,0.0,0.0,0.0,0.0,0.0,0.0,0.0,0.0,0.0,0.0,0.0,0.0,0.0,0.0,0.0,0.0,0.0,0.0,0.0,0.0,0.0,0.0,0.0,0.0,0.0,0.0,0.0,0.0,0.0,0.0,0.0,0.0,0.0,0.0,0.0,0.0,0.0,0.0,-2.6233,-2.8598,-2.9376,-3.0232,-3.0519,-2.9852,-2.814,-2.6228,-2.4104,-2.2447,0.0,0.0,0.0,0.0,0.0,0.0,0.0,0.0,0.0,0.0,0.0,0.0,0.0,0.0,0.0,0.0,0.0,0.0,0.0,0.0,0.0,0.0,0.0,0.0,0.0,0.0,0.0,0.0,0.0,0.0,0.0,0.0,0.0,0.0,0.0,0.0,0.0,0.0,0.0,0.0,0.0,0.0,0.0,0.0,0.0,0.0,0.0,0.0,0.0,0.0,0.0,0.0,0.0,0.0,0.0,0.0,0.0,0.0,0.0,0.0,0.0,0.0,0.0,0.0,0.0,0.0,0.0,0.0,0.0,0.0,0.0,0.0,0.0,0.0,0.0,0.0,0.0,0.0,0.0,0.0,0.0,0.0,0.0,0.0,0.0,0.0,0.0,0.0,0.0,0.0,0.0,0.0,0.0,0.0,0.0,0.0,0.0,0.0,0.0,0.0,0.0,0.0,-2.5002,-2.7009,-2.8352,-2.8021,-2.7619,-2.7366,-2.6162,-2.4589,-2.2732,0.0,0.0,0.0,0.0,0.0,0.0,0.0,0.0,0.0,0.0,0.0,0.0,0.0,0.0,0.0,0.0,0.0,0.0,0.0,0.0,0.0,0.0,0.0,0.0,0.0,0.0,0.0,0.0,0.0,0.0,0.0,0.0,0.0,0.0,0.0,0.0,0.0,0.0,0.0,0.0,0.0,0.0,0.0,0.0,0.0,0.0,0.0,0.0,0.0,0.0,0.0,0.0,0.0,0.0,0.0,0.0,0.0,0.0,0.0,0.0,0.0,0.0,0.0,0.0,0.0,0.0,0.0,0.0,0.0,0.0,0.0,0.0,0.0,0.0,0.0,0.0,0.0,0.0,0.0,0.0,0.0,0.0,0.0,0.0,0.0,0.0,0.0,0.0,0.0,0.0,0.0,0.0,0.0,0.0,0.0,0.0,0.0,0.0,0.0,0.0,0.0,0.0,-2.2385,-2.4284,-2.598,-2.7183,-2.6641,-2.6041,-2.5885,-2.4664,-2.3287,-2.189,0.0,0.0,0.0,0.0,0.0,0.0,0.0,0.0,0.0,0.0,0.0,0.0,0.0,0.0,0.0,0.0,0.0,0.0,0.0,0.0,0.0,0.0,0.0,0.0,0.0,0.0,0.0,0.0,0.0,0.0,0.0,0.0,0.0,0.0,0.0,0.0,0.0,0.0,0.0,0.0,0.0,0.0,0.0,0.0,0.0,0.0,0.0,0.0,0.0,0.0,0.0,0.0,0.0,0.0,0.0,0.0,0.0,0.0,0.0,0.0,0.0,0.0,0.0,0.0,0.0,0.0,0.0,0.0,0.0,0.0,0.0,0.0,0.0,0.0,0.0,0.0,0.0,0.0,0.0,0.0,0.0,0.0,0.0,0.0,0.0,0.0,0.0,0.0,0.0,0.0,0.0,0.0,0.0,0.0,0.0,0.0,0.0,0.0,0.0,0.0,0.0,0.0,-2.1683,-2.4178,-2.5865,-2.5875,-2.6279,-2.6361,-2.5906,-2.3795,-2.2304,0.0,0.0,0.0,0.0,0.0,0.0,0.0,0.0,0.0,0.0,0.0,0.0,0.0,0.0,0.0,0.0,0.0,0.0,0.0,0.0,0.0,0.0,0.0,0.0,0.0,0.0,0.0,0.0,0.0,0.0,0.0,0.0,0.0,0.0,0.0,0.0,0.0,0.0,0.0,0.0,0.0,0.0,0.0,0.0,0.0,0.0,0.0,0.0,0.0,0.0,0.0,0.0,0.0,0.0,0.0,0.0,0.0,0.0,0.0,0.0,0.0,0.0,0.0,0.0,0.0,0.0,0.0,0.0,0.0,0.0,0.0,0.0,0.0,0.0,0.0,0.0,0.0,0.0,0.0,0.0,0.0,0.0,0.0,0.0,0.0,0.0,0.0,0.0,0.0,0.0,0.0,0.0,0.0,0.0,0.0,0.0,0.0,0.0,0.0,0.0,0.0,0.0,0.0,-2.1759,-2.4182,-2.5711,-2.5477,-2.5254,-2.5223,-2.5409,-2.3629,-2.2304,-2.1838,0.0,0.0,0.0,0.0,0.0,0.0,0.0,0.0,0.0,0.0,0.0,0.0,0.0,0.0,0.0,0.0,0.0,0.0,0.0,0.0,0.0,0.0,0.0,0.0,0.0,0.0,0.0,0.0,0.0,0.0,0.0,0.0,0.0,0.0,0.0,0.0,0.0,0.0,0.0,0.0,0.0,0.0,0.0,0.0,0.0,0.0,0.0,0.0,0.0,0.0,0.0,0.0,0.0,0.0,0.0,0.0,0.0,0.0,0.0,0.0,0.0,0.0,0.0,0.0,0.0,0.0,0.0,0.0,0.0,0.0,0.0,0.0,0.0,0.0,0.0,0.0,0.0,0.0,0.0,0.0,0.0,0.0,0.0,0.0,0.0,0.0,0.0,0.0,0.0,0.0,0.0,0.0,0.0,0.0,0.0,0.0,0.0,0.0,0.0,0.0,0.0,0.0,-2.1759,-2.4027,-2.5497,-2.5202,-2.4985,-2.4933,-2.5213,-2.3722,-2.2501,-2.1849,0.0,0.0,0.0,0.0,0.0,0.0,0.0,0.0,0.0,0.0,0.0,0.0,0.0,0.0,0.0,0.0,0.0,0.0,0.0,0.0,0.0,0.0,0.0,0.0,0.0,0.0,0.0,0.0,0.0,0.0,0.0,0.0,0.0,0.0,0.0,0.0,0.0,0.0,0.0,0.0,0.0,0.0,0.0,0.0,0.0,0.0,0.0,0.0,0.0,0.0,0.0,0.0,0.0,0.0,0.0,0.0,0.0,0.0,0.0,0.0,0.0,0.0,0.0,0.0,0.0,0.0,0.0,0.0,0.0,0.0,0.0,0.0,0.0,0.0,0.0,0.0,0.0,0.0,0.0,0.0,0.0,0.0,0.0,0.0,0.0,0.0,0.0,0.0,0.0,0.0,0.0,0.0,0.0,0.0,0.0,0.0,0.0,0.0,0.0,0.0,0.0,0.0,-2.1745,-2.3805,-2.5171,-2.5171,-2.5171,-2.5171,-2.5171,-2.395,-2.2791,-2.1859,0.0,0.0,0.0,0.0,0.0,0.0,0.0,0.0,0.0,0.0,0.0,0.0,0.0,0.0,0.0,0.0,0.0,0.0,0.0,0.0,0.0,0.0,0.0,0.0,0.0,0.0,0.0,0.0,0.0,0.0,0.0,0.0,0.0,0.0,0.0,0.0,0.0,0.0,0.0,0.0,0.0,0.0,0.0,0.0,0.0,0.0,0.0,0.0,0.0,0.0,0.0,0.0,0.0,0.0,0.0,0.0,0.0,0.0,0.0,0.0,-1.7854,-1.7636,0.0,0.0,0.0,0.0,0.0,0.0,0.0,0.0,0.0,0.0,0.0,0.0,0.0,0.0,0.0,0.0,0.0,0.0,0.0,0.0,0.0,0.0,0.0,0.0,0.0,0.0,0.0,0.0,0.0,0.0,0.0,0.0,0.0,0.0,0.0,0.0,0.0,0.0,0.0,0.0,-2.2232,-2.3722,-2.4685,-2.4685,-2.4685,-2.4685,-2.4685,-2.3764,-2.2791,-2.1859,-2.0938,0.0,0.0,0.0,0.0,0.0,0.0,0.0,0.0,0.0,0.0,0.0,0.0,0.0,0.0,0.0,0.0,0.0,0.0,0.0,0.0,0.0,0.0,0.0,0.0,0.0,0.0,0.0,0.0,0.0,0.0,0.0,0.0,0.0,0.0,0.0,0.0,0.0,0.0,0.0,0.0,0.0,0.0,0.0,0.0,0.0,0.0,0.0,0.0,0.0,0.0,0.0,0.0,0.0,0.0,0.0,0.0,0.0,0.0,0.0,-1.9292,-1.8713,0.0,0.0,0.0,0.0,0.0,0.0,0.0,0.0,0.0,0.0,0.0,0.0,0.0,0.0,0.0,0.0,0.0,0.0,0.0,0.0,0.0,0.0,0.0,0.0,0.0,0.0,0.0,0.0,0.0,0.0,0.0,0.0,0.0,0.0,0.0,0.0,0.0,0.0,0.0,0.0,-2.2377,-2.3691,-2.454,-2.454,-2.454,-2.454,-2.454,-2.3908,-2.3122,-2.2201,-2.1269,0.0,0.0,0.0,0.0,0.0,0.0,0.0,0.0,0.0,0.0,0.0,0.0,0.0,0.0,0.0,0.0,0.0,0.0,0.0,0.0,0.0,0.0,0.0,0.0,0.0,0.0,0.0,0.0,0.0,0.0,0.0,0.0,0.0,0.0,0.0,0.0,0.0,0.0,0.0,0.0,0.0,0.0,0.0,0.0,0.0,0.0,0.0,0.0,0.0,0.0,0.0,0.0,0.0,-2.1952,-2.2221,-2.2532,-2.2915,-2.308,-2.3008,-2.1487,-2.0596,-2.0224,-2.0069,0.0,0.0,0.0,0.0,0.0,0.0,0.0,0.0,0.0,0.0,0.0,0.0,0.0,0.0,0.0,0.0,0.0,0.0,0.0,0.0,0.0,0.0,-2.1455,-2.1373,-2.1714,-2.1611,-2.0006,0.0,0.0,0.0,0.0,0.0,0.0,0.0,0.0,0.0,0.0,0.0,-2.2501,-2.3743,-2.4571,-2.4567,-2.4592,-2.4571,-2.4654,-2.425,-2.3598,-2.2677,-2.1828,-2.0948,0.0,0.0,0.0,0.0,0.0,0.0,0.0,0.0,0.0,0.0,0.0,0.0,0.0,0.0,0.0,0.0,0.0,0.0,0.0,0.0,0.0,0.0,0.0,0.0,0.0,0.0,0.0,0.0,0.0,0.0,0.0,0.0,-1.7554,-1.7554,0.0,0.0,0.0,0.0,0.0,0.0,0.0,0.0,0.0,0.0,0.0,0.0,0.0,-2.1041,-2.1435,-2.308,-2.3971,-2.4105,-2.5285,-2.5668,-2.5347,-2.5399,-2.543,-2.542,-2.5181,0.0,-2.1747,-2.1056,0.0,0.0,0.0,0.0,0.0,0.0,0.0,0.0,0.0,0.0,0.0,0.0,0.0,0.0,0.0,0.0,0.0,0.0,0.0,0.0,0.0,0.0,-2.2811,-2.2408,-2.2666,-2.2832,-2.218,-2.1466,-2.0803,-2.0338,-1.9934,-1.9588,0.0,0.0,0.0,0.0,0.0,0.0,-2.2977,-2.3939,-2.4695,-2.5099,-2.4778,-2.4705,-2.5109,-2.4716,-2.4064,-2.3153,-2.2604,-2.1901,-2.0979,-2.012,0.0,0.0,0.0,0.0,0.0,0.0,0.0,0.0,0.0,0.0,0.0,0.0,0.0,0.0,0.0,0.0,0.0,0.0,0.0,0.0,0.0,0.0,0.0,0.0,0.0,0.0,0.0,0.0,0.0,-1.7533,-1.8009,-1.7761,-1.8185,-1.8288,0.0,0.0,0.0,0.0,0.0,0.0,0.0,0.0,0.0,-2.1662,-2.2822,-2.3764,-2.4478,-2.5792,-2.661,-2.6935,-2.7529,-2.7836,-2.7897,-2.7897,-2.7996,-2.8183,-2.7914,-2.6991,-2.54,-2.3412,-2.2288,-2.1675,0.0,0.0,0.0,0.0,-2.1424,-2.1631,-2.1963,-2.1901,-2.1714,-2.1849,0.0,0.0,0.0,0.0,0.0,0.0,0.0,-2.1901,-2.1963,-2.2956,-2.396,-2.4022,-2.4374,-2.4571,-2.4126,-2.3515,-2.2594,-2.1104,-2.0866,-2.0679,-1.9955,-1.9831,0.0,0.0,0.0,-2.2532,-2.3453,-2.4136,-2.4623,-2.4819,-2.4664,-2.4623,-2.483,-2.4664,-2.4271,-2.3619,-2.3143,-2.247,-2.1538,-2.0866,-2.04,0.0,0.0,0.0,0.0,0.0,0.0,0.0,0.0,0.0,0.0,0.0,0.0,0.0,0.0,0.0,0.0,0.0,0.0,0.0,0.0,0.0,0.0,0.0,0.0,0.0,0.0,0.0,0.0,-1.8195,-1.8692,-1.8143,-1.9189,-1.9541,0.0,0.0,0.0,0.0,0.0,0.0,-2.2118,-2.2708,-2.3443,-2.4374,-2.5616,-2.6651,-2.7438,-2.8235,-2.893,-2.9526,-2.9526,-2.9584,-2.9911,-2.9911,-2.9911,-3.0103,-2.9764,-2.9249,-2.8391,-2.5653,-2.4072,-2.331,-2.2814,-2.2598,-2.2628,-2.2936,-2.3018,-2.3101,-2.3681,-2.365,-2.335,-2.3236,-2.2801,-2.2159,-2.1238,0.0,0.0,0.0,0.0,-2.278,-2.3246,-2.4115,-2.4995,-2.5461,-2.5906,-2.6113,-2.5668,-2.5306,-2.4416,-2.2242,-2.1901,-2.1766,-2.1073,-2.0855,0.0,-2.1859,-2.2377,-2.2967,-2.3774,-2.426,-2.4592,-2.4705,-2.4612,-2.4592,-2.4705,-2.4612,-2.4405,-2.4074,-2.3619,-2.306,-2.2366,-2.1662,-2.1124,-2.0783,0.0,0.0,0.0,0.0,0.0,0.0,0.0,0.0,0.0,0.0,0.0,0.0,0.0,0.0,0.0,0.0,0.0,0.0,0.0,0.0,0.0,0.0,0.0,0.0,0.0,0.0,0.0,0.0,0.0,-1.9106,-2.0969,0.0,0.0,0.0,0.0,-2.2263,-2.2749,-2.3598,-2.4954,-2.5854,-2.6744,-2.7655,-2.8597,-2.9332,-2.9818,-3.0305,-3.0791,-3.1278,-3.1278,-3.1158,-3.0819,-3.0819,-3.0709,-3.0379,-3.0349,-3.0087,-2.9474,-2.7089,-2.595,-2.5541,-2.5023,-2.4686,-2.4645,-2.4506,-2.4436,-2.4385,-2.4012,-2.3867,-2.3981,-2.4819,-2.4498,-2.3598,-2.2677,-2.2097,0.0,0.0,-2.2439,-2.3256,-2.3722,-2.4819,-2.5927,-2.6392,-2.6858,-2.7065,-2.6599,-2.6486,-2.5927,-2.4095,-2.3049,-2.2449,-2.2397,0.0,-2.1901,-2.2387,-2.2853,-2.3329,-2.3815,-2.426,-2.4705,-2.515,-2.4809,-2.4716,-2.5161,-2.4799,-2.4529,-2.4509,-2.4084,-2.3826,-2.3774,-2.248,-2.1756,-2.1735,-2.0866,0.0,0.0,0.0,0.0,0.0,0.0,0.0,0.0,0.0,0.0,0.0,0.0,0.0,0.0,0.0,0.0,0.0,0.0,0.0,0.0,0.0,0.0,0.0,0.0,0.0,0.0,0.0,0.0,-2.1756,-2.3463,0.0,-2.3174,-2.3494,-2.4012,-2.4623,-2.5378,-2.6279,-2.7345,-2.7997,-2.8752,-2.9673,-3.037,-3.0816,-3.1079,-3.1697,-3.2014,-3.1665,-3.1902,-3.1778,-3.1428,-3.1428,-3.1542,-3.1635,-3.1115,-3.0903,-3.0772,-2.9525,-2.8228,-2.6931,-2.6542,-2.6138,-2.5845,-2.5776,-2.5908,-2.6141,-2.6176,-2.6023,-2.5685,-2.532,-2.4809,-2.424,-2.3908,-2.3908,-2.4012,-2.4012,-2.4447,-2.5026,-2.5492,-2.5958,-2.6434,-2.69,-2.7138,-2.721,-2.7044,-2.6786,-2.6382,-2.574,-2.4643,-2.3629,-2.3039,-2.2801,-2.2853,-2.3318,-2.3525,-2.3795,-2.425,-2.4447,-2.4516,-2.4767,-2.4643,-2.4612,-2.4778,-2.4633,-2.454,-2.454,-2.4126,-2.3743,-2.3443,-2.2677,-2.2108,-2.1818,-2.1476,-2.1818,0.0,0.0,0.0,0.0,0.0,0.0,0.0,0.0,0.0,0.0,0.0,0.0,0.0,0.0,0.0,0.0,0.0,0.0,0.0,0.0,0.0,0.0,0.0,0.0,0.0,0.0,-2.3525,-2.368,-2.5527,-2.627,-2.5365,-2.5919,-2.662,-2.722,-2.7976,-2.8876,-2.9733,-3.0188,-3.0884,-3.1684,-3.1922,-3.2023,-3.2251,-3.2615,-3.2444,-3.2018,-3.2133,-3.1903,-3.1672,-3.1672,-3.1682,-3.1777,-3.1257,-3.1127,-3.1335,-3.0807,-2.9789,-2.8535,-2.8184,-2.7593,-2.715,-2.7249,-2.7438,-2.7669,-2.7778,-2.7682,-2.7252,-2.6311,-2.5743,-2.543,-2.5197,-2.516,-2.5273,-2.5451,-2.5795,-2.6331,-2.6724,-2.7024,-2.7334,-2.7645,-2.7717,-2.7717,-2.7717,-2.7355,-2.6982,-2.6827,-2.5823,-2.4757,-2.4002,-2.3877,-2.3929,-2.4084,-2.424,-2.4436,-2.4736,-2.4902,-2.4995,-2.4995,-2.4861,-2.4778,-2.4778,-2.4633,-2.4478,-2.4322,-2.4043,-2.367,-2.3205,-2.2739,-2.2356,-2.2045,-2.2185,-2.2467,-2.3094,0.0,0.0,0.0,0.0,0.0,0.0,0.0,0.0,0.0,0.0,0.0,0.0,0.0,0.0,0.0,0.0,0.0,0.0,0.0,0.0,0.0,0.0,0.0,-2.1952,-2.3238,-2.4395,-2.4862,-2.6886,-2.7893,-2.7028,-2.8027,-2.9114,-3.0015,-3.0512,-3.1241,-3.2102,-3.2529,-3.294,-3.3564,-3.3166,-3.3059,-3.3399,-3.2687,-3.2357,-3.2278,-3.1913,-3.1672,-3.1325,-3.1325,-3.1112,-3.0889,-3.0889,-3.0889,-3.0889,-3.0889,-3.0615,-3.0117,-2.9949,-2.9313,-2.8548,-2.8869,-2.8778,-2.8569,-2.8549,-2.8638,-2.8466,-2.7717,-2.7472,-2.722,-2.6505,-2.5972,-2.5625,-2.5877,-2.6434,-2.7037,-2.7303,-2.7955,-2.8618,-2.8618,-2.8618,-2.8618,-2.8618,-2.8245,-2.779,-2.7365,-2.6548,-2.5782,-2.5326,-2.5254,-2.5099,-2.4654,-2.4964,0.0,-2.5254,-2.5616,-2.5875,-2.5854,-2.5482,-2.5223,-2.5213,-2.4788,-2.4333,-2.3908,-2.3857,-2.3629,-2.3184,-2.2718,-2.248,-2.248,-2.2788,-2.3116,-2.3315,0.0,0.0,0.0,0.0,0.0,0.0,0.0,0.0,0.0,0.0,0.0,0.0,0.0,0.0,0.0,0.0,0.0,0.0,0.0,0.0,0.0,-2.221,-2.351,-2.3722,-2.5665,-2.7313,-2.8086,-2.9475,-3.0358,-3.0669,-3.0792,-3.1035,-3.1513,-3.2045,-3.234,-3.2357,-3.3044,-3.334,-3.3215,-3.3185,-3.3014,-3.2805,-3.2685,-3.2346,-3.2036,-3.1948,-3.1672,-3.1325,-3.1325,-3.1218,-3.1218,-3.1005,-3.1005,-3.1218,-3.1005,-3.0615,-3.0176,-3.0167,-2.9744,-2.9262,-2.9372,-2.9321,-2.9076,-2.8425,-2.8297,-2.8431,-2.7875,-2.7852,-2.7938,-2.7717,-2.7594,-2.7492,-2.7765,-2.7863,-2.787,-2.8146,-2.8431,-2.8618,-2.8618,-2.8618,-2.8618,-2.8618,-2.8245,-2.7883,-2.7769,-2.7272,-2.663,-2.5834,-2.5699,-2.5658,-2.5523,-2.5616,-2.5699,-2.5699,-2.5802,-2.5761,-2.544,-2.5306,-2.5099,-2.4757,-2.4322,-2.4012,-2.3888,-2.3246,-2.2822,-2.2687,-2.2242,-2.1994,-2.1994,-2.2098,-2.2691,0.0,0.0,0.0,0.0,0.0,0.0,0.0,0.0,0.0,0.0,0.0,0.0,0.0,0.0,0.0,0.0,0.0,0.0,0.0,0.0,0.0,0.0,-2.3734,-2.5512,-2.6266,-2.76,-2.885,-3.0097,-3.099,-3.1742,-3.2311,-3.2351,-3.2431,-3.2849,-3.3102,-3.3195,-3.3014,-3.3468,-3.368,-3.3683,-3.347,-3.3371,-3.3291,-3.269,-3.2384,-3.2246,-3.1632,-3.1434,-3.1368,-3.1191,-3.1112,-3.1102,-3.1005,-3.0995,-3.1102,-3.1005,-3.0732,-3.0469,0.0,0.0,0.0,0.0,-2.9629,-2.9172,-2.8834,-2.87,-2.8709,-2.8251,-2.8257,-2.831,-2.8208,-2.7965,-2.7915,-2.8328,-2.836,-2.8411,-2.8806,-2.9052,-2.9197,-2.9197,-2.9197,-2.9197,-2.9197,-2.868,-2.8214,-2.8214,-2.7696,0.0,-2.6548,-2.6299,-2.6103,-2.5906,-2.6041,-2.6165,-2.6165,-2.633,-2.6289,-2.5844,-2.5616,-2.5316,-2.4871,-2.4416,0.0,0.0,0.0,-2.2987,-2.2791,-2.2532,0.0,0.0,0.0,-2.2977,-2.4142,-2.452,0.0,0.0,-2.7021,-2.7632,0.0,0.0,0.0,0.0,0.0,0.0,0.0,0.0,0.0,0.0,0.0,0.0,0.0,0.0,0.0,0.0,-2.5505,-2.7753,-2.9136,-2.9094,-2.9618,-3.1285,-3.187,-3.2326,-3.2802,-3.3044,-3.3316,-3.389,-3.392,-3.3843,-3.3971,-3.3933,0.0,0.0,0.0,-3.3709,-3.4288,-3.2996,-3.2348,-3.2571,-3.1476,-3.1152,-3.1504,-3.1084,-3.0889,-3.0889,-3.0889,-3.0889,-3.0889,-3.0889,-3.0889,-3.084,-3.0371,-3.0094,-3.0095,-3.0248,-2.9848,-2.9226,-2.9567,0.0,0.0,-2.8727,-2.8575,-2.8455,-2.8143,-2.7865,-2.765,-2.8178,-2.8472,-2.8662,-2.9178,-2.9684,-2.9994,-2.9994,-2.9994,-2.9984,-2.9922,-2.927,-2.8659,-2.8556,-2.7883,-2.7324,-2.7272,-2.692,-2.6506,-2.6092,-2.6382,-2.6641,-2.6641,-2.7003,-2.7086,-2.662,-2.6196,0.0,-2.5275,-2.4809,-2.4353,-2.3908,-2.3826,-2.3619,-2.3205,-2.3184,-2.3184,-2.3184,-2.3184,-2.3556,-2.4298,-2.4364,-2.4859,-2.5804,-2.7197,-2.7964,0.0,0.0,0.0,0.0,0.0,0.0,0.0,0.0,0.0,0.0,0.0,0.0,0.0,0.0,0.0,-2.4859,-2.679,-2.8604,-3.027,-3.1093,-3.1652,-3.2336,-3.2519,-3.3099,-3.413,-3.3631,-3.3601,-3.4425,-3.4465,-3.4368,-3.4073,-3.4576,-3.4764,-3.4211,-3.4044,-3.3819,-3.3554,-3.3054,-3.2676,-3.2779,-3.1807,0.0,-3.1504,-3.1084,-3.0889,-3.0889,-3.0889,-3.0889,-3.0889,-3.0889,-3.0889,-3.084,-3.0371,-3.0146,-3.0152,-2.9809,-2.9685,-2.9498,-2.9123,-2.8751,-2.8398,-2.8398,-2.8455,-2.8608,-2.8608,-2.8549,0.0,-2.9194,-2.9056,-2.881,-2.9431,-2.9597,-2.9659,-2.9659,-2.9879,-2.9891,-2.9518,-2.9301,-2.8949,-2.8204,-2.7914,-2.7686,-2.7324,-2.7179,-2.7096,-2.7003,-2.7076,-2.7127,-2.7127,-2.72,-2.7086,-2.662,-2.6486,-2.6103,-2.5306,-2.4809,-2.4353,-2.3908,-2.3525,-2.3277,-2.3194,-2.3184,-2.3184,-2.3184,-2.3184,-2.3556,-2.4298,-2.4781,-2.5769,-2.718,-2.6792,-2.7025,0.0,0.0,0.0,0.0,0.0,0.0,0.0,0.0,0.0,0.0,0.0,-2.0332,-2.1611,0.0,-2.5088,-2.7021,-2.8603,-3.0049,-3.1348,-3.208,-3.2603,-3.2716,-3.2976,-3.3485,-3.426,-3.4005,-3.4054,-3.4605,-3.4644,-3.4546,-3.4082,-3.4593,-3.473,-3.4394,-3.4385,-3.4277,-3.4062,-3.3428,-3.3105,-3.3096,-3.2246,-3.1953,-3.2139,-3.1494,-3.1201,-3.1191,-3.0986,-3.0889,-3.0869,-3.0644,-3.042,-3.0185,-2.9736,-2.9824,-3.0176,-2.9961,-2.9756,-2.957,-2.956,-2.9141,-2.8603,-2.8603,-2.8721,-2.879,-2.8573,-2.8662,-2.8888,-2.9096,-2.894,-2.8834,-2.9248,-2.9343,-2.9343,-2.9554,-2.9669,-2.9713,-2.9486,-2.9178,-2.8724,-2.8171,-2.7806,-2.7593,-2.7593,-2.7407,-2.7262,-2.7262,-2.7262,-2.7262,-2.7262,-2.7262,-2.7086,-2.662,-2.6568,-2.6299,-2.5616,-2.515,-2.4695,-2.424,-2.3991,-2.3867,-2.3867,-2.3867,-2.3867,-2.3867,-2.3867,-2.4013,-2.4395,-2.4721,-2.5243,-2.6043,-2.5563,-2.6611,0.0,0.0,0.0,0.0,0.0,0.0,0.0,0.0,-1.918,-2.0195,-2.1318,-2.2588,-2.4131,-2.5771,-2.7383,-2.8916,-3.0273,-3.1406,-3.2187,-3.2656,-3.292,-3.292,-3.3213,-3.3662,-3.4267,-3.4101,-3.4199,-3.4795,-3.4746,-3.459,-3.4346,-3.4726,-3.4873,-3.4707,-3.4697,-3.4619,-3.4453,-3.376,-3.3418,-3.3418,-3.2734,-3.2549,-3.2764,-3.1992,-3.1601,-3.1494,-3.1074,-3.0889,-3.0859,-3.0488,-3.0137,-2.9785,-2.9336,-2.9648,-3.0312,-3.0137,-2.9912,-2.9736,-3.0078,-2.9639,-2.8916,-2.8916,-2.8867,-2.875,-2.8496,-2.8594,-2.874,-2.8828,-2.869,-2.8727,-2.893,-2.9026,-2.9112,-2.9232,-2.9387,-2.9503,-2.9329,-2.8962,-2.8623,-2.8167,-2.7744,-2.7548,-2.7899,-2.7686,-2.7386,-2.7386,-2.7386,-2.7386,-2.7386,-2.7386,-2.7251,-2.6868,-2.6755,-2.6517,-2.6051,-2.5616,-2.5192,-2.483,-2.4799,-2.4799,-2.4799,-2.4716,-2.4674,-2.4674,-2.4592,-2.454,-2.454,-2.4633,-2.4708,-2.4786,-2.488,-2.6346,-1.8488,-1.8952,-1.9129,-1.9191,-1.9412,-2.0293,0.0,0.0,-2.2471,-2.4092,-2.4853,-2.5527,-2.6475,-2.7744,-2.8945,-2.9902,-3.1162,-3.2187,-3.2656,-3.3086,-3.335,-3.335,-3.3389,-3.3906,-3.5127,-3.418,-3.4004,-3.5225,-3.4932,-3.4863,-3.5225,-3.5644,-3.5517,-3.4717,-3.4697,-3.4336,-3.3574,-3.3467,-3.3418,-3.3418,-3.333,-3.3105,-3.2773,-3.2305,-3.1885,-3.1494,-3.1074,-3.0889,-3.0889,-3.083,-3.0791,-3.0693,-3.0234,-3.0361,-3.0723,-2.9932,-2.9844,-3.0137,-3.0176,-2.9639,-2.8916,-2.8916,-2.8672,-2.8428,-2.875,-2.8623,-2.8545,-2.9115,-2.8819,-2.8408,-2.8727,-2.8727,-2.8628,-2.8326,-2.8735,-2.8921,-2.8136,-2.8498,-2.8854,-2.7965,-2.7945,-2.8105,-2.8145,-2.7965,-2.7852,-2.7852,-2.7852,-2.7852,-2.7852,-2.7852,-2.7831,-2.7779,-2.7417,-2.6993,-2.6527,-2.6072,-2.5782,-2.573,-2.573,-2.573,-2.573,-2.5357,-2.5161,-2.5161,-2.4747,-2.454,-2.454,-2.4954,-2.5356,-2.5673,-2.6107,-2.6245,-1.9546,-2.0205,-2.0547,0.0,-2.1684,-2.2519,-2.3848,-2.4072,-2.4424,-2.5898,-2.6748,-2.7559,-2.8662,-2.9726,-3.0713,0.0,-3.2383,-3.2959,-3.3135,-3.331,-3.3418,-3.3418,-3.3418,-3.374,-3.4551,-3.4131,-3.4248,-3.5312,-3.5215,-3.5185,-3.5381,-3.5791,-3.5742,-3.5127,-3.5342,-3.5176,-3.458,-3.4297,-3.417,-3.416,-3.3916,-3.3711,-3.3525,-3.3096,-3.2393,-3.1494,-3.1074,-3.0889,-3.0869,-3.0596,-3.0488,-3.0449,-3.0,-3.0098,-3.0439,-3.0068,-3.0215,-3.0566,-3.0293,-2.9805,-2.9258,-2.9004,-2.8799,-2.8643,-2.8574,-2.8603,-2.8643,-2.8702,-2.8545,-2.8291,-2.8408,-2.8514,-2.8465,-2.8489,-2.8694,-2.8734,-2.8366,-2.8575,-2.8545,-2.8071,-2.8107,-2.8218,-2.837,-2.8338,-2.8322,-2.85,-2.8404,-2.8235,-2.7966,-2.8152,-2.8224,-2.7955,-2.7759,-2.7355,-2.663,-2.6392,-2.6165,-2.5896,-2.5875,-2.5875,-2.5875,-2.5699,-2.5606,-2.5606,-2.542,-2.5316,-2.5316,-2.5513,-2.567,-2.5812,-2.6013,-2.6091,-1.9585,0.0,0.0,-2.1636,-2.2762,-2.4038,-2.4814,-2.5528,-2.6328,-2.7627,-2.8389,-2.9141,-3.0195,-3.1103,-3.1894,-3.2519,-3.3076,-3.3418,-3.3418,-3.332,-3.3203,-3.3086,-3.2969,-3.3066,-3.3506,-3.376,-3.4307,-3.5322,-3.5273,-3.5303,-3.5557,-3.585,-3.583,-3.54,-3.5566,-3.5449,-3.5029,-3.458,-3.4414,-3.4521,-3.4219,-3.4004,-3.3867,-3.3203,-3.2324,-3.1328,-3.1025,-3.0889,-3.0859,-3.0527,-3.0391,-3.0361,-3.0049,-3.0117,-3.0371,-3.0244,-3.0488,-3.082,-3.0361,-2.9922,-2.9502,-2.9062,-2.8838,-2.8711,-2.8525,-2.8594,-2.8711,-2.8525,-2.8389,-2.8291,-2.8291,-2.8291,-2.8368,-2.8367,-2.8542,-2.8591,-2.8473,-2.84,-2.8346,-2.8147,-2.8111,-2.8258,-2.8495,-2.8604,-2.8655,-2.892,-2.8799,-2.8623,-2.8359,-2.8597,-2.8535,-2.7821,-2.7852,-2.7614,-2.6827,-2.6755,-2.662,-2.6279,-2.6258,-2.6258,-2.6258,-2.6134,-2.6072,-2.598,-2.5947,-2.5885,-2.5795,-2.6009,-2.6009,-2.5875,-2.6009,-2.5999,0.0,0.0,-2.0554,-2.0012,-2.1884,-2.4354,-2.5961,-2.7318,-2.8555,-2.9834,-3.0117,-3.0293,-3.0781,-3.1572,-3.2158,-3.2187,-3.2881,-3.3418,-3.3418,-3.3066,-3.2666,-3.2256,-3.1836,-3.1748,0.0,-3.2959,-3.3984,-3.5293,-3.498,-3.5098,-3.5957,-3.6016,-3.583,-3.54,-3.4961,-3.4541,-3.4121,-3.3682,-3.3672,-3.4092,-3.4082,-3.3848,-3.3398,-3.2148,-3.1328,-3.0908,-3.0898,-3.0889,-3.0889,-3.0869,-3.0869,-3.0869,-3.0859,-3.0859,-3.081,-3.0361,-3.0488,-3.082,-3.0361,-2.9922,-2.9502,-2.9062,-2.8643,-2.8389,-2.8779,-2.8623,-2.8398,-2.8789,-2.8603,-2.8291,-2.8291,-2.8291,-2.8193,-2.7783,-2.7998,-2.8184,-2.7773,-2.7998,-2.8271,-2.8271,-2.814,-2.8192,-2.8638,-2.856,-2.8609,-2.9041,-2.9102,-2.914,-2.9219,-2.927,-2.8773,-2.7417,-2.7665,-2.7738,-2.7272,-2.7241,-2.7231,-2.722,-2.722,-2.722,-2.722,-2.6786,-2.6465,-2.6196,-2.6022,-2.5795,-2.5533,-2.6238,-2.632,-2.5885,-2.6341,-2.6299,-2.0464,0.0,-2.306,-2.3911,-2.5711,-2.7485,-2.8611,-2.9215,-2.9678,-3.0107,-2.9746,-2.9394,-2.9551,-3.0059,-3.0635,-3.1221,-3.2266,-3.3105,-3.3379,-3.3301,-3.2842,-3.1855,-3.1865,0.0,0.0,0.0,0.0,-3.4424,-3.4629,-3.4961,-3.5566,-3.5605,-3.5537,-3.54,-3.4941,-3.4629,-3.4492,-3.4072,-3.4072,-3.4482,-3.3916,-3.3564,-3.3379,-3.21,-3.1435,-3.1289,-3.1016,-3.0889,-3.0869,-3.0557,-3.043,-3.04,-3.0127,-3.001,-3.0,-2.9834,-2.9883,-2.9951,-2.9502,-2.9258,-2.9072,-2.8643,-2.8408,-2.832,-2.8457,-2.8408,-2.832,-2.8467,-2.8398,-2.8291,-2.8291,-2.8291,-2.8262,-2.8115,-2.8193,-2.8252,-2.8115,-2.8193,-2.8291,-2.8291,-2.8396,-2.8453,-2.8485,-2.8704,-2.8961,-2.9112,-2.888,-2.8854,-2.911,-2.8971,-2.8625,-2.8167,-2.8249,-2.8157,-2.7699,-2.7768,-2.7645,-2.7242,-2.7416,-2.7283,-2.6794,-2.6632,-2.6561,-2.6676,-2.6607,-2.6535,-2.6441,-2.6867,-2.6763,-2.6327,-2.6867,-2.6857,-2.1914,-2.2841,-2.3833,-2.5353,-2.6777,-2.791,-2.8564,-2.8855,-2.9091,-2.9412,-2.8706,-2.809,-2.8388,-2.8701,-2.9011,-2.9382,-3.0539,-3.1599,-3.2104,-3.2361,-3.2324,-3.1807,-3.1865,-3.1787,0.0,0.0,0.0,-3.376,-3.4228,-3.4746,-3.5361,-3.5234,-3.5225,-3.5391,-3.4795,-3.4482,-3.4482,-3.4209,-3.4131,-3.4238,-3.3535,-3.3037,-3.2705,-3.1738,-3.1299,-3.1279,-3.1006,-3.0889,-3.0859,-3.0391,-3.0195,-3.0156,-2.9736,-2.957,-2.9551,-2.9394,-2.9336,-2.9297,-2.9014,-2.8916,-2.8848,-2.8428,-2.8291,-2.8291,-2.8291,-2.8291,-2.8291,-2.8291,-2.8291,-2.8291,-2.8291,-2.8291,-2.8291,-2.8291,-2.8291,-2.8291,-2.8291,-2.8291,-2.8291,-2.8291,-2.8408,-2.8514,-2.8291,-2.8611,-2.8814,-2.8814,-2.8585,-2.855,-2.889,-2.879,-2.8599,-2.8389,-2.85,-2.841,-2.7955,-2.8127,-2.8005,-2.7402,-2.7689,-2.7486,-2.6748,-2.6825,-2.6851,-2.6602,-2.6699,-2.6699,-2.6592,-2.6986,-2.6986,-2.6699,-2.7071,-2.7167,-2.2469,-2.282,-2.3004,-2.4372,-2.5111,-2.5667,-2.6001,-2.6521,-2.7201,-2.7858,-2.7149,-2.671,0.0,0.0,-2.7429,-2.6896,-2.8067,-2.9331,-3.0026,-3.0677,-3.1328,0.0,0.0,0.0,0.0,0.0,0.0,-3.3359,-3.3828,-3.4443,-3.5283,-3.4912,-3.4863,-3.5312,-3.4492,-3.4033,-3.4033,-3.4023,-3.3809,-3.3418,-3.2949,-3.2305,-3.1504,-3.1084,-3.0889,-3.0889,-3.0889,-3.0889,-3.0859,-3.0391,-3.0195,-3.0156,-2.9736,-2.957,-2.9521,-2.9101,-2.8935,-2.8926,-2.8945,-2.8926,-2.8818,-2.8418,-2.8291,-2.8291,-2.8291,-2.8291,-2.8291,-2.8291,-2.8291,-2.8291,-2.8291,-2.8291,-2.8291,-2.8291,-2.8291,-2.8291,-2.8291,-2.8291,-2.8291,-2.8291,-2.8291,-2.8291,-2.8291,-2.8291,-2.8291,-2.8291,-2.8291,-2.8357,-2.8465,-2.8775,-2.881,-2.8289,-2.8584,-2.8676,-2.8238,-2.8208,-2.8077,-2.7814,-2.8046,-2.7843,-2.7061,-2.7347,-2.7144,-2.613,-2.64,-2.639,-2.61,-2.6602,-2.69,-2.6805,-2.7167,-2.7262,-2.2696,-2.3802,-2.4925,-2.5454,-2.6262,-2.696,-2.7052,-2.7262,-2.7371,-2.6918,-2.634,-2.5746,0.0,0.0,0.0,-2.7786,-2.9886,0.0,-3.2401,-3.3,0.0,-3.2256,0.0,-3.1924,-3.1709,-3.1982,0.0,0.0,-3.3828,-3.417,-3.4404,-3.4297,-3.4287,-3.4404,-3.3877,-3.3584,-3.3584,-3.3281,-3.3223,-3.3408,-3.2344,-3.1728,-3.1504,-3.1084,-3.0889,-3.0889,-3.0889,-3.0889,-3.0859,-3.0391,-3.0195,-3.0156,-2.9736,-2.957,-2.956,-2.9443,-2.9199,-2.8965,-2.9287,-2.8984,-2.8437,-2.833,-2.8291,-2.8291,-2.8291,-2.8291,-2.8291,-2.8291,-2.8291,-2.8291,-2.8291,-2.8291,-2.8291,-2.8291,-2.8291,-2.8291,-2.8291,-2.8291,-2.8291,-2.8291,-2.8291,-2.8291,-2.8291,-2.8291,-2.8291,-2.8291,-2.8291,-2.8359,-2.8357,-2.8436,-2.8426,-2.8305,-2.8384,-2.8404,-2.8295,-2.8505,-2.8217,-2.754,-2.8126,-2.7965,-2.6874,-2.6943,-2.6893,-2.6586,-2.6366,-2.6197,-2.61,-2.64,-2.641,-2.6024,-2.6496,-2.6688,-2.3707,-2.4603,-2.5304,-2.5848,-2.5953,-2.5927,-2.5461,-2.536,-2.5345,-2.4861,-2.428,0.0,-2.4074,0.0,0.0,0.0,0.0,0.0,-3.1462,-3.2574,-3.3184,0.0,-3.3164,0.0,-3.2939,-3.3135,-3.3476,0.0,-3.3857,-3.3955,-3.4326,-3.3994,-3.3877,-3.4062,-3.3643,-3.3516,-3.3711,-3.3281,-3.3096,-3.3135,-3.2422,-3.1885,-3.1514,-3.1269,-3.1162,-3.1152,-3.0976,-3.0889,-3.0859,-3.0391,-3.0195,-3.0156,-2.9736,-2.957,-2.957,-2.957,-2.9414,-2.9238,-2.9482,-2.9258,-2.8818,-2.8633,-2.8564,-2.8535,-2.835,-2.8291,-2.8291,-2.8291,-2.8291,-2.8291,-2.8291,-2.8291,-2.8291,-2.8291,-2.8437,-2.8564,-2.8564,-2.8564,-2.8516,-2.833,-2.8437,-2.8506,-2.833,-2.8291,-2.8291,-2.8291,-2.8291,-2.8291,-2.8291,-2.8291,-2.8408,-2.8514,-2.8514,-2.8514,-2.8514,-2.8621,-2.8414,-2.7796,-2.8326,-2.8157,-2.7147,-2.733,-2.7151,-2.6675,-2.633,-2.6114,-2.5917,-2.6207,-2.6197,-2.5917,-2.6304,-2.6496,-2.4921,-2.513,-2.4878,-2.5703,-2.494,-2.3654,-2.2762,-2.2488,-2.2472,-2.2532,0.0,-2.1763,-2.3332,-2.3211,-2.3208,-2.4378,0.0,-2.8208,-2.9601,-3.1121,-3.2574,-3.3935,-3.4303,-3.4425,-3.4697,-3.4517,-3.4367,-3.4425,-3.3698,-3.3591,-3.4658,-3.3935,-3.3682,-3.4062,-3.3643,-3.3633,-3.4072,-3.3584,-3.3184,-3.2871,-3.2764,-3.2324,-3.1601,-3.1601,-3.1572,-3.1494,-3.1133,-3.0947,-3.0859,-3.0459,-3.0293,-3.0254,-2.9893,-2.9746,-2.9746,-2.9746,-2.9707,-2.9658,-2.9726,-2.9707,-2.958,-2.915,-2.9004,-2.8935,-2.8574,-2.8457,-2.8457,-2.8457,-2.8418,-2.8379,-2.8379,-2.8379,-2.8379,-2.8379,-2.8701,-2.9004,-2.9004,-2.8955,-2.8809,-2.8447,-2.8623,-2.8721,-2.8359,-2.834,-2.8359,-2.8301,-2.834,-2.8359,-2.8301,-2.8291,-2.8408,-2.8621,-2.8631,-2.8631,-2.8631,-2.8631,-2.8495,-2.8319,-2.8591,-2.8433,-2.779,-2.7959,-2.7604,-2.6572,-2.6504,-2.6289,-2.5908,-2.6025,-2.6093,-2.619,-2.6334,-2.64,-2.4945,-2.5209,-2.5286,-2.5226,-2.4003,-2.2769,-2.2352,-2.2088,0.0,0.0,-2.148,-2.1876,-2.263,-2.2171,-2.2894,-2.6481,0.0,0.0,0.0,0.0,-3.2356,0.0,0.0,0.0,0.0,0.0,0.0,0.0,-3.2524,-3.2982,-3.4668,-3.4228,-3.3994,-3.4072,-3.3643,-3.3633,-3.4072,-3.3291,-3.3037,-3.3301,-3.2607,-3.2197,-3.206,-3.206,-3.1865,-3.1514,-3.1435,-3.1211,-3.0889,-3.0801,-3.0771,-3.0762,-3.0693,-3.0664,-3.0664,-3.0664,-3.042,-3.0137,-3.0527,-3.041,-3.0019,-2.959,-2.9453,-2.9443,-2.9375,-2.9346,-2.9346,-2.9346,-2.9092,-2.8809,-2.8809,-2.8809,-2.8809,-2.8809,-2.9141,-2.9453,-2.9453,-2.917,-2.8896,-2.8818,-2.8584,-2.8379,-2.8301,-2.8584,-2.8691,-2.834,-2.8584,-2.8682,-2.834,-2.8291,-2.8291,-2.8398,-2.8408,-2.8408,-2.8408,-2.8408,-2.8251,-2.8107,-2.8423,-2.8433,-2.7989,-2.8063,-2.789,-2.7451,-2.709,-2.6875,-2.6797,-2.6445,-2.6369,-2.6359,-2.6006,-2.5917,-2.522,-2.5293,-2.5205,-2.4883,-2.3457,-2.1928,-2.1108,0.0,0.0,0.0,-1.9971,-2.0642,-2.0851,0.0,0.0,0.0,0.0,0.0,0.0,0.0,0.0,0.0,0.0,0.0,0.0,0.0,-3.1487,-3.1469,-3.1105,-3.1724,-3.3473,-3.3236,-3.3182,-3.374,-3.2871,-3.2734,-3.373,-3.333,-3.3115,-3.3096,-3.291,-3.2705,-3.249,-3.249,-3.2266,-3.1846,-3.1621,-3.1279,-3.0889,-3.0889,-3.0889,-3.0889,-3.0889,-3.0889,-3.0889,-3.0889,-3.0752,-3.0557,-3.0537,-3.0381,-3.0166,-2.9961,-2.9746,-2.9531,-2.9297,-2.9238,-2.9238,-2.9238,-2.9248,-2.9258,-2.9258,-2.9258,-2.9258,-2.9258,-2.959,-2.9834,-2.9619,-2.958,-2.9453,-2.9004,-2.8935,-2.8955,-2.8955,-2.8935,-2.8848,-2.8652,-2.8603,-2.8525,-2.832,-2.8291,-2.8291,-2.8291,-2.8291,-2.8291,-2.8291,-2.8291,-2.831,-2.8209,-2.8396,-2.8416,-2.8209,-2.8199,-2.8091,-2.7676,-2.7461,-2.7236,-2.7012,-2.6816,-2.6709,-2.6709,-2.6504,-2.6378,-2.5447,-2.5352,-2.5059,-2.4664,-2.3018,-2.1181,-2.0025,-1.9865,0.0,0.0,-1.851,-1.9115,-1.9239,0.0,0.0,0.0,-2.3302,0.0,0.0,0.0,0.0,0.0,0.0,0.0,0.0,0.0,0.0,-2.9986,-2.9623,-3.0209,-3.1862,-3.1806,-3.1937,-3.2787,-3.1893,-3.1975,-3.3037,-3.334,-3.3126,-3.2546,-3.2738,-3.2729,-3.2536,-3.2536,-3.239,-3.2148,-3.1807,-3.1367,-3.0889,-3.0889,-3.0889,-3.0889,-3.0889,-3.0889,-3.0889,-3.0889,-3.0889,-3.084,-3.0478,-3.0342,-3.0342,-3.0342,-3.0059,-2.9639,-2.9297,-2.9258,-2.9316,-2.9219,-2.9443,-2.9707,-2.9707,-2.9707,-2.9726,-2.9824,-3.0107,-3.0254,-2.9922,-3.0029,-3.0,-2.9326,-2.9394,-2.957,-2.957,-2.9365,-2.916,-2.9072,-2.8779,-2.8525,-2.8437,-2.835,-2.8291,-2.8291,-2.8291,-2.8291,-2.8291,-2.8291,-2.8291,-2.8291,-2.8291,-2.8291,-2.8291,-2.8291,-2.8135,-2.7803,-2.7803,-2.7637,-2.7285,-2.7197,-2.7158,-2.7148,-2.706,-2.6836,-2.5447,-2.5513,-2.5337,-2.4723,-2.2674,-2.0625,-1.9923,0.0,0.0,-1.7771,-1.7525,-1.7746,-1.8888,0.0,0.0,0.0,-2.1618,-2.2378,0.0,0.0,0.0,0.0,0.0,0.0,0.0,-2.9534,-2.851,-2.8478,-2.8149,-2.8631,-3.0131,-3.0442,-3.0597,-3.0689,-3.1405,-3.1863,-3.2003,-3.2957,-3.2746,-3.1396,-3.1433,-3.1423,-3.1396,-3.1396,-3.1756,-3.2168,-3.2129,-3.165,-3.0889,-3.0889,-3.0889,-3.0889,-3.0889,-3.0889,-3.0889,-3.0889,-3.0889,-3.0889,-3.084,-3.083,-3.083,-3.083,-3.0518,-3.0137,-3.0088,-3.0371,-3.0625,-3.0195,-3.0107,-3.0137,-3.0137,-3.0137,-3.0244,-3.0664,-3.0801,-3.082,-3.0781,-3.0469,-3.0176,-3.0098,-2.9805,-2.957,-2.957,-2.9853,-2.9951,-2.957,-2.9473,-2.9316,-2.8916,-2.8525,-2.8291,-2.8291,-2.8291,-2.8291,-2.8291,-2.8291,-2.8291,-2.8291,-2.8291,-2.8291,-2.8291,-2.8291,-2.8271,-2.8232,-2.8232,-2.8213,-2.8174,-2.7793,-2.7607,-2.7598,-2.7197,-2.6992,-2.4993,-2.5249,-2.5088,-2.4437,-2.2337,-2.0208,-1.9367,0.0,-1.7471,-1.6468,-1.6769,-1.7122,-1.6891,-1.6896,-1.7318,-1.8556,-1.9145,-2.0157,-2.1779,0.0,0.0,0.0,0.0,0.0,0.0,0.0,-2.6588,-2.6391,-2.6254,-2.6441,-2.6972,-2.8301,-2.9332,-2.9918,-2.9708,-2.9901,-3.0478,-3.0987,-3.0906,-3.0373,-3.0135,-3.0153,-3.0364,-3.0791,-3.0914,-3.1011,-3.1513,-3.094,-2.9658,-2.9658,-2.9294,-2.8683,-2.9412,-2.9658,-2.9785,-3.0635,-3.0889,-3.085,-3.0576,-3.0478,-3.0478,-3.0478,-3.0342,-3.0195,-3.0195,-3.0322,-3.043,-3.0244,-3.04,-3.0615,-3.0615,-3.0615,-3.0664,-3.085,-3.0889,-3.081,-3.0537,-3.0332,-3.0195,-3.0195,-3.0059,-3.0039,-3.0312,-3.0273,-3.0137,-2.9971,-2.9736,-2.9502,-2.9336,-2.917,-2.8955,-2.8701,-2.8437,-2.8291,-2.8291,-2.8291,-2.8291,-2.8291,-2.8291,-2.8291,-2.8291,-2.8291,-2.8291,-2.8291,-2.8291,-2.8291,-2.8291,-2.8125,-2.8047,-2.8047,-2.7861,-2.7646,-2.4042,-2.4547,-2.4613,-2.3954,-2.2001,-1.9981,0.0,-1.7995,-1.699,-1.5764,-1.6163,-1.6461,-1.5676,-1.6199,-1.6667,-1.6535,-1.7599,-1.8499,-1.9059,-1.9902,0.0,0.0,0.0,-2.4111,0.0,-2.5975,-2.5403,-2.5081,-2.5059,-2.5059,-2.5059,-2.6657,-2.785,-2.8644,-2.8308,-2.8599,-2.9185,-2.9479,-2.9495,-2.8985,-2.8717,-2.8734,-2.8968,-2.9483,-2.966,-2.9654,-3.0269,-2.973,-2.8478,-2.837,-2.7838,-2.7108,-2.7958,-2.8564,-2.9039,-2.9903,-3.0518,-3.084,-3.0518,-3.04,-3.04,-3.04,-3.04,-3.04,-3.04,-3.04,-3.0371,-3.0234,-3.0537,-3.0889,-3.0889,-3.0889,-3.0889,-3.0889,-3.0889,-3.0801,-3.0478,-3.04,-3.04,-3.04,-3.04,-3.0508,-3.083,-3.0625,-3.04,-3.04,-3.0029,-2.9756,-2.9756,-2.9648,-2.9453,-2.9141,-2.8848,-2.8613,-2.8486,-2.8594,-2.8613,-2.8486,-2.8603,-2.8555,-2.8301,-2.8408,-2.8418,-2.8291,-2.8291,-2.8291,-2.8291,-2.8291,-2.8291,-2.8291,-2.8291,-2.8066,-2.2476,-2.3354,-2.394,-2.3281,-2.1664,-1.9981,0.0,-1.753,-1.6279,-1.5972,-1.5657,-1.5533,-1.5855,-1.6162,-1.6477,-1.6799,-1.7121,-1.7669,-1.8657,-1.9352,0.0,0.0,0.0,-2.2893,-2.3552,-2.4781,-2.5403,-2.5081,-2.5059,-2.5059,-2.5059,-2.5359,-2.5681,-2.6003,-2.7717,-2.8419,-2.8071,-2.9202,-2.8827,-2.7153,-2.7145,-2.7145,-2.7153,-2.7145,-2.7728,-2.864,-2.828,-2.7903,-2.7509,-2.7158,-2.7013,-2.7013,-2.7013,-2.7847,-2.892,-2.892,-2.9776,-3.0889,-3.0889,-3.0889,-3.0889,-3.0889,-3.0889,-3.0889,-3.0889,-3.0889,-3.0791,-3.0322,-3.0537,-3.0889,-3.0889,-3.0889,-3.0889,-3.0889,-3.0889,-3.0889,-3.0889,-3.0889,-3.0889,-3.0889,-3.0889,-3.0889,-3.0889,-3.0889,-3.0889,-3.0889,-3.0488,-3.0185,-3.0185,-2.9824,-2.957,-2.956,-2.956,-2.9385,-2.8945,-2.9307,-2.9375,-2.8935,-2.9316,-2.918,-2.833,-2.8691,-2.8721,-2.8301,-2.8291,-2.8291,-2.8291,-2.8291,-2.8291,-2.8291,-2.8291,-2.8066,-2.0757,-2.1547,-2.1913,-2.1042,-2.0033,-1.8994,-1.8013,-1.7055,-1.6221,-1.5694,-1.5504,-1.546,-1.5562,-1.584,-1.6162,-1.6469,-1.6791,-1.7186,-1.7713,0.0,0.0,0.0,0.0,-2.4364,0.0,0.0,-2.5162,-2.5066,-2.5059,-2.5059,-2.5059,-2.5359,-2.5579,-2.5681,-2.6409,-2.6703,-2.6365,-2.6893,-2.6779,-2.6042,-2.6042,-2.6042,-2.6027,-2.6495,-2.6863,-2.7239,-2.7512,-2.7043,-2.6172,-2.5823,-2.5186,-2.4456,-2.5309,-2.592,-2.6399,-2.7246,-2.7855,-2.8224,-2.8224,-2.8393,-2.8684,-2.9259,-2.9727,-3.0034,-3.0732,-3.0889,-3.0859,-3.0713,-3.0781,-3.0889,-3.0889,-3.0889,-3.0889,-3.0889,-3.0889,-3.0889,-3.0889,-3.0889,-3.0889,-3.0889,-3.0889,-3.0889,-3.0889,-3.0889,-3.0889,-3.0889,-3.0762,-3.0674,-3.0674,-3.0557,-3.0351,-3.0029,-3.0283,-3.0176,-2.9424,-2.9492,-2.9512,-2.9375,-2.9492,-2.9453,-2.918,-2.9297,-2.916,-2.873,-2.8721,-2.8574,-2.8291,-2.8291,-2.8291,-2.8291,-2.8291,-2.8223,0.0,-1.9981,-2.0464,-1.9608,-1.8994,-1.835,-1.7369,-1.6652,-1.6052,-1.5533,-1.5431,-1.5431,-1.5431,-1.5694,-1.6016,-1.6323,-1.6645,-1.7011,-1.745,0.0,0.0,0.0,0.0,0.0,0.0,-2.484,-2.5059,-2.5059,-2.5059,-2.511,-2.5227,-2.5425,-2.5586,-2.571,-2.6025,-2.6047,-2.5718,-2.6039,-2.6039,-2.571,-2.5593,-2.5527,-2.5513,-2.5778,-2.5927,-2.6028,-2.6223,-2.5977,0.0,-2.4725,-2.4033,-2.3407,-2.4014,-2.4702,-2.5194,-2.6042,-2.6537,-2.7013,-2.7013,-2.7158,-2.7426,-2.8037,-2.8616,-2.937,-2.9988,-3.0518,-3.0889,-3.0889,-3.0889,-3.0889,-3.0889,-3.0889,-3.0889,-3.0889,-3.0889,-3.0889,-3.0889,-3.0889,-3.0889,-3.0889,-3.0889,-3.0889,-3.0889,-3.0889,-3.0889,-3.0889,-3.0889,-3.0889,-3.0889,-3.0889,-3.0781,-3.0488,-3.0723,-3.0664,-3.0117,-3.0068,-2.999,-2.9814,-2.9971,-2.9922,-2.958,-2.9726,-2.9609,-2.917,-2.9004,-2.8789,-2.8525,-2.8369,-2.8369,-2.8525,-2.8369,-2.8467,0.0,-1.8511,-1.9345,-1.8738,-1.8372,-1.7925,-1.6996,-1.6338,0.0,-1.5496,-1.5431,-1.5438,-1.546,-1.5716,-1.6023,-1.6352,-1.666,-1.7077,-1.7721,-1.8752,0.0,0.0,-2.2681,0.0,-2.3603,-2.4496,-2.5066,-2.5088,-2.5066,-2.5205,-2.5549,-2.5542,-2.5681,-2.6003,-2.6332,-2.6347,-2.6018,-2.6339,-2.6339,-2.601,-2.5732,-2.5571,-2.552,-2.5227,-2.5074,-2.5037,-2.4715,-2.4569,-2.4518,-2.3866,-2.3596,-2.3567,-2.3237,-2.3845,-2.4949,-2.4949,-2.5676,-2.6771,-2.6771,-2.6788,-2.6813,-2.6813,-2.7753,-2.8801,-2.892,-2.9785,-3.0889,-3.0889,-3.0889,-3.0889,-3.0889,-3.0889,-3.0889,-3.0889,-3.0918,-3.0928,-3.0898,-3.0918,-3.0928,-3.0898,-3.0889,-3.0889,-3.0889,-3.0889,-3.0889,-3.0889,-3.0889,-3.0889,-3.0889,-3.0889,-3.0889,-3.0889,-3.0889,-3.0889,-3.0889,-3.0889,-3.0703,-3.0273,-3.0654,-3.0527,-2.9697,-3.0039,-3.0049,-2.9619,-2.9189,-2.8965,-2.8965,-2.8574,-2.8584,-2.8955,-2.8564,-2.8809,-1.5065,0.0,-1.6784,-1.663,-1.6711,-1.6704,0.0,0.0,0.0,0.0,0.0,-1.5504,-1.5752,-1.5862,-1.6096,-1.6652,-1.6806,-1.7077,-1.7721,0.0,0.0,0.0,-2.4159,-2.443,-2.4005,-2.4627,-2.5162,-2.5403,-2.5198,-2.5308,-2.5871,-2.5666,-2.5681,-2.6003,-2.6332,-2.6347,-2.6018,-2.6339,-2.6339,-2.6018,-2.6193,-2.601,-2.5527,-2.5447,-2.5286,-2.5037,-2.4715,-2.4569,-2.4518,-2.3866,-2.3596,-2.3567,-2.3237,-2.323,-2.3604,-2.3604,-2.372,-2.3969,-2.3969,-2.4136,-2.46,-2.5585,-2.6633,-2.7615,-2.8564,-2.9785,-3.0889,-3.0889,-3.0889,-3.0889,-3.0889,-3.0889,-3.0889,-3.0889,-3.1133,-3.1279,-3.0957,-3.1143,-3.1269,-3.0957,-3.0889,-3.0889,-3.0889,-3.0889,-3.0889,-3.0889,-3.0889,-3.0889,-3.0889,-3.0889,-3.0889,-3.0889,-3.0889,-3.0889,-3.0889,-3.0889,-3.084,-3.0732,-3.083,-3.0801,-3.0586,-3.0674,-3.0518,-3.0059,-2.9639,-2.9414,-2.9414,-2.9316,-2.9316,-2.9414,-2.9316,-2.9375,-1.4157,-1.5065,-1.5877,-1.5731,-1.603,-1.6287,-1.5987,0.0,0.0,0.0,0.0,0.0,-1.5855,0.0,0.0,-1.6755,-1.6974,-1.756,0.0,0.0,0.0,0.0,-2.4393,-2.4591,-2.4532,-2.4979,-2.5344,-2.552,-2.5513,-2.571,-2.6208,-2.6076,-2.6127,-2.6457,-2.6632,-2.6566,-2.6244,-2.6413,-2.6493,-2.6457,-2.6186,-2.6025,-2.5959,-2.5513,-2.5293,-2.5257,-2.4935,-2.4708,-2.4532,-2.4027,-2.3727,-2.3567,-2.3237,-2.3106,-2.3106,-2.3106,-2.3106,-2.3106,-2.3106,-2.323,-2.3495,-2.4109,-2.5222,-2.6286,-2.6996,-2.8211,-2.9416,-2.9832,-3.002,-2.9903,-2.9313,-2.9549,-3.0077,-3.0268,-3.0837,-3.1269,-3.1445,-3.1348,-3.1221,-3.1182,-3.1025,-3.0889,-3.0889,-3.0889,-3.0889,-3.0889,-3.0889,-3.0889,-3.0889,-3.0889,-3.0889,-3.0889,-3.0889,-3.0889,-3.0889,-3.0889,-3.0889,-3.0889,-3.0889,-3.0889,-3.0889,-3.0889,-3.0674,-3.0205,-2.9971,-2.9766,-2.957,-2.957,-2.9668,-2.9853,-2.9658,-2.9785,-1.3953,-1.4926,-1.576,-1.5438,-1.5833,-1.6221,-1.5913,0.0,0.0,0.0,0.0,0.0,0.0,0.0,0.0,0.0,0.0,0.0,0.0,0.0,0.0,-2.3874,-2.4174,0.0,-2.4869,-2.5286,-2.5549,-2.56,-2.5857,-2.6179,-2.6559,-2.653,-2.6654,-2.6976,-2.6939,-2.6808,-2.6581,-2.6574,-2.672,-2.6983,-2.6149,-2.5988,-2.6405,-2.5579,-2.5293,-2.544,-2.5125,-2.4825,-2.454,-2.4166,-2.3845,-2.3567,-2.3237,-2.3106,-2.3106,-2.3106,-2.3106,-2.3106,-2.3106,-2.3106,-2.3106,-2.3106,-2.3845,-2.4826,-2.5071,-2.6044,-2.7361,-2.8135,-2.8571,-2.8496,-2.7418,-2.7903,-2.8946,-2.9544,-3.0276,-3.111,-3.2021,-3.165,-3.1269,-3.1562,-3.1328,-3.1084,-3.1084,-3.1084,-3.1084,-3.1084,-3.1084,-3.1084,-3.1084,-3.1084,-3.1055,-3.0996,-3.0986,-3.0957,-3.0898,-3.0889,-3.0889,-3.0889,-3.0889,-3.0889,-3.0889,-3.0889,-3.0703,-3.0312,-3.0303,-3.0127,-2.9775,-2.9775,-2.9951,-3.0293,-2.9941,-3.0176,-1.4231,-1.494,-1.5423,-1.5101,-1.5504,-1.5899,0.0,0.0,0.0,0.0,0.0,0.0,0.0,0.0,0.0,0.0,0.0,-1.9989,0.0,0.0,-2.3135,-2.3984,0.0,-2.473,-2.4276,-2.5022,-2.5644,-2.5922,-2.5988,-2.6281,-2.6888,-2.6654,-2.6654,-2.6976,-2.672,-2.6683,-2.691,-2.6917,-2.6939,-2.6991,-2.6837,-2.653,-2.6083,-2.5937,-2.56,-2.511,-2.4781,-2.4613,-2.4518,-2.3918,-2.364,-2.3567,-2.3237,-2.3106,-2.3106,-2.3106,-2.3106,-2.3106,-2.3106,-2.3106,-2.3106,-2.3106,-2.323,-2.3604,-2.4702,-2.5434,-2.5814,-2.6007,-2.7077,-2.8071,-2.7946,-2.7946,-2.8462,-2.9774,-3.0383,-3.1037,-3.1963,-3.2344,-3.2412,-3.2129,-3.2012,-3.1973,-3.1973,-3.1973,-3.1973,-3.1973,-3.1973,-3.1973,-3.1973,-3.1973,-3.1826,-3.1465,-3.1426,-3.1279,-3.0918,-3.0889,-3.0889,-3.0889,-3.0889,-3.0889,-3.0889,-3.0889,-3.0859,-3.0781,-3.0781,-3.0752,-3.0693,-3.0693,-3.0723,-3.0781,-3.0723,-3.0762,-1.3857,-1.4545,-1.5131,-1.4977,-1.5694,-1.6338,0.0,0.0,0.0,0.0,0.0,0.0,0.0,0.0,0.0,0.0,0.0,-2.0984,-2.2242,-2.2667,-2.3157,0.0,-2.4349,-2.4547,-2.4605,-2.533,-2.5783,-2.5754,-2.6244,-2.6596,-2.672,-2.6749,-2.6837,-2.6983,-2.6676,-2.6574,-2.6727,-2.6552,-2.6552,-2.672,-2.6369,-2.6135,-2.6003,-2.5659,-2.5337,-2.503,-2.4525,-2.4203,-2.402,-2.372,-2.3493,-2.3318,-2.3164,-2.3106,-2.3106,-2.3106,-2.3106,-2.3106,-2.3106,-2.3106,-2.3106,-2.3106,-2.3106,-2.3267,-2.4064,-2.4477,-2.4781,-2.4963,-2.5872,-2.6734,-2.6104,-2.6352,-2.7165,-2.8001,-2.9295,-3.0604,-3.1499,-3.2123,-3.2471,-3.25,-3.2324,-3.2168,-3.2168,-3.2168,-3.2168,-3.2168,-3.2168,-3.2168,-3.2168,-3.2168,-3.209,-3.1894,-3.1865,-3.1787,-3.1601,-3.1367,-3.1133,-3.0908,-3.0889,-3.0889,-3.0889,-3.0889,-3.0889,-3.0889,-3.0889,-3.0889,-3.0889,-3.0889,-3.0889,-3.0889,-3.0889,-3.0889,-1.3682,-1.4318,-1.4881,-1.5035,0.0,0.0,0.0,0.0,0.0,0.0,0.0,0.0,0.0,0.0,0.0,0.0,-2.113,-2.1869,-2.2828,-2.3032,-2.3384,-2.421,-2.4313,-2.451,-2.5008,-2.5571,-2.5798,-2.5549,-2.6222,-2.6603,-2.6508,-2.6596,-2.672,-2.6874,-2.6413,-2.6237,-2.6391,-2.5915,-2.5879,-2.6266,-2.5769,-2.5586,-2.5666,-2.5169,-2.4905,-2.4796,-2.4218,-2.383,-2.3588,-2.3515,-2.3332,-2.3106,-2.3106,-2.3106,-2.3106,-2.3106,-2.3106,-2.3106,-2.3106,-2.3106,-2.312,-2.3201,-2.3223,-2.3281,-2.361,-2.394,-2.4247,-2.4503,-2.5159,-2.5489,-2.4546,-2.5136,-2.6035,-2.6688,-2.8286,-2.9811,-3.0696,-3.1256,-3.1789,-3.2383,-3.2171,-3.2073,-3.2461,-3.2461,-3.2461,-3.2461,-3.2461,-3.2328,-3.2073,-3.2328,-3.2299,-3.1938,-3.227,-3.2383,-3.2187,-3.1768,-3.1338,-3.0918,-3.0986,-3.1035,-3.1035,-3.1035,-3.1084,-3.1191,-3.1094,-3.1084,-3.1191,-3.1084,-3.1035,-3.1035,-3.0937,-3.0889,-1.4231,-1.4662,-1.4932,-1.5321,0.0,0.0,0.0,0.0,0.0,0.0,0.0,0.0,0.0,0.0,0.0,0.0,-2.154,-2.2864,-2.3837,0.0,-2.4569,-2.4942,-2.4986,-2.5008,-2.5052,-2.5366,-2.5557,-2.5527,-2.5593,-2.5893,-2.6471,-2.5952,-2.5908,-2.6522,-2.5644,-2.5447,-2.6047,-2.514,-2.4986,-2.56,-2.5557,-2.5227,-2.4671,-2.4627,-2.4437,-2.413,-2.3779,-2.3618,-2.3574,-2.3267,-2.3128,-2.3106,-2.3106,-2.3106,-2.3106,-2.3106,-2.3106,-2.3106,-2.3106,-2.3106,-2.3157,-2.3464,-2.3559,-2.3618,-2.3947,-2.4276,-2.454,-2.4562,-2.4687,-2.4731,-2.4905,-2.5341,-2.5829,-2.7191,-2.7964,-2.8518,-2.958,-2.9868,-3.0127,-3.1212,-3.1377,-3.1751,-3.3068,-3.333,-3.333,-3.333,-3.333,-3.2806,-3.1496,-3.2543,-3.2661,-3.0988,-3.2314,-3.3018,-3.2236,-3.1768,-3.1338,-3.0918,-3.126,-3.1475,-3.1475,-3.1475,-3.166,-3.207,-3.168,-3.167,-3.208,-3.167,-3.1475,-3.1465,-3.1074,-3.0889,-1.404,-1.4545,-1.5065,-1.5599,0.0,0.0,0.0,0.0,0.0,0.0,0.0,0.0,0.0,0.0,0.0,-2.1276,-2.2447,-2.3574,-2.4547,-2.4796,-2.492,-2.5037,-2.5059,-2.5059,-2.5059,-2.5344,-2.5447,-2.5249,-2.5608,-2.5849,-2.5893,-2.5857,-2.5944,-2.6193,-2.5454,-2.5176,-2.5418,-2.4854,-2.4488,-2.4335,-2.514,-2.5191,-2.4569,-2.4569,-2.4284,-2.3764,-2.3435,-2.3288,-2.3281,-2.3164,-2.3106,-2.3106,-2.3106,-2.3106,-2.3106,-2.3106,-2.3106,-2.3106,-2.3106,-2.3106,-2.3164,-2.3493,-2.3596,-2.3691,-2.4225,-2.4474,-2.4569,-2.4569,-2.4569,-2.4649,-2.4971,-2.4993,-2.5113,-2.5854,-2.6788,-2.7645,-2.8044,-2.8809,-2.955,-2.9926,-3.0021,-3.0151,-3.0687,-3.0816,-3.0816,-3.0816,-3.0816,-3.0558,-3.0021,-3.0419,-3.0882,-3.1112,-3.2407,-3.3291,-3.2978,-3.2559,-3.2129,-3.1709,-3.1338,-3.1133,-3.1133,-3.1377,-3.1592,-3.1758,-3.1865,-3.2002,-3.2168,-3.2002,-3.1787,-3.1514,-3.1348,-3.1143,-1.3841,-1.4216,-1.4657,-1.5536,0.0,0.0,0.0,0.0,0.0,0.0,0.0,0.0,0.0,0.0,0.0,0.0,-2.2996,-2.402,-2.4796,-2.4993,-2.5059,-2.5059,-2.5059,-2.5059,-2.5059,-2.5257,-2.5293,-2.5074,-2.5271,-2.5403,-2.5381,-2.5301,-2.5344,-2.5557,-2.4935,-2.4693,-2.4905,-2.4474,-2.4137,-2.391,-2.4701,-2.4737,-2.4108,-2.4108,-2.3866,-2.3427,-2.3208,-2.3106,-2.3106,-2.3106,-2.3106,-2.3106,-2.3106,-2.3106,-2.3106,-2.3106,-2.3106,-2.3106,-2.3106,-2.3106,-2.3164,-2.3493,-2.3662,-2.383,-2.4284,-2.4488,-2.4547,-2.4444,-2.4342,-2.4364,-2.4796,-2.481,-2.4803,-2.5132,-2.5945,-2.6788,-2.668,-2.7312,-2.8071,-2.8485,-2.86,-2.8723,-2.9125,-2.9248,-2.9248,-2.9248,-2.9248,-2.8994,-2.8592,-2.8986,-2.9691,-3.071,-3.1543,-3.2247,-3.2765,-3.2382,-3.2104,-3.2197,-3.1621,-3.123,-3.1094,-3.1367,-3.1582,-3.1719,-3.1875,-3.209,-3.2363,-3.209,-3.1875,-3.1719,-3.1445,-3.1162,-1.3755,-1.3817,-1.3851,-1.5101,0.0,0.0,0.0,0.0,0.0,0.0,0.0,0.0,0.0,0.0,0.0,-2.1598,-2.304,-2.4196,-2.4532,-2.4854,-2.5059,-2.5059,-2.5059,-2.5059,-2.5059,-2.5059,-2.5059,-2.5059,-2.4459,-2.4371,-2.5015,-2.413,-2.3896,-2.4547,-2.394,-2.391,-2.4554,-2.3918,-2.3918,-2.4554,-2.4232,-2.3735,-2.3113,-2.3113,-2.3113,-2.3106,-2.3106,-2.3106,-2.3106,-2.3106,-2.3106,-2.3106,-2.3106,-2.3106,-2.3106,-2.3106,-2.3106,-2.3106,-2.3106,-2.3106,-2.3164,-2.3493,-2.3815,-2.4079,-2.4086,-2.4313,-2.4496,-2.4166,-2.3845,-2.3742,-2.4393,-2.4803,-2.5125,-2.5447,-2.5776,-2.5922,-2.5593,-2.5527,-2.5829,-2.6816,-2.702,-2.7543,-2.8854,-2.9125,-2.9125,-2.9125,-2.9125,-2.8592,-2.7278,-2.8328,-2.9393,-2.977,-2.9479,-2.977,-3.1194,-3.0956,-3.108,-3.2085,-3.2178,-3.1982,-3.1543,-3.1523,-3.1728,-3.2158,-3.1738,-3.1943,-3.2793,-3.1934,-3.1738,-3.2139,-3.1289,-3.0898,-1.3618,-1.3797,0.0,0.0,0.0,0.0,0.0,0.0,0.0,0.0,0.0,0.0,0.0,0.0,0.0,-2.2315,-2.3325,-2.4276,-2.4832,-2.4993,-2.5059,-2.5059,-2.5059,-2.5059,-2.5059,-2.5059,-2.5059,-2.5059,-2.4664,-2.451,-2.4701,-2.4218,-2.4027,-2.4218,-2.3815,-2.3691,-2.3881,-2.3691,-2.3581,-2.3545,-2.3676,-2.364,-2.3449,-2.3449,-2.3325,-2.3098,-2.2864,-2.2901,-2.3106,-2.3106,-2.3106,-2.3106,-2.3106,-2.3106,-2.3106,-2.3106,-2.3106,-2.3106,-2.3106,-2.3106,-2.3164,-2.3493,-2.3662,-2.3779,-2.4013,-2.4152,-2.4159,-2.383,-2.3669,-2.3691,-2.4123,-2.4298,-2.451,-2.5066,-2.5271,-2.5315,-2.522,-2.5198,-2.5305,-2.5599,-2.5712,-2.5846,-2.6241,-2.6375,-2.6375,-2.6375,-2.6375,-2.6107,-2.5712,-2.6894,-2.7716,-2.7955,-2.8659,-2.949,-3.0285,-3.0861,-3.1221,-3.15,-3.2527,-3.2725,-3.2012,-3.1973,-3.2041,-3.2168,-3.2041,-3.21,-3.2353,-3.21,-3.1885,-3.1709,-3.1455,-3.1172,-1.2876,0.0,0.0,0.0,0.0,0.0,0.0,0.0,0.0,0.0,0.0,0.0,0.0,-2.2652,0.0,-2.2988,-2.372,-2.4415,-2.481,-2.4862,-2.4862,-2.4862,-2.4744,-2.4723,-2.4847,-2.4744,-2.4723,-2.4854,-2.4437,-2.4181,-2.4181,-2.3874,-2.3698,-2.3698,-2.3508,-2.3464,-2.3596,-2.3464,-2.3369,-2.3303,-2.3369,-2.3398,-2.3398,-2.3398,-2.3223,-2.2901,-2.2586,-2.2623,-2.2915,-2.2915,-2.2988,-2.3106,-2.3106,-2.3106,-2.3106,-2.3106,-2.3106,-2.3106,-2.3106,-2.3106,-2.3142,-2.334,-2.3493,-2.361,-2.3676,-2.3786,-2.3845,-2.3654,-2.3596,-2.3698,-2.4159,-2.4276,-2.4408,-2.4927,-2.5059,-2.5059,-2.5059,-2.5059,-2.5059,-2.5059,-2.5059,-2.5059,-2.5059,-2.5059,-2.5059,-2.5059,-2.5059,-2.5059,-2.5059,-2.5846,-2.6368,-2.6368,-2.7028,-2.7898,-2.8777,-2.9367,-3.0142,-3.1185,-3.21,-3.2545,-3.2685,-3.25,-3.2256,-3.1914,-3.1904,-3.1904,-3.1904,-3.1738,-3.1611,-3.1514,-3.1348,-3.1133,0.0,0.0,0.0,0.0,0.0,0.0,0.0,0.0,0.0,0.0,0.0,0.0,-2.3596,-2.3449,-2.3362,-2.3603,-2.4188,-2.4613,-2.4613,-2.4613,-2.4598,-2.4576,-2.4305,-2.4247,-2.454,-2.4276,-2.4218,-2.4547,-2.3962,-2.3596,-2.3596,-2.3259,-2.3062,-2.3062,-2.304,-2.3164,-2.3464,-2.3171,-2.3186,-2.3501,-2.3179,-2.3054,-2.3106,-2.3106,-2.293,-2.2608,-2.2374,-2.2403,-2.2623,-2.2652,-2.2842,-2.3106,-2.3106,-2.3106,-2.3106,-2.3106,-2.3106,-2.3106,-2.3106,-2.3106,-2.3106,-2.3106,-2.331,-2.3493,-2.3201,-2.3332,-2.3596,-2.3596,-2.3618,-2.3779,-2.4408,-2.4569,-2.4649,-2.4979,-2.5059,-2.5059,-2.5059,-2.5059,-2.5059,-2.5059,-2.5059,-2.5059,-2.5059,-2.5059,-2.5059,-2.5059,-2.5059,-2.5059,-2.5059,-2.5059,-2.5059,-2.5059,-2.5059,-2.5577,-2.6753,-2.702,-2.8188,-3.0789,-3.1221,-3.1882,-3.3165,-3.2893,-3.2412,-3.1592,-3.1533,-3.1514,-3.1514,-3.1094,-3.1103,-3.1504,-3.1123,-3.0928,0.0,0.0,0.0,0.0,0.0,0.0,0.0,0.0,0.0,0.0,0.0,-2.4203,-2.4013,-2.4335,-2.4496,-2.4049,-2.4525,-2.4949,-2.4949,-2.4949,-2.4854,-2.4598,-2.451,-2.4496,-2.4562,-2.4276,-2.4218,-2.4547,-2.3962,-2.3596,-2.3596,-2.3047,-2.2725,-2.2725,-2.2506,-2.2418,-2.2484,-2.2418,-2.2535,-2.2828,-2.2528,-2.2637,-2.3106,-2.3106,-2.293,-2.2637,-2.2828,-2.2798,-2.2645,-2.2901,-2.3047,-2.3106,-2.3106,-2.3106,-2.3106,-2.3106,-2.3106,-2.3106,-2.3106,-2.3106,-2.3106,-2.3106,-2.3157,-2.3201,-2.3128,-2.3332,-2.3596,-2.3596,-2.3779,-2.4071,-2.4466,-2.4569,-2.4649,-2.4979,-2.5059,-2.5059,-2.5059,-2.5059,-2.5059,-2.5059,-2.5059,-2.5059,-2.5059,-2.5059,-2.5059,-2.5059,-2.5059,-2.5059,-2.5059,-2.5059,-2.5059,-2.5059,-2.5059,-2.5187,-2.545,-2.6494,-2.7411,-2.7932,-3.0451,-3.1801,-3.1726,-3.2373,-3.2549,-3.2041,-3.1689,-3.1514,-3.1514,-3.1094,-3.1103,-3.1514,-3.1426,-3.1201,0.0,0.0,0.0,0.0,0.0,0.0,0.0,0.0,0.0,0.0,0.0,-2.4284,-2.4115,-2.4364,-2.4481,-2.4137,-2.4364,-2.4591,-2.4591,-2.4591,-2.4466,-2.4145,-2.4101,-2.4101,-2.4101,-2.3662,-2.3515,-2.3845,-2.3281,-2.2915,-2.2915,-2.2601,-2.241,-2.241,-2.2264,-2.2184,-2.2184,-2.2184,-2.2257,-2.241,-2.2257,-2.2352,-2.2667,-2.2813,-2.2784,-2.2623,-2.2652,-2.2652,-2.2637,-2.2806,-2.2967,-2.3106,-2.3106,-2.3106,-2.3106,-2.3106,-2.3106,-2.3106,-2.3106,-2.3106,-2.3106,-2.3106,-2.3106,-2.3106,-2.3106,-2.323,-2.3427,-2.3742,-2.3954,-2.4188,-2.4679,-2.4803,-2.4847,-2.5015,-2.5059,-2.5059,-2.5059,-2.5059,-2.5059,-2.5059,-2.5059,-2.5059,-2.5059,-2.5059,-2.5059,-2.5059,-2.5059,-2.5059,-2.5059,-2.5059,-2.5059,-2.5059,-2.5059,-2.5059,-2.5059,-2.5712,-2.6368,-2.702,-2.8776,-2.9848,-3.029,-3.1385,-3.2334,-3.2773,-3.2353,-3.2129,-3.2129,-3.1709,-3.1504,-3.1514,-3.1514,-3.1396,0.0,0.0,0.0,0.0,0.0,0.0,0.0,0.0,0.0,0.0,-2.2769,-2.4064,-2.4005,-2.4049,-2.4064,-2.4005,-2.3998,-2.3998,-2.3998,-2.3947,-2.3793,-2.3464,-2.3427,-2.3427,-2.3427,-2.2893,-2.2681,-2.3003,-2.2498,-2.2184,-2.2184,-2.2132,-2.2096,-2.2096,-2.2045,-2.2015,-2.2015,-2.2015,-2.2045,-2.2096,-2.2154,-2.2154,-2.2111,-2.241,-2.255,-2.2535,-2.2286,-2.2352,-2.2615,-2.2564,-2.2769,-2.3106,-2.3047,-2.3062,-2.3106,-2.3106,-2.3106,-2.3106,-2.3106,-2.3106,-2.3106,-2.3106,-2.3106,-2.3106,-2.3106,-2.3149,-2.3303,-2.3845,-2.4042,-2.4218,-2.4818,-2.4971,-2.4986,-2.5044,-2.5059,-2.5059,-2.5059,-2.5059,-2.5059,-2.5059,-2.5059,-2.5059,-2.5059,-2.5059,-2.5059,-2.5059,-2.5059,-2.5059,-2.5059,-2.5059,-2.5059,-2.5059,-2.5059,-2.5059,-2.5059,-2.5059,-2.5577,-2.6627,-2.702,-2.7676,-2.8732,-3.0151,-3.1488,-3.2743,-3.2787,-3.2793,-3.2793,-3.2451,-3.2051,-3.1631,-3.1777,-3.1728,0.0,0.0,0.0,0.0,0.0,0.0,0.0,0.0,0.0,0.0,-2.1835,-2.3998,-2.3713,-2.3888,-2.3991,-2.3706,-2.3662,-2.3662,-2.3662,-2.342,-2.312,-2.2791,-2.2754,-2.2754,-2.2754,-2.244,-2.2367,-2.2667,-2.2374,-2.2184,-2.2184,-2.1913,-2.1759,-2.1759,-2.1489,-2.1342,-2.1342,-2.1342,-2.1481,-2.1767,-2.2052,-2.2037,-2.1774,-2.2096,-2.2242,-2.2242,-2.2198,-2.2352,-2.2601,-2.2345,-2.2586,-2.3084,-2.2798,-2.2857,-2.3106,-2.3106,-2.3106,-2.3106,-2.3106,-2.3106,-2.3106,-2.3106,-2.3106,-2.3106,-2.3106,-2.331,-2.3545,-2.364,-2.3866,-2.4166,-2.454,-2.4635,-2.4708,-2.4986,-2.5059,-2.5059,-2.5059,-2.5059,-2.5059,-2.5059,-2.5059,-2.5059,-2.5059,-2.5059,-2.5059,-2.5059,-2.5059,-2.5059,-2.5059,-2.5059,-2.5059,-2.5059,-2.5059,-2.5059,-2.5059,-2.5059,-2.5187,-2.5322,-2.6501,-2.7294,-2.7411,-2.8723,-2.9796,-3.0399,-3.203,-3.2793,-3.2793,-3.2744,-3.249,-3.21,-3.2822,-3.2568,0.0,0.0,0.0,0.0,0.0,0.0,0.0,0.0,0.0,-1.744,-1.9907,-2.2305,-2.3155,-2.2651,-2.2384,-2.3184,-2.268,-2.2363,-2.2952,-2.3084,-2.293,-2.2432,-2.252,-2.2557,-2.2389,-2.2096,-2.1964,-2.2096,-2.1811,-2.1642,-2.1642,-2.1503,-2.1423,-2.1423,-2.1284,-2.1211,-2.1211,-2.1211,-2.1284,-2.1423,-2.1569,-2.1562,-2.143,-2.1569,-2.184,-2.2184,-2.2184,-2.2257,-2.2381,-2.2418,-2.2593,-2.2842,-2.2879,-2.2981,-2.3106,-2.3106,-2.3106,-2.3106,-2.3106,-2.3106,-2.3106,-2.3106,-2.3106,-2.3106,-2.3106,-2.3208,-2.3362,-2.3545,-2.3698,-2.3881,-2.421,-2.4298,-2.4379,-2.4708,-2.4781,-2.4832,-2.5015,-2.5059,-2.5059,-2.5059,-2.5059,-2.5059,-2.5059,-2.5059,-2.5059,-2.5059,-2.5059,-2.5059,-2.5059,-2.5059,-2.5059,-2.5059,-2.5059,-2.5059,-2.5059,-2.5059,-2.5059,-2.5059,-2.5719,-2.5981,-2.5973,-2.7286,-2.8147,-2.8303,-3.0726,-3.2096,-3.2341,-3.2884,-3.293,-3.2529,-3.29,-3.2764,0.0,0.0,0.0,0.0,0.0,0.0,0.0,0.0,-1.5883,0.0,-1.7871,-1.9885,-2.1721,-2.1209,-2.0983,-2.2416,-2.1644,-2.1237,-2.1925,-2.2393,-2.255,-2.2001,-2.2132,-2.2176,-2.1957,-2.1715,-2.1576,-2.1576,-2.135,-2.1211,-2.1211,-2.1211,-2.1211,-2.1211,-2.1211,-2.1211,-2.1211,-2.1211,-2.1211,-2.1211,-2.1211,-2.1211,-2.1211,-2.1089,-2.1351,-2.1935,-2.1935,-2.1986,-2.2074,-2.218,-2.2355,-2.2645,-2.277,-2.2908,-2.3106,-2.3106,-2.3106,-2.3106,-2.3106,-2.3106,-2.3106,-2.3106,-2.3106,-2.3106,-2.3106,-2.3106,-2.3164,-2.3406,-2.3471,-2.3545,-2.3874,-2.402,-2.4166,-2.4496,-2.4635,-2.4759,-2.5008,-2.5059,-2.5059,-2.5059,-2.5059,-2.5059,-2.5059,-2.5059,-2.5059,-2.5059,-2.5059,-2.5059,-2.5059,-2.5059,-2.5059,-2.5059,-2.5059,-2.5059,-2.5059,-2.5059,-2.5059,-2.5059,-2.5059,-2.5059,-2.5059,-2.6107,-2.6627,-2.6627,-2.8977,-3.0562,-3.1276,-3.252,-3.2796,-3.2286,-3.2883,-3.3008,0.0,0.0,0.0,0.0,0.0,0.0,0.0,0.0,-1.4309,-1.6054,-1.6398,-1.7043,-1.8812,-1.9952,-2.0728,-2.1155,-2.0842,-2.0548,-2.0254,-2.1089,-2.1642,-2.1306,-2.1276,-2.1276,-2.1262,-2.1247,-2.1233,-2.1233,-2.1218,-2.1211,-2.1211,-2.1211,-2.1211,-2.1211,-2.1211,-2.1211,-2.1211,-2.1211,-2.1211,-2.1211,-2.1211,-2.1211,-2.1211,-2.0845,-2.0867,-2.1262,-2.1262,-2.1437,-2.1723,-2.1385,-2.1857,-2.2623,-2.2277,-2.2588,-2.3106,-2.3106,-2.3106,-2.3106,-2.3106,-2.3106,-2.3106,-2.3106,-2.3106,-2.3106,-2.3106,-2.3106,-2.3113,-2.3128,-2.3135,-2.3208,-2.3537,-2.3852,-2.4166,-2.4496,-2.4803,-2.5037,-2.5052,-2.5059,-2.5059,-2.5059,-2.5059,-2.5059,-2.5059,-2.5059,-2.5059,-2.5059,-2.5059,-2.5059,-2.5059,-2.5059,-2.5059,-2.5059,-2.5059,-2.5059,-2.5059,-2.5059,-2.5059,-2.5059,-2.5059,-2.5059,-2.5059,-2.5194,-2.5187,-2.5187,-2.6627,-2.7949,-2.9413,-3.1222,-3.1644,-3.0871,-3.2967,-3.3574,-0.9715,0.0,0.0,0.0,0.0,0.0,0.0,-1.2696,-1.325,-1.3973,-1.4802,-1.5585,-1.6504,-1.7374,-1.8339,-1.9503,-1.9437,-1.941,-1.9991,-2.0312,-2.0379,-2.0067,-2.0033,-2.0033,-2.0033,-2.0551,-2.0783,-2.0656,-2.0587,-2.0558,-2.0648,-2.0776,-2.0998,-2.1203,-2.1211,-2.1211,-2.1211,-2.1006,-2.0896,-2.0903,-2.0866,-2.0751,-2.0571,-2.053,-2.05,-2.0622,-2.0622,-2.0802,-2.1032,-2.1014,-2.1222,-2.1733,-2.2062,-2.2334,-2.2487,-2.2731,-2.2606,-2.2487,-2.2487,-2.2606,-2.2738,-2.2738,-2.2856,-2.3106,-2.3106,-2.3106,-2.3106,-2.3106,-2.3106,-2.3135,-2.3252,-2.353,-2.3903,-2.4444,-2.4818,-2.5059,-2.5059,-2.5059,-2.5059,-2.5059,-2.5059,-2.5059,-2.5059,-2.5059,-2.5059,-2.5059,-2.5059,-2.5059,-2.5059,-2.5059,-2.5059,-2.5059,-2.5059,-2.5059,-2.5059,-2.5059,-2.5059,-2.5059,-2.5059,-2.5059,-2.5059,-2.5059,-2.5059,-2.5059,-2.5577,-2.6501,-2.7808,-2.9384,-3.049,-3.1112,-3.1929,-3.2568,-0.9535,0.0,0.0,0.0,0.0,0.0,-1.1638,0.0,-1.2512,-1.2724,-1.3595,-1.4396,-1.4818,-1.525,-1.6101,-1.7713,-1.7865,-1.806,-1.9216,-1.9276,-1.9181,-1.9243,-1.8879,-1.8705,-1.9057,-1.9597,-1.9982,-2.0093,-2.0127,-2.0098,-2.0086,-2.0323,-2.0543,-2.0874,-2.0881,-2.0881,-2.0881,-2.0669,-2.0559,-2.0567,-2.0535,-2.0472,-2.0301,-2.0137,-2.0155,-2.0277,-2.0046,-2.0155,-2.0515,-2.0606,-2.0858,-2.1068,-2.1497,-2.1807,-2.1957,-2.2206,-2.227,-2.2111,-2.2111,-2.2237,-2.2487,-2.2487,-2.2613,-2.2988,-2.2988,-2.2988,-2.3106,-2.3106,-2.3106,-2.3106,-2.3106,-2.3435,-2.3925,-2.4576,-2.4898,-2.5059,-2.5059,-2.5059,-2.5059,-2.5059,-2.5059,-2.5059,-2.5059,-2.5059,-2.5059,-2.5059,-2.5059,-2.5059,-2.5059,-2.5059,-2.5059,-2.5059,-2.5059,-2.5059,-2.5059,-2.5059,-2.5059,-2.5059,-2.5059,-2.5059,-2.5059,-2.5059,-2.5059,-2.5059,-2.5059,-2.5584,-2.6494,-2.7808,-2.9248,-3.0669,-3.1056,-3.21,0.0,0.0,0.0,0.0,0.0,0.0,-1.134,-1.1638,-1.1968,-1.2602,-1.289,-1.3154,-1.3561,-1.3646,-1.4191,-1.5592,-1.5887,-1.6381,-1.7571,-1.7811,-1.8189,-1.9094,-1.788,-1.7483,-1.8525,-1.8591,-1.8865,-1.9654,-1.9757,-1.9757,-1.9764,-1.9771,-1.9888,-2.0128,-2.0114,-2.0121,-2.0237,-2.023,-2.0223,-2.023,-2.0233,-2.0279,-2.0286,-1.9908,-1.9924,-2.0277,-1.9591,-1.9707,-2.0298,-2.0247,-2.0496,-2.0767,-2.0702,-2.1133,-2.1656,-2.1656,-2.1852,-2.2111,-2.2111,-2.2111,-2.2111,-2.2111,-2.2362,-2.2613,-2.2606,-2.2863,-2.3113,-2.3106,-2.3106,-2.3113,-2.3135,-2.3618,-2.4262,-2.4905,-2.5059,-2.5059,-2.5059,-2.5059,-2.5059,-2.5059,-2.5059,-2.5059,-2.5059,-2.5059,-2.5059,-2.5059,-2.5059,-2.5059,-2.5059,-2.5059,-2.5059,-2.5059,-2.5059,-2.5059,-2.5059,-2.5059,-2.5059,-2.5059,-2.5059,-2.5059,-2.5059,-2.5059,-2.5059,-2.5059,-2.5059,-2.5059,-2.5059,-2.6368,-2.78,-2.9117,-3.0669,-3.1973,-0.9322,0.0,0.0,0.0,0.0,0.0,-1.0579,-1.0891,-1.1288,-1.1765,-1.202,-1.2195,-1.2313,-1.2583,-1.2912,-1.3301,-1.4625,-1.5658,-1.5887,-1.5842,-1.5811,-1.6086,-1.5784,-1.5631,-1.5971,-1.7287,-1.811,-1.8232,-1.8807,-1.922,-1.9442,-1.9097,-1.8878,-1.8988,-1.8775,-1.9101,-2.0237,-2.0011,-1.9894,-1.9901,-1.9896,-1.9808,-1.9611,-1.9583,-1.9591,-1.9591,-1.9482,-1.9482,-1.9597,-1.9685,-1.9848,-2.0044,-2.0363,-2.0591,-2.1046,-2.1286,-2.1354,-2.1362,-2.1362,-2.1488,-2.1734,-2.1734,-2.1985,-2.2237,-2.2487,-2.2606,-2.2731,-2.2988,-2.3106,-2.3215,-2.3691,-2.4123,-2.454,-2.4957,-2.5059,-2.5059,-2.5059,-2.5059,-2.5059,-2.5059,-2.5059,-2.5059,-2.5059,-2.5059,-2.5059,-2.5059,-2.5059,-2.5059,-2.5059,-2.5059,-2.5059,-2.5059,-2.5059,-2.5059,-2.5059,-2.5059,-2.5059,-2.5059,-2.5059,-2.5059,-2.5059,-2.5059,-2.5059,-2.5059,-2.5059,-2.5059,-2.5059,-2.545,-2.6368,-2.7808,-3.0142,-3.1451,-0.946,-0.97,-0.9941,-0.9913,0.0,0.0,-1.0234,-1.039,-1.0622,-1.1038,-1.1288,-1.1487,-1.1661,-1.1893,-1.2082,-1.2167,-1.3138,-1.4181,-1.502,-1.4614,-1.4298,-1.4859,-1.4327,-1.4158,-1.4713,-1.5695,-1.6522,-1.6636,-1.7563,-1.8408,-1.9134,-1.8534,-1.8293,-1.8631,-1.8124,-1.8445,-1.9628,-1.9652,-1.9557,-1.9564,-1.9519,-1.9395,-1.925,-1.9185,-1.9252,-1.9366,-1.9366,-1.9366,-1.9366,-1.9366,-1.9466,-1.9619,-1.9854,-2.0138,-2.0327,-2.0693,-2.0799,-2.0949,-2.1069,-2.1235,-2.1355,-2.1355,-2.1607,-2.1985,-2.2111,-2.2362,-2.2606,-2.2863,-2.2981,-2.3259,-2.391,-2.4225,-2.4481,-2.4949,-2.5059,-2.5059,-2.5059,-2.5059,-2.5059,-2.5059,-2.5059,-2.5059,-2.5059,-2.5059,-2.5059,-2.5059,-2.5059,-2.5059,-2.5059,-2.5059,-2.5059,-2.5059,-2.5059,-2.5059,-2.5059,-2.5059,-2.5059,-2.5059,-2.5059,-2.5059,-2.5059,-2.5059,-2.5059,-2.5059,-2.5059,-2.5059,-2.5059,-2.5059,-2.5846,-2.7145,-2.937,-3.0798,-0.9555,-0.9795,-1.0081,-1.0164,-0.9956,0.0,-1.0159,-1.0107,-1.0195,-1.0523,-1.074,-1.0981,-1.1378,-1.1487,-1.1562,-1.1694,-1.1775,-1.2499,-1.4288,-1.361,-1.3389,-1.444,-1.3481,-1.314,-1.414,-1.4179,-1.4487,-1.5232,-1.6368,-1.743,-1.8331,-1.766,-1.7654,-1.8331,-1.7687,-1.7799,-1.8653,-1.9071,-1.9279,-1.9279,-1.9063,-1.9045,-1.9243,-1.9003,-1.9085,-1.9366,-1.9366,-1.9366,-1.9366,-1.9366,-1.9366,-1.9366,-1.9366,-1.9546,-1.9833,-2.0127,-2.0421,-2.0722,-2.1009,-2.1109,-2.1109,-2.1109,-2.1362,-2.1607,-2.1607,-2.1985,-2.2487,-2.2613,-2.2885,-2.3296,-2.3881,-2.4086,-2.4284,-2.4869,-2.503,-2.5059,-2.5059,-2.5059,-2.5059,-2.5059,-2.5059,-2.5059,-2.5059,-2.5059,-2.5059,-2.5059,-2.5059,-2.5059,-2.5059,-2.5059,-2.5059,-2.5059,-2.5059,-2.5059,-2.5059,-2.5059,-2.5059,-2.5059,-2.5059,-2.5059,-2.5059,-2.5059,-2.5059,-2.5059,-2.5059,-2.5059,-2.5059,-2.5059,-2.5712,-2.6886,-2.8328,-2.9631,0.0,0.0,0.0,0.0,0.0,0.0,-1.0036,-1.0116,-1.0329,-1.0745,-1.0726,-1.0716,-1.0972,-1.1293,-1.142,-1.1123,-1.1491,-1.204,-1.2588,-1.2273,-1.2292,-1.2845,-1.2488,-1.2431,-1.2806,-1.365,-1.4277,-1.4379,-1.6094,-1.6377,-1.4787,-1.5446,-1.5533,-1.4793,-1.5441,-1.6293,-1.7134,-1.8325,-1.8974,-1.8981,-1.9184,-1.9276,-1.9353,-1.922,-1.9307,-1.9366,-1.9366,-1.9366,-1.9366,-1.9366,-1.9366,-1.9366,-1.9366,-1.9546,-1.9833,-2.0127,-2.0421,-2.0722,-2.1009,-2.1109,-2.1109,-2.1109,-2.1109,-2.1235,-2.1481,-2.1734,-2.1859,-2.2487,-2.2792,-2.3148,-2.3527,-2.4086,-2.451,-2.4635,-2.4869,-2.5059,-2.5059,-2.5059,-2.5059,-2.5059,-2.5059,-2.5059,-2.5059,-2.5059,-2.5059,-2.5059,-2.5059,-2.5059,-2.5059,-2.5059,-2.5059,-2.5059,-2.5059,-2.5059,-2.5059,-2.5059,-2.5059,-2.5059,-2.5059,-2.5059,-2.5059,-2.5059,-2.5059,-2.5059,-2.5059,-2.5059,-2.5059,-2.5059,-2.5187,-2.5584,-2.6902,-2.7684,0.0,0.0,0.0,-0.9786,0.0,0.0,0.0,-0.9868,-0.9879,-1.0181,-1.0168,-1.015,-1.0473,-1.0641,-1.0773,-1.0877,-1.1066,-1.1345,-1.1564,-1.1719,-1.1893,-1.2106,-1.2039,-1.202,-1.212,-1.2654,-1.3288,-1.3814,-1.4734,-1.5021,-1.4305,-1.4406,-1.4353,-1.4172,-1.4284,-1.4756,-1.5849,-1.6472,-1.6892,-1.6922,-1.751,-1.7915,-1.8229,-1.8729,-1.8978,-1.9152,-1.9305,-1.9285,-1.9158,-1.9305,-1.9366,-1.9366,-1.9366,-1.9459,-1.9619,-1.9907,-2.0201,-2.0494,-2.0788,-2.0989,-2.1109,-2.1109,-2.1109,-2.1109,-2.1362,-2.1481,-2.1734,-2.2362,-2.2727,-2.2921,-2.35,-2.3949,-2.4408,-2.4737,-2.481,-2.4862,-2.5022,-2.4927,-2.4862,-2.5022,-2.5059,-2.5059,-2.5059,-2.5059,-2.5059,-2.5059,-2.5059,-2.5059,-2.5059,-2.5059,-2.5059,-2.5059,-2.5059,-2.5059,-2.5059,-2.5059,-2.5059,-2.5059,-2.5059,-2.5059,-2.5059,-2.5059,-2.5059,-2.5059,-2.5059,-2.5059,-2.5059,-2.5059,-2.5059,-2.5059,-2.5854,-2.6501,0.0,0.0,0.0,0.0,0.0,-0.9506,0.0,0.0,0.0,-0.9542,-0.9588,-0.9611,-1.0049,-0.997,-1.0075,-1.0548,-1.0543,-1.0566,-1.087,-1.1313,-1.1583,-1.1596,-1.1644,-1.1728,-1.1704,-1.1714,-1.2122,-1.3043,-1.3206,-1.3598,-1.4033,-1.3603,-1.3588,-1.392,-1.3339,-1.3549,-1.4506,-1.4622,-1.4744,-1.4883,-1.5642,-1.6439,-1.7141,-1.7831,-1.8479,-1.8931,-1.9118,-1.9125,-1.9025,-1.9205,-1.9319,-1.9366,-1.9366,-1.9366,-1.9406,-1.9693,-1.9987,-2.0274,-2.0575,-2.0869,-2.1109,-2.1109,-2.1109,-2.1109,-2.1109,-2.1229,-2.1607,-2.2237,-2.2362,-2.2601,-2.3243,-2.3681,-2.4123,-2.4649,-2.462,-2.4569,-2.4891,-2.4759,-2.4664,-2.4993,-2.5059,-2.5059,-2.5059,-2.5059,-2.5059,-2.5059,-2.5059,-2.5059,-2.5059,-2.5059,-2.5059,-2.5059,-2.5059,-2.5059,-2.5059,-2.5059,-2.5059,-2.5059,-2.5059,-2.5059,-2.5059,-2.5059,-2.5059,-2.5059,-2.5059,-2.5059,-2.5059,-2.5059,-2.5059,-2.5059,-2.5059,-2.5712,0.0,0.0,0.0,0.0,-0.9644,0.0,0.0,0.0,-0.9571,-0.9589,0.0,-0.9385,-0.962,0.0,0.0,-0.9464,-0.9717,-1.0045,-1.03,-1.0487,-1.0712,-1.1034,-1.1189,-1.1311,-1.147,-1.1403,-1.1507,-1.1606,-1.2349,-1.2425,-1.1493,-1.2344,-1.2339,-1.1426,-1.223,-1.2744,-1.2785,-1.4013,-1.4645,-1.468,-1.499,-1.5677,-1.6745,-1.6854,-1.7597,-1.8911,-1.8684,-1.8865,-1.9299,-1.9065,-1.9132,-1.9366,-1.9366,-1.9366,-1.9406,-1.9693,-1.9987,-2.0274,-2.0575,-2.0869,-2.1109,-2.1109,-2.1109,-2.1109,-2.1109,-2.1109,-2.1235,-2.1607,-2.1734,-2.1873,-2.2573,-2.2928,-2.3285,-2.3742,-2.3954,-2.4232,-2.4554,-2.4598,-2.4664,-2.4993,-2.5059,-2.5059,-2.5059,-2.5059,-2.5059,-2.5059,-2.5059,-2.5059,-2.5059,-2.5059,-2.5059,-2.5059,-2.5059,-2.5059,-2.5059,-2.5059,-2.5059,-2.5059,-2.5059,-2.5059,-2.5059,-2.5059,-2.5059,-2.5059,-2.5059,-2.5059,-2.5059,-2.5059,-2.5059,-2.5059,-2.5059,-2.5187,0.0,0.0,0.0,0.0,0.0,0.0,-0.9459,0.0,-0.9229,-0.9337,0.0,0.0,0.0,0.0,0.0,0.0,-0.9558,-0.9582,-0.9806,-0.9898,-1.025,-1.107,-1.1203,-1.1264,-1.1239,-1.1253,-1.1253,-1.1253,-1.1473,-1.1359,-1.0952,-1.1368,-1.132,-1.0821,-1.1318,-1.1569,-1.1593,-1.2102,-1.2308,-1.2313,-1.3166,-1.3821,-1.4492,-1.5153,-1.5911,-1.6607,-1.6648,-1.714,-1.8045,-1.8096,-1.8654,-1.9366,-1.9366,-1.9366,-1.9379,-1.9506,-1.9733,-2.0,-2.0127,-2.0354,-2.0628,-2.0802,-2.0969,-2.1109,-2.1362,-2.1235,-2.1109,-2.1488,-2.1607,-2.1649,-2.2208,-2.273,-2.3178,-2.3413,-2.3855,-2.4225,-2.447,-2.4567,-2.4664,-2.4993,-2.5059,-2.5059,-2.5059,-2.5059,-2.5059,-2.5059,-2.5059,-2.5059,-2.5059,-2.5059,-2.5059,-2.5059,-2.5059,-2.5059,-2.5059,-2.5059,-2.5059,-2.5059,-2.5059,-2.5059,-2.5059,-2.5059,-2.5059,-2.5059,-2.5059,-2.5059,-2.5059,-2.5059,-2.5059,-2.5059,-2.5059,-2.5059,-0.9242,0.0,0.0,0.0,0.0,0.0,0.0,0.0,0.0,-0.9062,-0.8962,0.0,0.0,0.0,-0.8931,-0.9246,0.0,-0.9259,-0.9351,-0.9422,-0.9849,-1.0734,-1.0867,-1.0998,-1.1194,-1.0998,-1.0881,-1.1021,-1.0774,-1.0583,-1.0529,-1.0676,-1.0677,-1.0523,-1.0587,-1.0746,-1.0708,-1.0623,-1.0632,-1.0623,-1.1529,-1.2279,-1.275,-1.3627,-1.4304,-1.4879,-1.4939,-1.5772,-1.7074,-1.7267,-1.8216,-1.9366,-1.9366,-1.9366,-1.9366,-1.9004,-1.9305,-1.98,-1.943,-1.974,-2.0281,-2.0581,-2.0822,-2.1002,-2.1335,-2.1229,-2.1109,-2.1355,-2.1481,-2.1536,-2.1881,-2.2447,-2.2964,-2.3243,-2.3724,-2.413,-2.4506,-2.4596,-2.4664,-2.4993,-2.5059,-2.5059,-2.5059,-2.5059,-2.5059,-2.5059,-2.5059,-2.5059,-2.5059,-2.5059,-2.5059,-2.5059,-2.5059,-2.5059,-2.5059,-2.5059,-2.5059,-2.5059,-2.5059,-2.5059,-2.5059,-2.5059,-2.5059,-2.5059,-2.5059,-2.5059,-2.5059,-2.5059,-2.5059,-2.5059,-2.5059,-2.5059,-0.9612,-0.9612,-0.9527,-0.9181,-0.9092,-0.8999,-0.8742,-0.8698,-0.8816,-0.882,-0.8812,-0.8808,-0.882,-0.8812,-0.8755,-0.8689,-0.8706,0.0,0.0,-0.9178,-0.9404,-0.9793,-1.0197,-1.0605,-1.1194,-1.0511,-1.0143,-1.0537,-1.0405,-1.0232,-0.9752,-1.04,-1.0511,-1.0027,-1.0319,-1.0414,-1.0323,-1.0492,-1.0569,-1.0444,-1.0611,-1.1345,-1.2427,-1.2427,-1.3302,-1.4614,-1.4519,-1.5462,-1.7183,-1.7068,-1.7924,-1.9366,-1.9366,-1.9366,-1.9249,-1.8046,-1.8462,-1.9674,-1.8332,-1.9,-2.0281,-2.0581,-2.0681,-2.0742,-2.1022,-2.1109,-2.1109,-2.1109,-2.1109,-2.1235,-2.1495,-2.1873,-2.2328,-2.2915,-2.3362,-2.3793,-2.4444,-2.4576,-2.4664,-2.4993,-2.5059,-2.5059,-2.5059,-2.5059,-2.5059,-2.5059,-2.5059,-2.5059,-2.5059,-2.5059,-2.5059,-2.5059,-2.5059,-2.5059,-2.5059,-2.5059,-2.5059,-2.5059,-2.5059,-2.5059,-2.5059,-2.5059,-2.5059,-2.5059,-2.5059,-2.5059,-2.5059,-2.5059,-2.5059,-2.5059,-2.5059,-2.5059,-0.9628,-0.9709,-0.9713,-0.9356,-0.9267,-0.9206,-0.8974,-0.8869,-0.8852,-0.8978,-0.8905,-0.882,-0.882,-0.8727,-0.8633,-0.8576,-0.8617,-0.8742,0.0,-0.9016,-0.9315,-0.9627,-1.0121,-1.0513,-1.0711,-1.061,-1.0528,-1.0323,-1.04,-1.0486,-1.051,-1.0502,-1.0511,-1.0511,-1.0413,-1.041,-1.0306,-1.0488,-1.0569,-1.0436,-1.0611,-1.0907,-1.1232,-1.1232,-1.1665,-1.219,-1.2316,-1.3208,-1.4634,-1.479,-1.6077,-1.8169,-1.8169,-1.8648,-1.9366,-1.8887,-1.9069,-1.9512,-1.9031,-1.9338,-1.9993,-2.0287,-2.0514,-2.0728,-2.1022,-2.1109,-2.1109,-2.1109,-2.1109,-2.1109,-2.1235,-2.1481,-2.1864,-2.2237,-2.3004,-2.3702,-2.4075,-2.4622,-2.492,-2.5037,-2.5059,-2.5059,-2.5059,-2.5059,-2.5059,-2.5059,-2.5059,-2.5059,-2.5059,-2.5059,-2.5059,-2.5059,-2.5059,-2.5059,-2.5059,-2.5059,-2.5059,-2.5059,-2.5059,-2.5059,-2.5059,-2.5059,-2.5059,-2.5059,-2.5059,-2.5059,-2.5059,-2.5059,-2.5059,-2.5059,-2.5059,-2.5059,-0.9628,-0.9754,-0.9815,-0.9522,-0.9449,-0.9405,-0.923,-0.9096,-0.9043,-0.9165,-0.9043,-0.8938,-0.8999,-0.8816,-0.8658,-0.8658,-0.8658,-0.8637,0.0,-0.8839,-0.911,-0.944,-0.989,-1.0292,-1.0409,-1.0373,-1.0301,-1.0214,-1.035,-1.0478,-1.0594,-1.0559,-1.0511,-1.0511,-1.0314,-1.0207,-1.0196,-1.0381,-1.0464,-1.0436,-1.0611,-1.0692,-1.0692,-1.0692,-1.0794,-1.0976,-1.1147,-1.2013,-1.3367,-1.358,-1.4971,-1.6862,-1.6862,-1.7578,-1.8765,-1.8765,-1.8765,-1.8765,-1.8765,-1.8888,-1.9082,-1.9247,-1.9652,-1.9937,-2.0737,-2.1029,-2.1129,-2.1236,-2.1189,-2.1136,-2.1236,-2.1517,-2.1895,-2.2126,-2.2987,-2.3865,-2.4118,-2.4645,-2.5059,-2.5059,-2.5059,-2.5059,-2.5059,-2.5059,-2.5059,-2.5059,-2.5059,-2.5059,-2.5059,-2.5059,-2.5059,-2.5059,-2.5059,-2.5059,-2.5059,-2.5059,-2.5059,-2.5059,-2.5059,-2.5059,-2.5059,-2.5059,-2.5162,-2.5396,-2.5176,-2.5169,-2.5396,-2.5169,-2.5059,-2.5059,-2.5059,-2.5059]}]]